<?xml version='1.0' encoding='UTF-8'?><gpx version="1.1" creator="JPX - https://github.com/jenetics/jpx" xmlns="http://www.topografix.com/GPX/1/1"><trk><trkseg><trkpt lat="43.1662814" lon="12.297848"><ele>277.0</ele><time>2026-04-08T11:01:44.75Z</time></trkpt><trkpt lat="43.1663722" lon="12.2978246"><ele>277.0</ele><time>2026-04-08T11:02:02.767Z</time></trkpt><trkpt lat="43.1663195" lon="12.2979216"><ele>277.0</ele><time>2026-04-08T11:02:05.768Z</time></trkpt><trkpt lat="43.1663097" lon="12.2980238"><ele>277.0</ele><time>2026-04-08T11:02:14.753Z</time></trkpt><trkpt lat="43.1662428" lon="12.2980738"><ele>277.0</ele><time>2026-04-08T11:02:19.705Z</time></trkpt><trkpt lat="43.1661602" lon="12.2980484"><ele>277.0</ele><time>2026-04-08T11:02:23.784Z</time></trkpt><trkpt lat="43.1661158" lon="12.2979691"><ele>277.0</ele><time>2026-04-08T11:02:27.743Z</time></trkpt><trkpt lat="43.1661832" lon="12.2979286"><ele>277.0</ele><time>2026-04-08T11:02:52.775Z</time></trkpt><trkpt lat="43.1662353" lon="12.2978773"><ele>277.0</ele><time>2026-04-08T11:03:06.744Z</time></trkpt><trkpt lat="43.1663528" lon="12.2978563"><ele>277.0</ele><time>2026-04-08T11:03:30.781Z</time></trkpt><trkpt lat="43.1662942" lon="12.2979077"><ele>277.0</ele><time>2026-04-08T11:04:15.78Z</time></trkpt><trkpt lat="43.1663442" lon="12.2978501"><ele>277.0</ele><time>2026-04-08T11:04:26.782Z</time></trkpt><trkpt lat="43.1664189" lon="12.2977944"><ele>278.4</ele><time>2026-04-08T11:05:16.749Z</time></trkpt><trkpt lat="43.1665544" lon="12.2977021"><ele>279.79999999999995</ele><time>2026-04-08T11:05:18.787Z</time></trkpt><trkpt lat="43.1666299" lon="12.2976328"><ele>281.2</ele><time>2026-04-08T11:05:19.801Z</time></trkpt><trkpt lat="43.1667127" lon="12.297562"><ele>282.59999999999997</ele><time>2026-04-08T11:05:20.745Z</time></trkpt><trkpt lat="43.1667889" lon="12.2974948"><ele>284.0</ele><time>2026-04-08T11:05:21.747Z</time></trkpt><trkpt lat="43.1668711" lon="12.2974155"><ele>284.0</ele><time>2026-04-08T11:05:22.778Z</time></trkpt><trkpt lat="43.166943" lon="12.2973426"><ele>284.0</ele><time>2026-04-08T11:05:23.763Z</time></trkpt><trkpt lat="43.1670127" lon="12.2972841"><ele>284.0</ele><time>2026-04-08T11:05:24.791Z</time></trkpt><trkpt lat="43.1671035" lon="12.2972033"><ele>284.0</ele><time>2026-04-08T11:05:26.765Z</time></trkpt><trkpt lat="43.1671749" lon="12.2971399"><ele>284.0</ele><time>2026-04-08T11:05:28.794Z</time></trkpt><trkpt lat="43.1672353" lon="12.2970516"><ele>282.1666666666667</ele><time>2026-04-08T11:05:31.792Z</time></trkpt><trkpt lat="43.1672459" lon="12.2969435"><ele>280.33333333333337</ele><time>2026-04-08T11:05:35.79Z</time></trkpt><trkpt lat="43.1671898" lon="12.2968518"><ele>278.5</ele><time>2026-04-08T11:05:39.807Z</time></trkpt><trkpt lat="43.1671478" lon="12.2967434"><ele>276.6666666666667</ele><time>2026-04-08T11:05:42.781Z</time></trkpt><trkpt lat="43.1671275" lon="12.2966574"><ele>274.8333333333333</ele><time>2026-04-08T11:05:44.778Z</time></trkpt><trkpt lat="43.1671066" lon="12.2965421"><ele>273.0</ele><time>2026-04-08T11:05:46.769Z</time></trkpt><trkpt lat="43.1670911" lon="12.2964428"><ele>271.6666666666667</ele><time>2026-04-08T11:05:47.767Z</time></trkpt><trkpt lat="43.1670644" lon="12.2963196"><ele>270.3333333333333</ele><time>2026-04-08T11:05:48.798Z</time></trkpt><trkpt lat="43.1670504" lon="12.2961909"><ele>269.0</ele><time>2026-04-08T11:05:49.775Z</time></trkpt><trkpt lat="43.1670475" lon="12.2960676"><ele>267.66666666666663</ele><time>2026-04-08T11:05:50.78Z</time></trkpt><trkpt lat="43.1670413" lon="12.2959584"><ele>266.3333333333333</ele><time>2026-04-08T11:05:51.777Z</time></trkpt><trkpt lat="43.1670318" lon="12.2958475"><ele>265.0</ele><time>2026-04-08T11:05:52.786Z</time></trkpt><trkpt lat="43.1670145" lon="12.2957441"><ele>265.0</ele><time>2026-04-08T11:05:53.767Z</time></trkpt><trkpt lat="43.166999" lon="12.2956391"><ele>265.0</ele><time>2026-04-08T11:05:54.789Z</time></trkpt><trkpt lat="43.1669798" lon="12.2955293"><ele>265.0</ele><time>2026-04-08T11:05:55.769Z</time></trkpt><trkpt lat="43.1669572" lon="12.29544"><ele>265.0</ele><time>2026-04-08T11:05:56.742Z</time></trkpt><trkpt lat="43.1669414" lon="12.2953549"><ele>265.0</ele><time>2026-04-08T11:05:57.779Z</time></trkpt><trkpt lat="43.1668583" lon="12.2952405"><ele>265.0</ele><time>2026-04-08T11:05:59.791Z</time></trkpt><trkpt lat="43.1667856" lon="12.2952134"><ele>263.66666666666663</ele><time>2026-04-08T11:06:00.743Z</time></trkpt><trkpt lat="43.1667043" lon="12.2951964"><ele>262.3333333333333</ele><time>2026-04-08T11:06:01.79Z</time></trkpt><trkpt lat="43.1666253" lon="12.2951721"><ele>261.0</ele><time>2026-04-08T11:06:02.76Z</time></trkpt><trkpt lat="43.1665857" lon="12.2951033"><ele>259.6666666666667</ele><time>2026-04-08T11:06:03.775Z</time></trkpt><trkpt lat="43.1665671" lon="12.2949912"><ele>258.33333333333337</ele><time>2026-04-08T11:06:04.752Z</time></trkpt><trkpt lat="43.166551" lon="12.2948996"><ele>257.0</ele><time>2026-04-08T11:06:05.787Z</time></trkpt><trkpt lat="43.1665412" lon="12.2948011"><ele>256.7142857142857</ele><time>2026-04-08T11:06:06.758Z</time></trkpt><trkpt lat="43.1665288" lon="12.2946937"><ele>256.42857142857144</ele><time>2026-04-08T11:06:07.783Z</time></trkpt><trkpt lat="43.1665136" lon="12.2945901"><ele>256.14285714285717</ele><time>2026-04-08T11:06:08.8Z</time></trkpt><trkpt lat="43.1664938" lon="12.2944927"><ele>255.85714285714286</ele><time>2026-04-08T11:06:09.798Z</time></trkpt><trkpt lat="43.1664789" lon="12.2943965"><ele>255.5714285714286</ele><time>2026-04-08T11:06:10.782Z</time></trkpt><trkpt lat="43.1664688" lon="12.2943071"><ele>255.2857142857143</ele><time>2026-04-08T11:06:11.782Z</time></trkpt><trkpt lat="43.1664539" lon="12.2942209"><ele>255.0</ele><time>2026-04-08T11:06:12.812Z</time></trkpt><trkpt lat="43.1664245" lon="12.2941131"><ele>255.0</ele><time>2026-04-08T11:06:14.794Z</time></trkpt><trkpt lat="43.1664125" lon="12.2940219"><ele>255.00000000000003</ele><time>2026-04-08T11:06:16.792Z</time></trkpt><trkpt lat="43.1663827" lon="12.2939193"><ele>255.0</ele><time>2026-04-08T11:06:19.791Z</time></trkpt><trkpt lat="43.1663538" lon="12.2938425"><ele>255.0</ele><time>2026-04-08T11:06:22.796Z</time></trkpt><trkpt lat="43.1662955" lon="12.2938095"><ele>255.00000000000003</ele><time>2026-04-08T11:06:25.799Z</time></trkpt><trkpt lat="43.1662308" lon="12.293839"><ele>255.0</ele><time>2026-04-08T11:06:26.766Z</time></trkpt><trkpt lat="43.1661692" lon="12.293858"><ele>255.0</ele><time>2026-04-08T11:06:27.811Z</time></trkpt><trkpt lat="43.1660933" lon="12.2938898"><ele>255.0</ele><time>2026-04-08T11:06:28.794Z</time></trkpt><trkpt lat="43.1660162" lon="12.2939156"><ele>255.0</ele><time>2026-04-08T11:06:29.802Z</time></trkpt><trkpt lat="43.1659427" lon="12.2939356"><ele>255.0</ele><time>2026-04-08T11:06:30.798Z</time></trkpt><trkpt lat="43.1658792" lon="12.2939494"><ele>255.0</ele><time>2026-04-08T11:06:31.799Z</time></trkpt><trkpt lat="43.1657898" lon="12.2939779"><ele>255.0</ele><time>2026-04-08T11:06:33.736Z</time></trkpt><trkpt lat="43.16572" lon="12.2939633"><ele>255.0</ele><time>2026-04-08T11:06:36.763Z</time></trkpt><trkpt lat="43.1657445" lon="12.2937951"><ele>254.6</ele><time>2026-04-08T11:06:39.778Z</time></trkpt><trkpt lat="43.1657686" lon="12.2937027"><ele>254.2</ele><time>2026-04-08T11:06:40.81Z</time></trkpt><trkpt lat="43.165798" lon="12.293569"><ele>253.8</ele><time>2026-04-08T11:06:41.795Z</time></trkpt><trkpt lat="43.1658105" lon="12.2933921"><ele>253.4</ele><time>2026-04-08T11:06:42.8Z</time></trkpt><trkpt lat="43.1658273" lon="12.293215"><ele>253.0</ele><time>2026-04-08T11:06:43.78Z</time></trkpt><trkpt lat="43.1658364" lon="12.2930601"><ele>252.99999999999997</ele><time>2026-04-08T11:06:44.772Z</time></trkpt><trkpt lat="43.1658539" lon="12.2929265"><ele>253.0</ele><time>2026-04-08T11:06:45.792Z</time></trkpt><trkpt lat="43.1658655" lon="12.2928186"><ele>253.0</ele><time>2026-04-08T11:06:46.779Z</time></trkpt><trkpt lat="43.1658735" lon="12.2927255"><ele>253.0</ele><time>2026-04-08T11:06:47.808Z</time></trkpt><trkpt lat="43.1658818" lon="12.2925679"><ele>252.99999999999997</ele><time>2026-04-08T11:06:49.791Z</time></trkpt><trkpt lat="43.1658597" lon="12.2924757"><ele>253.0</ele><time>2026-04-08T11:06:50.783Z</time></trkpt><trkpt lat="43.16583" lon="12.2923714"><ele>253.0</ele><time>2026-04-08T11:06:51.799Z</time></trkpt><trkpt lat="43.1657976" lon="12.2922467"><ele>253.0</ele><time>2026-04-08T11:06:52.802Z</time></trkpt><trkpt lat="43.1657529" lon="12.2921194"><ele>253.0</ele><time>2026-04-08T11:06:53.798Z</time></trkpt><trkpt lat="43.1657009" lon="12.2919851"><ele>253.0</ele><time>2026-04-08T11:06:54.804Z</time></trkpt><trkpt lat="43.1656471" lon="12.2918355"><ele>253.0</ele><time>2026-04-08T11:06:55.792Z</time></trkpt><trkpt lat="43.1655982" lon="12.2916881"><ele>253.0</ele><time>2026-04-08T11:06:56.775Z</time></trkpt><trkpt lat="43.1655452" lon="12.2915407"><ele>253.0</ele><time>2026-04-08T11:06:57.797Z</time></trkpt><trkpt lat="43.1654876" lon="12.2914057"><ele>253.0</ele><time>2026-04-08T11:06:58.795Z</time></trkpt><trkpt lat="43.1654249" lon="12.2912795"><ele>253.0</ele><time>2026-04-08T11:06:59.81Z</time></trkpt><trkpt lat="43.1653726" lon="12.2911772"><ele>253.0</ele><time>2026-04-08T11:07:00.787Z</time></trkpt><trkpt lat="43.1653187" lon="12.2910838"><ele>252.99999999999997</ele><time>2026-04-08T11:07:01.797Z</time></trkpt><trkpt lat="43.1652378" lon="12.2909966"><ele>253.0</ele><time>2026-04-08T11:07:03.781Z</time></trkpt><trkpt lat="43.1652658" lon="12.2908921"><ele>253.0</ele><time>2026-04-08T11:07:05.797Z</time></trkpt><trkpt lat="43.1653298" lon="12.2908162"><ele>253.0</ele><time>2026-04-08T11:07:06.782Z</time></trkpt><trkpt lat="43.1653684" lon="12.2907466"><ele>252.99999999999997</ele><time>2026-04-08T11:07:07.8Z</time></trkpt><trkpt lat="43.1653876" lon="12.2906249"><ele>253.0</ele><time>2026-04-08T11:07:09.793Z</time></trkpt><trkpt lat="43.1653291" lon="12.2905444"><ele>252.66666666666666</ele><time>2026-04-08T11:07:10.743Z</time></trkpt><trkpt lat="43.1652842" lon="12.2904651"><ele>252.33333333333331</ele><time>2026-04-08T11:07:11.793Z</time></trkpt><trkpt lat="43.1652394" lon="12.2903762"><ele>252.0</ele><time>2026-04-08T11:07:12.798Z</time></trkpt><trkpt lat="43.1651785" lon="12.2903025"><ele>251.66666666666669</ele><time>2026-04-08T11:07:13.784Z</time></trkpt><trkpt lat="43.1650927" lon="12.2902322"><ele>251.33333333333334</ele><time>2026-04-08T11:07:14.79Z</time></trkpt><trkpt lat="43.1650069" lon="12.290166"><ele>251.0</ele><time>2026-04-08T11:07:15.802Z</time></trkpt><trkpt lat="43.1649363" lon="12.2901203"><ele>250.50000000000003</ele><time>2026-04-08T11:07:16.789Z</time></trkpt><trkpt lat="43.1648593" lon="12.2900735"><ele>250.0</ele><time>2026-04-08T11:07:17.741Z</time></trkpt><trkpt lat="43.1647961" lon="12.2900233"><ele>249.5</ele><time>2026-04-08T11:07:18.81Z</time></trkpt><trkpt lat="43.1647585" lon="12.2899454"><ele>249.0</ele><time>2026-04-08T11:07:19.796Z</time></trkpt><trkpt lat="43.1647629" lon="12.2898244"><ele>248.50000000000003</ele><time>2026-04-08T11:07:20.785Z</time></trkpt><trkpt lat="43.1647814" lon="12.2896774"><ele>248.0</ele><time>2026-04-08T11:07:21.773Z</time></trkpt><trkpt lat="43.1647974" lon="12.2895175"><ele>248.0</ele><time>2026-04-08T11:07:22.799Z</time></trkpt><trkpt lat="43.1648069" lon="12.2893458"><ele>248.0</ele><time>2026-04-08T11:07:23.769Z</time></trkpt><trkpt lat="43.1648163" lon="12.2891796"><ele>248.0</ele><time>2026-04-08T11:07:24.801Z</time></trkpt><trkpt lat="43.1648348" lon="12.289014"><ele>248.0</ele><time>2026-04-08T11:07:25.775Z</time></trkpt><trkpt lat="43.16486" lon="12.2888528"><ele>248.2</ele><time>2026-04-08T11:07:26.776Z</time></trkpt><trkpt lat="43.1648851" lon="12.2887"><ele>248.4</ele><time>2026-04-08T11:07:27.802Z</time></trkpt><trkpt lat="43.1648969" lon="12.2885546"><ele>248.59999999999997</ele><time>2026-04-08T11:07:28.799Z</time></trkpt><trkpt lat="43.1648937" lon="12.2884028"><ele>248.79999999999998</ele><time>2026-04-08T11:07:29.789Z</time></trkpt><trkpt lat="43.1648802" lon="12.2882601"><ele>249.0</ele><time>2026-04-08T11:07:30.791Z</time></trkpt><trkpt lat="43.1648785" lon="12.288113"><ele>249.5</ele><time>2026-04-08T11:07:31.809Z</time></trkpt><trkpt lat="43.1649004" lon="12.2879733"><ele>250.0</ele><time>2026-04-08T11:07:32.807Z</time></trkpt><trkpt lat="43.1649532" lon="12.287835"><ele>250.5</ele><time>2026-04-08T11:07:33.787Z</time></trkpt><trkpt lat="43.1650207" lon="12.2877019"><ele>251.0</ele><time>2026-04-08T11:07:34.798Z</time></trkpt><trkpt lat="43.1650905" lon="12.2875695"><ele>251.0</ele><time>2026-04-08T11:07:35.79Z</time></trkpt><trkpt lat="43.1651565" lon="12.2874371"><ele>251.00000000000003</ele><time>2026-04-08T11:07:36.771Z</time></trkpt><trkpt lat="43.1652088" lon="12.2873047"><ele>251.00000000000003</ele><time>2026-04-08T11:07:37.738Z</time></trkpt><trkpt lat="43.1652485" lon="12.2871748"><ele>251.0</ele><time>2026-04-08T11:07:38.796Z</time></trkpt><trkpt lat="43.1652793" lon="12.2870534"><ele>251.0</ele><time>2026-04-08T11:07:39.811Z</time></trkpt><trkpt lat="43.1653085" lon="12.2869331"><ele>251.20000000000002</ele><time>2026-04-08T11:07:40.803Z</time></trkpt><trkpt lat="43.1653351" lon="12.2868006"><ele>251.40000000000003</ele><time>2026-04-08T11:07:41.804Z</time></trkpt><trkpt lat="43.1653586" lon="12.2866659"><ele>251.6</ele><time>2026-04-08T11:07:42.784Z</time></trkpt><trkpt lat="43.1653859" lon="12.2865388"><ele>251.8</ele><time>2026-04-08T11:07:43.787Z</time></trkpt><trkpt lat="43.165415" lon="12.2864112"><ele>252.0</ele><time>2026-04-08T11:07:44.812Z</time></trkpt><trkpt lat="43.1654479" lon="12.2862943"><ele>252.33333333333334</ele><time>2026-04-08T11:07:45.782Z</time></trkpt><trkpt lat="43.1654874" lon="12.2861854"><ele>252.66666666666669</ele><time>2026-04-08T11:07:46.754Z</time></trkpt><trkpt lat="43.1655277" lon="12.2860804"><ele>253.0</ele><time>2026-04-08T11:07:47.809Z</time></trkpt><trkpt lat="43.1655737" lon="12.2859829"><ele>253.33333333333334</ele><time>2026-04-08T11:07:48.803Z</time></trkpt><trkpt lat="43.1656144" lon="12.2858798"><ele>253.66666666666669</ele><time>2026-04-08T11:07:49.79Z</time></trkpt><trkpt lat="43.1656566" lon="12.2857636"><ele>254.0</ele><time>2026-04-08T11:07:50.791Z</time></trkpt><trkpt lat="43.1657" lon="12.2856478"><ele>253.66666666666669</ele><time>2026-04-08T11:07:51.8Z</time></trkpt><trkpt lat="43.1657436" lon="12.285532"><ele>253.33333333333334</ele><time>2026-04-08T11:07:52.794Z</time></trkpt><trkpt lat="43.1657884" lon="12.2854203"><ele>253.0</ele><time>2026-04-08T11:07:53.787Z</time></trkpt><trkpt lat="43.1658361" lon="12.2853159"><ele>252.66666666666669</ele><time>2026-04-08T11:07:54.815Z</time></trkpt><trkpt lat="43.1658822" lon="12.2852134"><ele>252.33333333333334</ele><time>2026-04-08T11:07:55.768Z</time></trkpt><trkpt lat="43.1659314" lon="12.2851227"><ele>252.0</ele><time>2026-04-08T11:07:56.792Z</time></trkpt><trkpt lat="43.1659614" lon="12.2850331"><ele>252.0</ele><time>2026-04-08T11:07:57.792Z</time></trkpt><trkpt lat="43.1659874" lon="12.2849345"><ele>252.0</ele><time>2026-04-08T11:07:58.809Z</time></trkpt><trkpt lat="43.1659919" lon="12.2848236"><ele>252.0</ele><time>2026-04-08T11:07:59.796Z</time></trkpt><trkpt lat="43.165966" lon="12.2847095"><ele>252.0</ele><time>2026-04-08T11:08:00.808Z</time></trkpt><trkpt lat="43.1659227" lon="12.2845967"><ele>252.0</ele><time>2026-04-08T11:08:01.8Z</time></trkpt><trkpt lat="43.165867" lon="12.2844897"><ele>252.0</ele><time>2026-04-08T11:08:02.795Z</time></trkpt><trkpt lat="43.1658155" lon="12.2843737"><ele>251.83333333333334</ele><time>2026-04-08T11:08:03.79Z</time></trkpt><trkpt lat="43.1657681" lon="12.2842657"><ele>251.66666666666669</ele><time>2026-04-08T11:08:04.797Z</time></trkpt><trkpt lat="43.1657233" lon="12.2841632"><ele>251.5</ele><time>2026-04-08T11:08:05.818Z</time></trkpt><trkpt lat="43.1656948" lon="12.2840775"><ele>251.33333333333334</ele><time>2026-04-08T11:08:06.805Z</time></trkpt><trkpt lat="43.165658" lon="12.2839235"><ele>251.16666666666669</ele><time>2026-04-08T11:08:08.789Z</time></trkpt><trkpt lat="43.1656326" lon="12.283837"><ele>251.0</ele><time>2026-04-08T11:08:09.803Z</time></trkpt><trkpt lat="43.1655886" lon="12.2837261"><ele>251.0</ele><time>2026-04-08T11:08:10.775Z</time></trkpt><trkpt lat="43.1655295" lon="12.2836017"><ele>251.0</ele><time>2026-04-08T11:08:11.793Z</time></trkpt><trkpt lat="43.1654681" lon="12.2834677"><ele>251.0</ele><time>2026-04-08T11:08:12.787Z</time></trkpt><trkpt lat="43.1654" lon="12.2833326"><ele>251.0</ele><time>2026-04-08T11:08:13.801Z</time></trkpt><trkpt lat="43.1653316" lon="12.2832146"><ele>251.00000000000003</ele><time>2026-04-08T11:08:14.799Z</time></trkpt><trkpt lat="43.1652692" lon="12.2831214"><ele>251.0</ele><time>2026-04-08T11:08:15.771Z</time></trkpt><trkpt lat="43.16522" lon="12.2830332"><ele>251.0</ele><time>2026-04-08T11:08:16.799Z</time></trkpt><trkpt lat="43.1651865" lon="12.2829521"><ele>251.0</ele><time>2026-04-08T11:08:17.804Z</time></trkpt><trkpt lat="43.1651796" lon="12.2828654"><ele>251.00000000000003</ele><time>2026-04-08T11:08:18.797Z</time></trkpt><trkpt lat="43.1651956" lon="12.2827665"><ele>251.0</ele><time>2026-04-08T11:08:19.805Z</time></trkpt><trkpt lat="43.1652357" lon="12.2826666"><ele>250.60000000000002</ele><time>2026-04-08T11:08:20.797Z</time></trkpt><trkpt lat="43.1653033" lon="12.2825755"><ele>250.20000000000002</ele><time>2026-04-08T11:08:21.79Z</time></trkpt><trkpt lat="43.1653779" lon="12.2824788"><ele>249.79999999999998</ele><time>2026-04-08T11:08:22.794Z</time></trkpt><trkpt lat="43.1654455" lon="12.2823821"><ele>249.39999999999998</ele><time>2026-04-08T11:08:23.799Z</time></trkpt><trkpt lat="43.1655127" lon="12.2822823"><ele>249.0</ele><time>2026-04-08T11:08:24.797Z</time></trkpt><trkpt lat="43.1655684" lon="12.282195"><ele>249.0</ele><time>2026-04-08T11:08:25.775Z</time></trkpt><trkpt lat="43.1656195" lon="12.2821101"><ele>249.0</ele><time>2026-04-08T11:08:26.793Z</time></trkpt><trkpt lat="43.1656598" lon="12.2820253"><ele>249.0</ele><time>2026-04-08T11:08:27.789Z</time></trkpt><trkpt lat="43.1656993" lon="12.2819326"><ele>249.0</ele><time>2026-04-08T11:08:28.798Z</time></trkpt><trkpt lat="43.1657198" lon="12.2818168"><ele>249.0</ele><time>2026-04-08T11:08:29.795Z</time></trkpt><trkpt lat="43.1657302" lon="12.2816876"><ele>249.0</ele><time>2026-04-08T11:08:30.782Z</time></trkpt><trkpt lat="43.1657093" lon="12.2815369"><ele>250.25</ele><time>2026-04-08T11:08:31.801Z</time></trkpt><trkpt lat="43.1656722" lon="12.2813806"><ele>251.5</ele><time>2026-04-08T11:08:32.799Z</time></trkpt><trkpt lat="43.1656367" lon="12.2812286"><ele>252.75</ele><time>2026-04-08T11:08:33.748Z</time></trkpt><trkpt lat="43.1655948" lon="12.2810811"><ele>254.0</ele><time>2026-04-08T11:08:34.803Z</time></trkpt><trkpt lat="43.165543" lon="12.2809249"><ele>254.0</ele><time>2026-04-08T11:08:35.749Z</time></trkpt><trkpt lat="43.1654899" lon="12.2807746"><ele>254.0</ele><time>2026-04-08T11:08:36.786Z</time></trkpt><trkpt lat="43.165436" lon="12.2806243"><ele>254.0</ele><time>2026-04-08T11:08:37.799Z</time></trkpt><trkpt lat="43.1653897" lon="12.2804761"><ele>254.0</ele><time>2026-04-08T11:08:38.781Z</time></trkpt><trkpt lat="43.1653467" lon="12.2803281"><ele>254.0</ele><time>2026-04-08T11:08:39.807Z</time></trkpt><trkpt lat="43.165313" lon="12.2801912"><ele>253.99999999999997</ele><time>2026-04-08T11:08:40.794Z</time></trkpt><trkpt lat="43.1652864" lon="12.2800485"><ele>253.99999999999997</ele><time>2026-04-08T11:08:41.8Z</time></trkpt><trkpt lat="43.1652648" lon="12.2799087"><ele>254.0</ele><time>2026-04-08T11:08:42.792Z</time></trkpt><trkpt lat="43.1652451" lon="12.2797781"><ele>254.0</ele><time>2026-04-08T11:08:43.804Z</time></trkpt><trkpt lat="43.1652257" lon="12.2796521"><ele>254.00000000000003</ele><time>2026-04-08T11:08:44.788Z</time></trkpt><trkpt lat="43.165207" lon="12.2795353"><ele>254.0</ele><time>2026-04-08T11:08:45.801Z</time></trkpt><trkpt lat="43.1651923" lon="12.279424"><ele>254.0</ele><time>2026-04-08T11:08:46.793Z</time></trkpt><trkpt lat="43.1651811" lon="12.2793239"><ele>254.0</ele><time>2026-04-08T11:08:47.777Z</time></trkpt><trkpt lat="43.1651694" lon="12.2791846"><ele>254.00000000000003</ele><time>2026-04-08T11:08:49.796Z</time></trkpt><trkpt lat="43.1650967" lon="12.2791113"><ele>254.0</ele><time>2026-04-08T11:08:51.8Z</time></trkpt><trkpt lat="43.165021" lon="12.2790914"><ele>254.0</ele><time>2026-04-08T11:08:52.804Z</time></trkpt><trkpt lat="43.164931" lon="12.2790848"><ele>253.99999999999997</ele><time>2026-04-08T11:08:53.781Z</time></trkpt><trkpt lat="43.1648244" lon="12.2790856"><ele>253.99999999999997</ele><time>2026-04-08T11:08:54.742Z</time></trkpt><trkpt lat="43.1647134" lon="12.2790867"><ele>254.0</ele><time>2026-04-08T11:08:55.784Z</time></trkpt><trkpt lat="43.1646044" lon="12.2791012"><ele>254.0</ele><time>2026-04-08T11:08:56.791Z</time></trkpt><trkpt lat="43.1645072" lon="12.2791204"><ele>254.0</ele><time>2026-04-08T11:08:57.804Z</time></trkpt><trkpt lat="43.1644259" lon="12.2791342"><ele>253.99999999999997</ele><time>2026-04-08T11:08:58.788Z</time></trkpt><trkpt lat="43.164355" lon="12.2791482"><ele>253.99999999999997</ele><time>2026-04-08T11:08:59.809Z</time></trkpt><trkpt lat="43.1642388" lon="12.2791597"><ele>254.0</ele><time>2026-04-08T11:09:01.792Z</time></trkpt><trkpt lat="43.1641624" lon="12.2790981"><ele>254.0</ele><time>2026-04-08T11:09:03.775Z</time></trkpt><trkpt lat="43.1641527" lon="12.2789103"><ele>254.2</ele><time>2026-04-08T11:09:05.803Z</time></trkpt><trkpt lat="43.1641547" lon="12.2787948"><ele>254.39999999999998</ele><time>2026-04-08T11:09:06.801Z</time></trkpt><trkpt lat="43.1641419" lon="12.2786626"><ele>254.6</ele><time>2026-04-08T11:09:07.792Z</time></trkpt><trkpt lat="43.1641231" lon="12.2785229"><ele>254.8</ele><time>2026-04-08T11:09:08.8Z</time></trkpt><trkpt lat="43.1640899" lon="12.278362"><ele>255.0</ele><time>2026-04-08T11:09:09.784Z</time></trkpt><trkpt lat="43.1640589" lon="12.2781988"><ele>255.5</ele><time>2026-04-08T11:09:10.797Z</time></trkpt><trkpt lat="43.1640281" lon="12.278031"><ele>256.0</ele><time>2026-04-08T11:09:11.767Z</time></trkpt><trkpt lat="43.164006" lon="12.2778564"><ele>256.5</ele><time>2026-04-08T11:09:12.828Z</time></trkpt><trkpt lat="43.1640048" lon="12.277657"><ele>257.0</ele><time>2026-04-08T11:09:13.801Z</time></trkpt><trkpt lat="43.164005" lon="12.2774602"><ele>257.0</ele><time>2026-04-08T11:09:14.809Z</time></trkpt><trkpt lat="43.1640058" lon="12.2772693"><ele>257.0</ele><time>2026-04-08T11:09:15.788Z</time></trkpt><trkpt lat="43.1640029" lon="12.2770776"><ele>257.0</ele><time>2026-04-08T11:09:16.793Z</time></trkpt><trkpt lat="43.1640049" lon="12.2768983"><ele>257.0</ele><time>2026-04-08T11:09:17.799Z</time></trkpt><trkpt lat="43.1640041" lon="12.276759"><ele>257.0</ele><time>2026-04-08T11:09:18.793Z</time></trkpt><trkpt lat="43.1640141" lon="12.2766211"><ele>257.0</ele><time>2026-04-08T11:09:19.755Z</time></trkpt><trkpt lat="43.1640313" lon="12.2764821"><ele>257.0</ele><time>2026-04-08T11:09:20.79Z</time></trkpt><trkpt lat="43.1640612" lon="12.2763419"><ele>257.0</ele><time>2026-04-08T11:09:21.813Z</time></trkpt><trkpt lat="43.1640977" lon="12.2762032"><ele>257.0</ele><time>2026-04-08T11:09:22.789Z</time></trkpt><trkpt lat="43.1641453" lon="12.2760752"><ele>257.6</ele><time>2026-04-08T11:09:23.808Z</time></trkpt><trkpt lat="43.164201" lon="12.2759522"><ele>258.2</ele><time>2026-04-08T11:09:24.8Z</time></trkpt><trkpt lat="43.1642523" lon="12.2758504"><ele>258.8</ele><time>2026-04-08T11:09:25.796Z</time></trkpt><trkpt lat="43.1642932" lon="12.2757531"><ele>259.4</ele><time>2026-04-08T11:09:26.799Z</time></trkpt><trkpt lat="43.1643328" lon="12.2756752"><ele>260.0</ele><time>2026-04-08T11:09:27.793Z</time></trkpt><trkpt lat="43.1644528" lon="12.2755833"><ele>260.0</ele><time>2026-04-08T11:09:29.803Z</time></trkpt><trkpt lat="43.1645539" lon="12.2755834"><ele>260.0</ele><time>2026-04-08T11:09:30.79Z</time></trkpt><trkpt lat="43.1646678" lon="12.275591"><ele>260.0</ele><time>2026-04-08T11:09:31.79Z</time></trkpt><trkpt lat="43.1647968" lon="12.2755797"><ele>260.0</ele><time>2026-04-08T11:09:32.804Z</time></trkpt><trkpt lat="43.1649182" lon="12.2755561"><ele>260.6</ele><time>2026-04-08T11:09:33.8Z</time></trkpt><trkpt lat="43.1650213" lon="12.2755575"><ele>261.2</ele><time>2026-04-08T11:09:34.791Z</time></trkpt><trkpt lat="43.1651177" lon="12.2755511"><ele>261.8</ele><time>2026-04-08T11:09:35.804Z</time></trkpt><trkpt lat="43.1652151" lon="12.2755474"><ele>262.4</ele><time>2026-04-08T11:09:36.789Z</time></trkpt><trkpt lat="43.1653006" lon="12.2755442"><ele>263.0</ele><time>2026-04-08T11:09:37.799Z</time></trkpt><trkpt lat="43.1653673" lon="12.2755201"><ele>263.0</ele><time>2026-04-08T11:09:38.79Z</time></trkpt><trkpt lat="43.1654219" lon="12.2754658"><ele>263.0</ele><time>2026-04-08T11:09:39.79Z</time></trkpt><trkpt lat="43.1654667" lon="12.2753778"><ele>263.0</ele><time>2026-04-08T11:09:40.803Z</time></trkpt><trkpt lat="43.1655023" lon="12.2752914"><ele>263.0</ele><time>2026-04-08T11:09:41.776Z</time></trkpt><trkpt lat="43.165532" lon="12.2751819"><ele>263.0</ele><time>2026-04-08T11:09:42.784Z</time></trkpt><trkpt lat="43.1655606" lon="12.2750547"><ele>263.0</ele><time>2026-04-08T11:09:43.806Z</time></trkpt><trkpt lat="43.1655893" lon="12.2749326"><ele>263.0</ele><time>2026-04-08T11:09:44.8Z</time></trkpt><trkpt lat="43.1656146" lon="12.2748155"><ele>263.0</ele><time>2026-04-08T11:09:45.799Z</time></trkpt><trkpt lat="43.165638" lon="12.2746894"><ele>263.0</ele><time>2026-04-08T11:09:46.794Z</time></trkpt><trkpt lat="43.1656671" lon="12.2745644"><ele>263.0</ele><time>2026-04-08T11:09:47.823Z</time></trkpt><trkpt lat="43.1656963" lon="12.2744368"><ele>263.0</ele><time>2026-04-08T11:09:48.794Z</time></trkpt><trkpt lat="43.1657235" lon="12.2743103"><ele>267.2</ele><time>2026-04-08T11:09:49.742Z</time></trkpt><trkpt lat="43.165752" lon="12.2741697"><ele>271.4</ele><time>2026-04-08T11:09:50.795Z</time></trkpt><trkpt lat="43.1657792" lon="12.2740253"><ele>275.59999999999997</ele><time>2026-04-08T11:09:51.767Z</time></trkpt><trkpt lat="43.1657977" lon="12.2738728"><ele>279.8</ele><time>2026-04-08T11:09:52.792Z</time></trkpt><trkpt lat="43.1658145" lon="12.2737105"><ele>284.0</ele><time>2026-04-08T11:09:53.792Z</time></trkpt><trkpt lat="43.1658289" lon="12.2735465"><ele>284.2</ele><time>2026-04-08T11:09:54.822Z</time></trkpt><trkpt lat="43.165846" lon="12.2733851"><ele>284.4</ele><time>2026-04-08T11:09:55.79Z</time></trkpt><trkpt lat="43.1658589" lon="12.2732322"><ele>284.6</ele><time>2026-04-08T11:09:56.799Z</time></trkpt><trkpt lat="43.1658764" lon="12.2730933"><ele>284.8</ele><time>2026-04-08T11:09:57.789Z</time></trkpt><trkpt lat="43.1659011" lon="12.2729781"><ele>285.0</ele><time>2026-04-08T11:09:58.813Z</time></trkpt><trkpt lat="43.1659388" lon="12.2728743"><ele>284.0</ele><time>2026-04-08T11:09:59.806Z</time></trkpt><trkpt lat="43.16598" lon="12.2728009"><ele>283.0</ele><time>2026-04-08T11:10:00.79Z</time></trkpt><trkpt lat="43.1660839" lon="12.2727128"><ele>282.0</ele><time>2026-04-08T11:10:02.796Z</time></trkpt><trkpt lat="43.166163" lon="12.2726955"><ele>281.0</ele><time>2026-04-08T11:10:03.772Z</time></trkpt><trkpt lat="43.1662562" lon="12.2726728"><ele>280.0</ele><time>2026-04-08T11:10:04.78Z</time></trkpt><trkpt lat="43.1663503" lon="12.2726524"><ele>280.0</ele><time>2026-04-08T11:10:05.795Z</time></trkpt><trkpt lat="43.1664332" lon="12.272628"><ele>280.0</ele><time>2026-04-08T11:10:06.78Z</time></trkpt><trkpt lat="43.1665201" lon="12.2725799"><ele>280.0</ele><time>2026-04-08T11:10:07.793Z</time></trkpt><trkpt lat="43.1666049" lon="12.2725111"><ele>280.0</ele><time>2026-04-08T11:10:08.774Z</time></trkpt><trkpt lat="43.1666849" lon="12.2724276"><ele>280.0</ele><time>2026-04-08T11:10:09.791Z</time></trkpt><trkpt lat="43.1667558" lon="12.2723355"><ele>281.3333333333333</ele><time>2026-04-08T11:10:10.786Z</time></trkpt><trkpt lat="43.1668168" lon="12.272261"><ele>282.66666666666663</ele><time>2026-04-08T11:10:11.771Z</time></trkpt><trkpt lat="43.166862" lon="12.2721951"><ele>284.0</ele><time>2026-04-08T11:10:12.787Z</time></trkpt><trkpt lat="43.1669547" lon="12.2721003"><ele>285.3333333333333</ele><time>2026-04-08T11:10:14.79Z</time></trkpt><trkpt lat="43.1670543" lon="12.2720461"><ele>286.6666666666667</ele><time>2026-04-08T11:10:16.801Z</time></trkpt><trkpt lat="43.1671151" lon="12.2719939"><ele>288.0</ele><time>2026-04-08T11:10:18.804Z</time></trkpt><trkpt lat="43.1671146" lon="12.2719012"><ele>288.0</ele><time>2026-04-08T11:10:20.788Z</time></trkpt><trkpt lat="43.167054" lon="12.2717965"><ele>288.0</ele><time>2026-04-08T11:10:22.782Z</time></trkpt><trkpt lat="43.1670024" lon="12.2716777"><ele>288.0</ele><time>2026-04-08T11:10:24.769Z</time></trkpt><trkpt lat="43.166942" lon="12.2715614"><ele>288.0</ele><time>2026-04-08T11:10:26.8Z</time></trkpt><trkpt lat="43.1668821" lon="12.2714654"><ele>288.0</ele><time>2026-04-08T11:10:28.781Z</time></trkpt><trkpt lat="43.1668354" lon="12.2713994"><ele>287.1666666666667</ele><time>2026-04-08T11:10:30.784Z</time></trkpt><trkpt lat="43.1667468" lon="12.2713183"><ele>286.3333333333333</ele><time>2026-04-08T11:10:32.798Z</time></trkpt><trkpt lat="43.1666511" lon="12.2712396"><ele>285.5</ele><time>2026-04-08T11:10:34.801Z</time></trkpt><trkpt lat="43.1665862" lon="12.2711954"><ele>284.66666666666663</ele><time>2026-04-08T11:10:35.788Z</time></trkpt><trkpt lat="43.1665166" lon="12.2711569"><ele>283.8333333333333</ele><time>2026-04-08T11:10:36.795Z</time></trkpt><trkpt lat="43.1664511" lon="12.2711191"><ele>283.0</ele><time>2026-04-08T11:10:37.783Z</time></trkpt><trkpt lat="43.1663467" lon="12.2710584"><ele>282.2</ele><time>2026-04-08T11:10:39.791Z</time></trkpt><trkpt lat="43.1662415" lon="12.2710263"><ele>281.4</ele><time>2026-04-08T11:10:41.798Z</time></trkpt><trkpt lat="43.1661248" lon="12.2710829"><ele>280.59999999999997</ele><time>2026-04-08T11:10:43.791Z</time></trkpt><trkpt lat="43.1660484" lon="12.2711423"><ele>279.8</ele><time>2026-04-08T11:10:44.781Z</time></trkpt><trkpt lat="43.1659778" lon="12.2711844"><ele>279.0</ele><time>2026-04-08T11:10:45.793Z</time></trkpt><trkpt lat="43.1659149" lon="12.2712253"><ele>279.0</ele><time>2026-04-08T11:10:46.793Z</time></trkpt><trkpt lat="43.1658475" lon="12.2712648"><ele>279.0</ele><time>2026-04-08T11:10:47.792Z</time></trkpt><trkpt lat="43.1657885" lon="12.2713019"><ele>279.0</ele><time>2026-04-08T11:10:48.81Z</time></trkpt><trkpt lat="43.1656945" lon="12.2712987"><ele>279.0</ele><time>2026-04-08T11:10:50.793Z</time></trkpt><trkpt lat="43.1656244" lon="12.2712333"><ele>279.0</ele><time>2026-04-08T11:10:52.801Z</time></trkpt><trkpt lat="43.1656298" lon="12.2711165"><ele>279.0</ele><time>2026-04-08T11:10:54.789Z</time></trkpt><trkpt lat="43.1656741" lon="12.2709645"><ele>279.0</ele><time>2026-04-08T11:10:56.778Z</time></trkpt><trkpt lat="43.1657256" lon="12.2708997"><ele>279.0</ele><time>2026-04-08T11:10:57.782Z</time></trkpt><trkpt lat="43.1657872" lon="12.2708256"><ele>279.0</ele><time>2026-04-08T11:10:58.78Z</time></trkpt><trkpt lat="43.1658444" lon="12.270741"><ele>279.0</ele><time>2026-04-08T11:10:59.786Z</time></trkpt><trkpt lat="43.1659006" lon="12.270662"><ele>279.0</ele><time>2026-04-08T11:11:00.78Z</time></trkpt><trkpt lat="43.1659424" lon="12.2705836"><ele>279.0</ele><time>2026-04-08T11:11:01.776Z</time></trkpt><trkpt lat="43.165981" lon="12.2704986"><ele>281.8</ele><time>2026-04-08T11:11:02.789Z</time></trkpt><trkpt lat="43.1660196" lon="12.2704226"><ele>284.59999999999997</ele><time>2026-04-08T11:11:03.774Z</time></trkpt><trkpt lat="43.1660726" lon="12.2702829"><ele>287.4</ele><time>2026-04-08T11:11:05.784Z</time></trkpt><trkpt lat="43.1661021" lon="12.2701349"><ele>290.2</ele><time>2026-04-08T11:11:07.733Z</time></trkpt><trkpt lat="43.1660868" lon="12.2699712"><ele>293.0</ele><time>2026-04-08T11:11:09.786Z</time></trkpt><trkpt lat="43.1660549" lon="12.2698879"><ele>294.2</ele><time>2026-04-08T11:11:10.781Z</time></trkpt><trkpt lat="43.1660163" lon="12.2697417"><ele>295.4</ele><time>2026-04-08T11:11:12.792Z</time></trkpt><trkpt lat="43.1660225" lon="12.269562"><ele>296.59999999999997</ele><time>2026-04-08T11:11:14.772Z</time></trkpt><trkpt lat="43.1660556" lon="12.2694609"><ele>297.8</ele><time>2026-04-08T11:11:15.806Z</time></trkpt><trkpt lat="43.1660846" lon="12.2693758"><ele>299.0</ele><time>2026-04-08T11:11:16.792Z</time></trkpt><trkpt lat="43.166111" lon="12.2692912"><ele>299.0</ele><time>2026-04-08T11:11:17.806Z</time></trkpt><trkpt lat="43.1661534" lon="12.2691373"><ele>299.0</ele><time>2026-04-08T11:11:19.771Z</time></trkpt><trkpt lat="43.1661548" lon="12.268993"><ele>299.0</ele><time>2026-04-08T11:11:21.791Z</time></trkpt><trkpt lat="43.1661976" lon="12.2688747"><ele>299.0</ele><time>2026-04-08T11:11:23.811Z</time></trkpt><trkpt lat="43.166258" lon="12.268734"><ele>299.0</ele><time>2026-04-08T11:11:25.794Z</time></trkpt><trkpt lat="43.1662956" lon="12.2686625"><ele>299.6666666666667</ele><time>2026-04-08T11:11:26.782Z</time></trkpt><trkpt lat="43.1663334" lon="12.2685818"><ele>300.33333333333337</ele><time>2026-04-08T11:11:27.802Z</time></trkpt><trkpt lat="43.1663797" lon="12.2684228"><ele>301.0</ele><time>2026-04-08T11:11:29.792Z</time></trkpt><trkpt lat="43.1664076" lon="12.268267"><ele>301.6666666666667</ele><time>2026-04-08T11:11:31.786Z</time></trkpt><trkpt lat="43.1664211" lon="12.2681799"><ele>302.3333333333333</ele><time>2026-04-08T11:11:32.779Z</time></trkpt><trkpt lat="43.166441" lon="12.2680909"><ele>303.0</ele><time>2026-04-08T11:11:33.781Z</time></trkpt><trkpt lat="43.166466" lon="12.2679987"><ele>304.1666666666667</ele><time>2026-04-08T11:11:34.78Z</time></trkpt><trkpt lat="43.1664904" lon="12.2679043"><ele>305.3333333333333</ele><time>2026-04-08T11:11:35.788Z</time></trkpt><trkpt lat="43.1665183" lon="12.2678007"><ele>306.5</ele><time>2026-04-08T11:11:36.806Z</time></trkpt><trkpt lat="43.1665479" lon="12.2676987"><ele>307.66666666666663</ele><time>2026-04-08T11:11:37.782Z</time></trkpt><trkpt lat="43.1665717" lon="12.2675955"><ele>308.8333333333333</ele><time>2026-04-08T11:11:38.791Z</time></trkpt><trkpt lat="43.1665939" lon="12.2674904"><ele>310.0</ele><time>2026-04-08T11:11:39.787Z</time></trkpt><trkpt lat="43.1666173" lon="12.2673843"><ele>312.66666666666663</ele><time>2026-04-08T11:11:40.799Z</time></trkpt><trkpt lat="43.166641" lon="12.2672883"><ele>315.3333333333333</ele><time>2026-04-08T11:11:41.777Z</time></trkpt><trkpt lat="43.1666492" lon="12.2671958"><ele>318.0</ele><time>2026-04-08T11:11:42.775Z</time></trkpt><trkpt lat="43.1666285" lon="12.2670238"><ele>320.6666666666667</ele><time>2026-04-08T11:11:44.784Z</time></trkpt><trkpt lat="43.1666257" lon="12.2669372"><ele>323.33333333333337</ele><time>2026-04-08T11:11:45.792Z</time></trkpt><trkpt lat="43.1666535" lon="12.2667912"><ele>326.0</ele><time>2026-04-08T11:11:47.797Z</time></trkpt><trkpt lat="43.1667146" lon="12.2667117"><ele>326.0</ele><time>2026-04-08T11:11:49.791Z</time></trkpt><trkpt lat="43.1667956" lon="12.2666514"><ele>326.0</ele><time>2026-04-08T11:11:51.796Z</time></trkpt><trkpt lat="43.1668834" lon="12.2665405"><ele>326.0</ele><time>2026-04-08T11:11:53.807Z</time></trkpt><trkpt lat="43.1669165" lon="12.2664595"><ele>326.0</ele><time>2026-04-08T11:11:54.789Z</time></trkpt><trkpt lat="43.1669421" lon="12.2663788"><ele>326.0</ele><time>2026-04-08T11:11:55.786Z</time></trkpt><trkpt lat="43.1669808" lon="12.266298"><ele>326.0</ele><time>2026-04-08T11:11:56.798Z</time></trkpt><trkpt lat="43.1670312" lon="12.2662155"><ele>326.33333333333337</ele><time>2026-04-08T11:11:57.784Z</time></trkpt><trkpt lat="43.1670822" lon="12.2661502"><ele>326.6666666666667</ele><time>2026-04-08T11:11:58.79Z</time></trkpt><trkpt lat="43.1671394" lon="12.2660825"><ele>327.0</ele><time>2026-04-08T11:11:59.77Z</time></trkpt><trkpt lat="43.167205" lon="12.2660233"><ele>327.3333333333333</ele><time>2026-04-08T11:12:00.788Z</time></trkpt><trkpt lat="43.1673157" lon="12.2659485"><ele>327.66666666666663</ele><time>2026-04-08T11:12:02.786Z</time></trkpt><trkpt lat="43.1673549" lon="12.2658277"><ele>328.0</ele><time>2026-04-08T11:12:04.791Z</time></trkpt><trkpt lat="43.1673663" lon="12.2657199"><ele>333.0</ele><time>2026-04-08T11:12:07.804Z</time></trkpt><trkpt lat="43.167433" lon="12.2657843"><ele>338.0</ele><time>2026-04-08T11:12:09.796Z</time></trkpt><trkpt lat="43.1674865" lon="12.2658334"><ele>343.0</ele><time>2026-04-08T11:12:10.78Z</time></trkpt><trkpt lat="43.1675904" lon="12.2659156"><ele>348.0</ele><time>2026-04-08T11:12:12.784Z</time></trkpt><trkpt lat="43.1676976" lon="12.265984"><ele>353.0</ele><time>2026-04-08T11:12:14.776Z</time></trkpt><trkpt lat="43.1678059" lon="12.2660649"><ele>353.0</ele><time>2026-04-08T11:12:16.799Z</time></trkpt><trkpt lat="43.167867" lon="12.2661038"><ele>353.0</ele><time>2026-04-08T11:12:17.786Z</time></trkpt><trkpt lat="43.1679748" lon="12.2661836"><ele>353.0</ele><time>2026-04-08T11:12:19.779Z</time></trkpt><trkpt lat="43.1680288" lon="12.2662328"><ele>353.0</ele><time>2026-04-08T11:12:20.783Z</time></trkpt><trkpt lat="43.168083" lon="12.2662831"><ele>353.0</ele><time>2026-04-08T11:12:21.799Z</time></trkpt><trkpt lat="43.1681648" lon="12.2662846"><ele>353.0</ele><time>2026-04-08T11:12:23.746Z</time></trkpt><trkpt lat="43.1682163" lon="12.266233"><ele>357.4</ele><time>2026-04-08T11:12:24.798Z</time></trkpt><trkpt lat="43.1682701" lon="12.2661602"><ele>361.79999999999995</ele><time>2026-04-08T11:12:25.799Z</time></trkpt><trkpt lat="43.1683208" lon="12.2660698"><ele>366.2</ele><time>2026-04-08T11:12:26.813Z</time></trkpt><trkpt lat="43.1683519" lon="12.2659515"><ele>370.6</ele><time>2026-04-08T11:12:27.783Z</time></trkpt><trkpt lat="43.168376" lon="12.2658054"><ele>375.0</ele><time>2026-04-08T11:12:28.798Z</time></trkpt><trkpt lat="43.1683983" lon="12.2656557"><ele>376.0</ele><time>2026-04-08T11:12:29.8Z</time></trkpt><trkpt lat="43.1684239" lon="12.2655318"><ele>377.0</ele><time>2026-04-08T11:12:30.805Z</time></trkpt><trkpt lat="43.1684645" lon="12.2654233"><ele>378.0</ele><time>2026-04-08T11:12:31.8Z</time></trkpt><trkpt lat="43.1685042" lon="12.2653288"><ele>379.0</ele><time>2026-04-08T11:12:32.786Z</time></trkpt><trkpt lat="43.1685369" lon="12.2652429"><ele>380.0</ele><time>2026-04-08T11:12:33.798Z</time></trkpt><trkpt lat="43.1685561" lon="12.2651584"><ele>381.0</ele><time>2026-04-08T11:12:34.777Z</time></trkpt><trkpt lat="43.1685428" lon="12.2649892"><ele>381.0</ele><time>2026-04-08T11:12:36.799Z</time></trkpt><trkpt lat="43.1685316" lon="12.264885"><ele>381.0</ele><time>2026-04-08T11:12:37.797Z</time></trkpt><trkpt lat="43.1685267" lon="12.2647853"><ele>381.0</ele><time>2026-04-08T11:12:38.794Z</time></trkpt><trkpt lat="43.1685332" lon="12.2646846"><ele>381.0</ele><time>2026-04-08T11:12:39.785Z</time></trkpt><trkpt lat="43.1685516" lon="12.2645853"><ele>381.0</ele><time>2026-04-08T11:12:40.796Z</time></trkpt><trkpt lat="43.1685824" lon="12.264497"><ele>381.0</ele><time>2026-04-08T11:12:41.801Z</time></trkpt><trkpt lat="43.1686117" lon="12.2644137"><ele>381.0</ele><time>2026-04-08T11:12:42.799Z</time></trkpt><trkpt lat="43.168634" lon="12.2643249"><ele>383.20000000000005</ele><time>2026-04-08T11:12:43.793Z</time></trkpt><trkpt lat="43.1686008" lon="12.2641598"><ele>385.40000000000003</ele><time>2026-04-08T11:12:45.794Z</time></trkpt><trkpt lat="43.1685836" lon="12.2640691"><ele>387.6</ele><time>2026-04-08T11:12:46.783Z</time></trkpt><trkpt lat="43.168578" lon="12.2639797"><ele>389.8</ele><time>2026-04-08T11:12:47.812Z</time></trkpt><trkpt lat="43.1685382" lon="12.2638298"><ele>392.0</ele><time>2026-04-08T11:12:49.807Z</time></trkpt><trkpt lat="43.1684734" lon="12.2636998"><ele>394.16666666666663</ele><time>2026-04-08T11:12:51.799Z</time></trkpt><trkpt lat="43.1684052" lon="12.2635795"><ele>396.3333333333333</ele><time>2026-04-08T11:12:53.816Z</time></trkpt><trkpt lat="43.1683427" lon="12.2634313"><ele>398.5</ele><time>2026-04-08T11:12:55.788Z</time></trkpt><trkpt lat="43.1683178" lon="12.2633424"><ele>400.66666666666663</ele><time>2026-04-08T11:12:56.784Z</time></trkpt><trkpt lat="43.1683047" lon="12.2632529"><ele>402.8333333333333</ele><time>2026-04-08T11:12:57.816Z</time></trkpt><trkpt lat="43.1683015" lon="12.26316"><ele>405.0</ele><time>2026-04-08T11:12:58.796Z</time></trkpt><trkpt lat="43.1683174" lon="12.2630481"><ele>407.6666666666667</ele><time>2026-04-08T11:12:59.796Z</time></trkpt><trkpt lat="43.1683468" lon="12.262931"><ele>410.33333333333337</ele><time>2026-04-08T11:13:00.786Z</time></trkpt><trkpt lat="43.1683641" lon="12.2628072"><ele>413.0</ele><time>2026-04-08T11:13:01.814Z</time></trkpt><trkpt lat="43.1683712" lon="12.2626875"><ele>415.6666666666667</ele><time>2026-04-08T11:13:02.783Z</time></trkpt><trkpt lat="43.1683581" lon="12.2625747"><ele>418.33333333333337</ele><time>2026-04-08T11:13:03.779Z</time></trkpt><trkpt lat="43.1683423" lon="12.2624642"><ele>421.0</ele><time>2026-04-08T11:13:04.802Z</time></trkpt><trkpt lat="43.1683232" lon="12.2623606"><ele>423.6666666666667</ele><time>2026-04-08T11:13:05.798Z</time></trkpt><trkpt lat="43.1683101" lon="12.2622535"><ele>426.33333333333337</ele><time>2026-04-08T11:13:06.794Z</time></trkpt><trkpt lat="43.1683026" lon="12.2621509"><ele>429.0</ele><time>2026-04-08T11:13:07.781Z</time></trkpt><trkpt lat="43.1683026" lon="12.2620496"><ele>431.66666666666663</ele><time>2026-04-08T11:13:08.769Z</time></trkpt><trkpt lat="43.1683105" lon="12.2619477"><ele>434.3333333333333</ele><time>2026-04-08T11:13:09.778Z</time></trkpt><trkpt lat="43.1683159" lon="12.2618538"><ele>437.0</ele><time>2026-04-08T11:13:10.782Z</time></trkpt><trkpt lat="43.1683169" lon="12.261699"><ele>436.99999999999994</ele><time>2026-04-08T11:13:12.8Z</time></trkpt><trkpt lat="43.1682931" lon="12.2615975"><ele>437.0</ele><time>2026-04-08T11:13:14.8Z</time></trkpt><trkpt lat="43.1682608" lon="12.2614737"><ele>437.0</ele><time>2026-04-08T11:13:16.795Z</time></trkpt><trkpt lat="43.1682136" lon="12.2613612"><ele>437.0</ele><time>2026-04-08T11:13:18.808Z</time></trkpt><trkpt lat="43.1681482" lon="12.2612961"><ele>436.99999999999994</ele><time>2026-04-08T11:13:20.801Z</time></trkpt><trkpt lat="43.1680628" lon="12.2613004"><ele>437.0</ele><time>2026-04-08T11:13:22.784Z</time></trkpt><trkpt lat="43.16799" lon="12.2612925"><ele>436.8333333333333</ele><time>2026-04-08T11:13:24.782Z</time></trkpt><trkpt lat="43.1679283" lon="12.2612729"><ele>436.66666666666663</ele><time>2026-04-08T11:13:27.784Z</time></trkpt><trkpt lat="43.1679073" lon="12.261176"><ele>436.5</ele><time>2026-04-08T11:15:46.797Z</time></trkpt><trkpt lat="43.1679404" lon="12.261068"><ele>436.33333333333337</ele><time>2026-04-08T11:15:49.798Z</time></trkpt><trkpt lat="43.1678904" lon="12.2609831"><ele>436.1666666666667</ele><time>2026-04-08T11:15:52.787Z</time></trkpt><trkpt lat="43.1677991" lon="12.2609187"><ele>436.0</ele><time>2026-04-08T11:15:54.782Z</time></trkpt><trkpt lat="43.1677235" lon="12.2608771"><ele>436.0</ele><time>2026-04-08T11:15:56.784Z</time></trkpt><trkpt lat="43.1676464" lon="12.2608383"><ele>436.0</ele><time>2026-04-08T11:15:58.779Z</time></trkpt><trkpt lat="43.1675628" lon="12.2607759"><ele>436.0</ele><time>2026-04-08T11:16:00.806Z</time></trkpt><trkpt lat="43.1674711" lon="12.2606894"><ele>436.0</ele><time>2026-04-08T11:16:02.783Z</time></trkpt><trkpt lat="43.167414" lon="12.2606497"><ele>436.0</ele><time>2026-04-08T11:16:03.804Z</time></trkpt><trkpt lat="43.1672991" lon="12.2605767"><ele>432.83333333333337</ele><time>2026-04-08T11:16:05.788Z</time></trkpt><trkpt lat="43.1672379" lon="12.2605507"><ele>429.6666666666667</ele><time>2026-04-08T11:16:06.773Z</time></trkpt><trkpt lat="43.1671227" lon="12.2605264"><ele>426.5</ele><time>2026-04-08T11:16:08.779Z</time></trkpt><trkpt lat="43.1670298" lon="12.2605154"><ele>423.33333333333337</ele><time>2026-04-08T11:16:10.783Z</time></trkpt><trkpt lat="43.1670329" lon="12.2604129"><ele>420.1666666666667</ele><time>2026-04-08T11:16:13.784Z</time></trkpt><trkpt lat="43.1671022" lon="12.2604011"><ele>417.0</ele><time>2026-04-08T11:16:15.782Z</time></trkpt><trkpt lat="43.1672034" lon="12.2603754"><ele>417.0</ele><time>2026-04-08T11:16:17.799Z</time></trkpt><trkpt lat="43.1672682" lon="12.2603484"><ele>417.0</ele><time>2026-04-08T11:16:18.772Z</time></trkpt><trkpt lat="43.1673431" lon="12.2603151"><ele>417.0</ele><time>2026-04-08T11:16:19.79Z</time></trkpt><trkpt lat="43.1674196" lon="12.2602938"><ele>417.0</ele><time>2026-04-08T11:16:20.791Z</time></trkpt><trkpt lat="43.1674915" lon="12.2602527"><ele>417.0</ele><time>2026-04-08T11:16:21.785Z</time></trkpt><trkpt lat="43.1675681" lon="12.2602037"><ele>417.0</ele><time>2026-04-08T11:16:22.783Z</time></trkpt><trkpt lat="43.1676375" lon="12.260155"><ele>419.6666666666667</ele><time>2026-04-08T11:16:23.801Z</time></trkpt><trkpt lat="43.1677001" lon="12.2601117"><ele>422.33333333333337</ele><time>2026-04-08T11:16:24.794Z</time></trkpt><trkpt lat="43.1677922" lon="12.2600014"><ele>425.0</ele><time>2026-04-08T11:16:26.788Z</time></trkpt><trkpt lat="43.1678428" lon="12.2599383"><ele>427.6666666666667</ele><time>2026-04-08T11:16:27.777Z</time></trkpt><trkpt lat="43.1678944" lon="12.2598715"><ele>430.33333333333337</ele><time>2026-04-08T11:16:28.773Z</time></trkpt><trkpt lat="43.1679614" lon="12.2598087"><ele>433.0</ele><time>2026-04-08T11:16:29.739Z</time></trkpt><trkpt lat="43.1680341" lon="12.2597465"><ele>433.1666666666667</ele><time>2026-04-08T11:16:30.783Z</time></trkpt><trkpt lat="43.168113" lon="12.2596805"><ele>433.33333333333337</ele><time>2026-04-08T11:16:31.768Z</time></trkpt><trkpt lat="43.1681946" lon="12.2595997"><ele>433.5</ele><time>2026-04-08T11:16:32.799Z</time></trkpt><trkpt lat="43.1682641" lon="12.2595202"><ele>433.66666666666663</ele><time>2026-04-08T11:16:33.797Z</time></trkpt><trkpt lat="43.1683237" lon="12.2594437"><ele>433.8333333333333</ele><time>2026-04-08T11:16:34.778Z</time></trkpt><trkpt lat="43.1683768" lon="12.2593821"><ele>434.0</ele><time>2026-04-08T11:16:35.784Z</time></trkpt><trkpt lat="43.1684687" lon="12.2592889"><ele>434.49999999999994</ele><time>2026-04-08T11:16:37.787Z</time></trkpt><trkpt lat="43.1685128" lon="12.2592234"><ele>435.0</ele><time>2026-04-08T11:16:38.781Z</time></trkpt><trkpt lat="43.1685544" lon="12.2591353"><ele>435.5</ele><time>2026-04-08T11:16:39.765Z</time></trkpt><trkpt lat="43.1686007" lon="12.2590498"><ele>436.0</ele><time>2026-04-08T11:16:40.785Z</time></trkpt><trkpt lat="43.1686488" lon="12.258967"><ele>436.49999999999994</ele><time>2026-04-08T11:16:41.758Z</time></trkpt><trkpt lat="43.1686868" lon="12.2588579"><ele>437.0</ele><time>2026-04-08T11:16:42.74Z</time></trkpt><trkpt lat="43.1687065" lon="12.2587382"><ele>437.0</ele><time>2026-04-08T11:16:43.724Z</time></trkpt><trkpt lat="43.1687161" lon="12.258618"><ele>437.00000000000006</ele><time>2026-04-08T11:16:44.755Z</time></trkpt><trkpt lat="43.1687213" lon="12.2584951"><ele>437.00000000000006</ele><time>2026-04-08T11:16:45.787Z</time></trkpt><trkpt lat="43.1687388" lon="12.258372"><ele>437.0</ele><time>2026-04-08T11:16:46.788Z</time></trkpt><trkpt lat="43.1687732" lon="12.2582533"><ele>437.0</ele><time>2026-04-08T11:16:47.761Z</time></trkpt><trkpt lat="43.1688186" lon="12.2581415"><ele>436.40000000000003</ele><time>2026-04-08T11:16:48.78Z</time></trkpt><trkpt lat="43.168876" lon="12.2580409"><ele>435.80000000000007</ele><time>2026-04-08T11:16:49.78Z</time></trkpt><trkpt lat="43.1689432" lon="12.2579486"><ele>435.2</ele><time>2026-04-08T11:16:50.774Z</time></trkpt><trkpt lat="43.1690268" lon="12.2578711"><ele>434.6</ele><time>2026-04-08T11:16:51.769Z</time></trkpt><trkpt lat="43.1691167" lon="12.2577894"><ele>434.0</ele><time>2026-04-08T11:16:52.804Z</time></trkpt><trkpt lat="43.1692004" lon="12.257688"><ele>435.0</ele><time>2026-04-08T11:16:53.808Z</time></trkpt><trkpt lat="43.1692807" lon="12.2575799"><ele>436.0</ele><time>2026-04-08T11:16:54.764Z</time></trkpt><trkpt lat="43.1693597" lon="12.2574743"><ele>437.0</ele><time>2026-04-08T11:16:55.748Z</time></trkpt><trkpt lat="43.16944" lon="12.2573759"><ele>438.0</ele><time>2026-04-08T11:16:56.785Z</time></trkpt><trkpt lat="43.1695202" lon="12.257281"><ele>439.0</ele><time>2026-04-08T11:16:57.784Z</time></trkpt><trkpt lat="43.1696015" lon="12.257185"><ele>439.0</ele><time>2026-04-08T11:16:58.813Z</time></trkpt><trkpt lat="43.1696871" lon="12.2570965"><ele>439.0</ele><time>2026-04-08T11:16:59.778Z</time></trkpt><trkpt lat="43.1697659" lon="12.2570029"><ele>439.0</ele><time>2026-04-08T11:17:00.746Z</time></trkpt><trkpt lat="43.1698392" lon="12.2569084"><ele>439.0</ele><time>2026-04-08T11:17:01.763Z</time></trkpt><trkpt lat="43.1698961" lon="12.2568033"><ele>439.0</ele><time>2026-04-08T11:17:02.783Z</time></trkpt><trkpt lat="43.1699529" lon="12.2567055"><ele>439.1666666666667</ele><time>2026-04-08T11:17:03.783Z</time></trkpt><trkpt lat="43.1700113" lon="12.2566108"><ele>439.33333333333337</ele><time>2026-04-08T11:17:04.784Z</time></trkpt><trkpt lat="43.1700602" lon="12.2565321"><ele>439.5</ele><time>2026-04-08T11:17:05.784Z</time></trkpt><trkpt lat="43.1700921" lon="12.2564442"><ele>439.66666666666663</ele><time>2026-04-08T11:17:06.763Z</time></trkpt><trkpt lat="43.1701158" lon="12.2563555"><ele>439.8333333333333</ele><time>2026-04-08T11:17:07.792Z</time></trkpt><trkpt lat="43.1701384" lon="12.2562561"><ele>440.0</ele><time>2026-04-08T11:17:08.795Z</time></trkpt><trkpt lat="43.1701665" lon="12.2561617"><ele>439.99999999999994</ele><time>2026-04-08T11:17:09.798Z</time></trkpt><trkpt lat="43.170209" lon="12.2560539"><ele>440.0</ele><time>2026-04-08T11:17:10.816Z</time></trkpt><trkpt lat="43.1702435" lon="12.2559484"><ele>440.0</ele><time>2026-04-08T11:17:11.779Z</time></trkpt><trkpt lat="43.1702723" lon="12.2558405"><ele>440.0</ele><time>2026-04-08T11:17:12.745Z</time></trkpt><trkpt lat="43.1702993" lon="12.2557243"><ele>439.99999999999994</ele><time>2026-04-08T11:17:13.727Z</time></trkpt><trkpt lat="43.1703328" lon="12.2556055"><ele>440.0</ele><time>2026-04-08T11:17:14.776Z</time></trkpt><trkpt lat="43.1703578" lon="12.2554996"><ele>438.8333333333333</ele><time>2026-04-08T11:17:15.762Z</time></trkpt><trkpt lat="43.1704069" lon="12.2554069"><ele>437.66666666666663</ele><time>2026-04-08T11:17:16.771Z</time></trkpt><trkpt lat="43.1704614" lon="12.2553064"><ele>436.5</ele><time>2026-04-08T11:17:17.788Z</time></trkpt><trkpt lat="43.1705208" lon="12.2552049"><ele>435.33333333333337</ele><time>2026-04-08T11:17:18.745Z</time></trkpt><trkpt lat="43.1705603" lon="12.2550989"><ele>434.1666666666667</ele><time>2026-04-08T11:17:19.732Z</time></trkpt><trkpt lat="43.170588" lon="12.2549925"><ele>433.0</ele><time>2026-04-08T11:17:20.734Z</time></trkpt><trkpt lat="43.1706123" lon="12.2549043"><ele>433.0</ele><time>2026-04-08T11:17:21.775Z</time></trkpt><trkpt lat="43.1706903" lon="12.2547882"><ele>432.99999999999994</ele><time>2026-04-08T11:17:23.776Z</time></trkpt><trkpt lat="43.17079" lon="12.254748"><ele>432.99999999999994</ele><time>2026-04-08T11:17:25.794Z</time></trkpt><trkpt lat="43.1708782" lon="12.2547358"><ele>433.0</ele><time>2026-04-08T11:17:27.763Z</time></trkpt><trkpt lat="43.1709829" lon="12.2547515"><ele>433.0</ele><time>2026-04-08T11:17:29.763Z</time></trkpt><trkpt lat="43.1710833" lon="12.254783"><ele>437.2</ele><time>2026-04-08T11:17:31.775Z</time></trkpt><trkpt lat="43.1712207" lon="12.2548039"><ele>441.4</ele><time>2026-04-08T11:17:33.783Z</time></trkpt><trkpt lat="43.171304" lon="12.2548143"><ele>445.59999999999997</ele><time>2026-04-08T11:17:34.752Z</time></trkpt><trkpt lat="43.171395" lon="12.2548258"><ele>449.79999999999995</ele><time>2026-04-08T11:17:35.764Z</time></trkpt><trkpt lat="43.1714889" lon="12.2548412"><ele>454.0</ele><time>2026-04-08T11:17:36.766Z</time></trkpt><trkpt lat="43.171571" lon="12.2548612"><ele>454.1666666666667</ele><time>2026-04-08T11:17:37.788Z</time></trkpt><trkpt lat="43.1716418" lon="12.2548783"><ele>454.33333333333337</ele><time>2026-04-08T11:17:38.787Z</time></trkpt><trkpt lat="43.171708" lon="12.2549003"><ele>454.5</ele><time>2026-04-08T11:17:39.772Z</time></trkpt><trkpt lat="43.1717724" lon="12.2549154"><ele>454.66666666666663</ele><time>2026-04-08T11:17:40.778Z</time></trkpt><trkpt lat="43.1718513" lon="12.2548929"><ele>454.8333333333333</ele><time>2026-04-08T11:17:42.76Z</time></trkpt><trkpt lat="43.1719769" lon="12.2548566"><ele>455.0</ele><time>2026-04-08T11:17:44.755Z</time></trkpt><trkpt lat="43.1720439" lon="12.2548148"><ele>452.16666666666663</ele><time>2026-04-08T11:17:45.784Z</time></trkpt><trkpt lat="43.1721221" lon="12.2547697"><ele>449.3333333333333</ele><time>2026-04-08T11:17:46.739Z</time></trkpt><trkpt lat="43.17221" lon="12.2547254"><ele>446.5</ele><time>2026-04-08T11:17:47.769Z</time></trkpt><trkpt lat="43.1722866" lon="12.2546499"><ele>443.66666666666663</ele><time>2026-04-08T11:17:48.783Z</time></trkpt><trkpt lat="43.172357" lon="12.2545877"><ele>440.8333333333333</ele><time>2026-04-08T11:17:49.763Z</time></trkpt><trkpt lat="43.1724334" lon="12.2545346"><ele>438.0</ele><time>2026-04-08T11:17:50.783Z</time></trkpt><trkpt lat="43.1725043" lon="12.2544762"><ele>438.0</ele><time>2026-04-08T11:17:51.781Z</time></trkpt><trkpt lat="43.1725755" lon="12.2544399"><ele>438.0</ele><time>2026-04-08T11:17:52.781Z</time></trkpt><trkpt lat="43.1726493" lon="12.2544107"><ele>438.0</ele><time>2026-04-08T11:17:53.789Z</time></trkpt><trkpt lat="43.1727167" lon="12.2543643"><ele>438.0</ele><time>2026-04-08T11:17:54.773Z</time></trkpt><trkpt lat="43.1727777" lon="12.2542912"><ele>438.0</ele><time>2026-04-08T11:17:55.79Z</time></trkpt><trkpt lat="43.1728325" lon="12.254206"><ele>438.0</ele><time>2026-04-08T11:17:56.786Z</time></trkpt><trkpt lat="43.1728697" lon="12.2541264"><ele>438.0</ele><time>2026-04-08T11:17:57.772Z</time></trkpt><trkpt lat="43.1729072" lon="12.254053"><ele>438.0</ele><time>2026-04-08T11:17:58.799Z</time></trkpt><trkpt lat="43.1730065" lon="12.2539772"><ele>438.0</ele><time>2026-04-08T11:18:00.79Z</time></trkpt><trkpt lat="43.1730785" lon="12.2539394"><ele>438.0</ele><time>2026-04-08T11:18:01.735Z</time></trkpt><trkpt lat="43.1731539" lon="12.2538922"><ele>438.0</ele><time>2026-04-08T11:18:02.781Z</time></trkpt><trkpt lat="43.1732265" lon="12.2538379"><ele>438.0</ele><time>2026-04-08T11:18:03.791Z</time></trkpt><trkpt lat="43.1732939" lon="12.2537954"><ele>436.42857142857144</ele><time>2026-04-08T11:18:04.786Z</time></trkpt><trkpt lat="43.173355" lon="12.2537544"><ele>434.85714285714283</ele><time>2026-04-08T11:18:05.795Z</time></trkpt><trkpt lat="43.1734157" lon="12.2537094"><ele>433.2857142857143</ele><time>2026-04-08T11:18:06.801Z</time></trkpt><trkpt lat="43.1734734" lon="12.2536605"><ele>431.7142857142857</ele><time>2026-04-08T11:18:07.793Z</time></trkpt><trkpt lat="43.1735417" lon="12.2536125"><ele>430.1428571428571</ele><time>2026-04-08T11:18:08.797Z</time></trkpt><trkpt lat="43.1736105" lon="12.2535641"><ele>428.57142857142856</ele><time>2026-04-08T11:18:09.795Z</time></trkpt><trkpt lat="43.1736685" lon="12.2535109"><ele>427.0</ele><time>2026-04-08T11:18:10.774Z</time></trkpt><trkpt lat="43.1737237" lon="12.2534489"><ele>427.00000000000006</ele><time>2026-04-08T11:18:11.786Z</time></trkpt><trkpt lat="43.1737752" lon="12.2533883"><ele>427.0</ele><time>2026-04-08T11:18:12.774Z</time></trkpt><trkpt lat="43.1738315" lon="12.2533236"><ele>427.0</ele><time>2026-04-08T11:18:13.721Z</time></trkpt><trkpt lat="43.1738844" lon="12.2532548"><ele>427.0</ele><time>2026-04-08T11:18:14.778Z</time></trkpt><trkpt lat="43.173976" lon="12.253149"><ele>427.00000000000006</ele><time>2026-04-08T11:18:16.782Z</time></trkpt><trkpt lat="43.1740642" lon="12.2530745"><ele>427.0</ele><time>2026-04-08T11:18:18.785Z</time></trkpt><trkpt lat="43.1741693" lon="12.2529974"><ele>424.50000000000006</ele><time>2026-04-08T11:18:20.789Z</time></trkpt><trkpt lat="43.1742368" lon="12.2529569"><ele>422.0</ele><time>2026-04-08T11:18:21.788Z</time></trkpt><trkpt lat="43.1743005" lon="12.2529059"><ele>419.5</ele><time>2026-04-08T11:18:22.781Z</time></trkpt><trkpt lat="43.1743605" lon="12.2528596"><ele>417.0</ele><time>2026-04-08T11:18:23.795Z</time></trkpt><trkpt lat="43.1744645" lon="12.2527655"><ele>414.50000000000006</ele><time>2026-04-08T11:18:25.787Z</time></trkpt><trkpt lat="43.1745191" lon="12.2527112"><ele>412.0</ele><time>2026-04-08T11:18:26.802Z</time></trkpt><trkpt lat="43.1746051" lon="12.2525908"><ele>412.0</ele><time>2026-04-08T11:18:28.793Z</time></trkpt><trkpt lat="43.1746492" lon="12.2525252"><ele>412.0</ele><time>2026-04-08T11:18:29.791Z</time></trkpt><trkpt lat="43.1747297" lon="12.2524154"><ele>412.0</ele><time>2026-04-08T11:18:31.783Z</time></trkpt><trkpt lat="43.1747727" lon="12.2523504"><ele>412.0</ele><time>2026-04-08T11:18:32.774Z</time></trkpt><trkpt lat="43.1748483" lon="12.2522401"><ele>412.0</ele><time>2026-04-08T11:18:34.777Z</time></trkpt><trkpt lat="43.1749361" lon="12.2521797"><ele>409.50000000000006</ele><time>2026-04-08T11:18:36.767Z</time></trkpt><trkpt lat="43.1750337" lon="12.2521221"><ele>407.0</ele><time>2026-04-08T11:18:38.787Z</time></trkpt><trkpt lat="43.1751332" lon="12.2520658"><ele>404.5</ele><time>2026-04-08T11:18:40.785Z</time></trkpt><trkpt lat="43.1752008" lon="12.2520139"><ele>402.0</ele><time>2026-04-08T11:18:42.777Z</time></trkpt><trkpt lat="43.1752774" lon="12.2519797"><ele>399.50000000000006</ele><time>2026-04-08T11:18:45.782Z</time></trkpt><trkpt lat="43.175342" lon="12.2519519"><ele>397.0</ele><time>2026-04-08T11:18:47.796Z</time></trkpt><trkpt lat="43.1754129" lon="12.251949"><ele>397.00000000000006</ele><time>2026-04-08T11:18:49.78Z</time></trkpt><trkpt lat="43.1755048" lon="12.2519486"><ele>397.0</ele><time>2026-04-08T11:18:51.79Z</time></trkpt><trkpt lat="43.175584" lon="12.2519639"><ele>397.0</ele><time>2026-04-08T11:18:53.794Z</time></trkpt><trkpt lat="43.1756735" lon="12.2519709"><ele>397.0</ele><time>2026-04-08T11:18:55.788Z</time></trkpt><trkpt lat="43.1757677" lon="12.2518921"><ele>397.00000000000006</ele><time>2026-04-08T11:18:57.787Z</time></trkpt><trkpt lat="43.1757997" lon="12.2518164"><ele>397.0</ele><time>2026-04-08T11:18:59.787Z</time></trkpt><trkpt lat="43.1757544" lon="12.2517062"><ele>397.0</ele><time>2026-04-08T11:19:01.802Z</time></trkpt><trkpt lat="43.175681" lon="12.2516484"><ele>397.0</ele><time>2026-04-08T11:19:02.781Z</time></trkpt><trkpt lat="43.1756095" lon="12.2515286"><ele>397.0</ele><time>2026-04-08T11:19:04.777Z</time></trkpt><trkpt lat="43.1755722" lon="12.2514271"><ele>397.0</ele><time>2026-04-08T11:19:06.768Z</time></trkpt><trkpt lat="43.1755128" lon="12.2513292"><ele>397.0</ele><time>2026-04-08T11:19:09.779Z</time></trkpt><trkpt lat="43.1754083" lon="12.251277"><ele>393.1666666666667</ele><time>2026-04-08T11:19:11.77Z</time></trkpt><trkpt lat="43.1753483" lon="12.2512218"><ele>389.33333333333337</ele><time>2026-04-08T11:19:13.737Z</time></trkpt><trkpt lat="43.1753684" lon="12.2511129"><ele>385.5</ele><time>2026-04-08T11:19:16.73Z</time></trkpt><trkpt lat="43.1754543" lon="12.2510332"><ele>381.6666666666667</ele><time>2026-04-08T11:19:19.775Z</time></trkpt><trkpt lat="43.1755341" lon="12.2510022"><ele>377.83333333333337</ele><time>2026-04-08T11:19:21.779Z</time></trkpt><trkpt lat="43.1756209" lon="12.2509615"><ele>374.0</ele><time>2026-04-08T11:19:23.77Z</time></trkpt><trkpt lat="43.175698" lon="12.250896"><ele>374.0</ele><time>2026-04-08T11:19:25.771Z</time></trkpt><trkpt lat="43.1757667" lon="12.2508273"><ele>374.0</ele><time>2026-04-08T11:19:27.779Z</time></trkpt><trkpt lat="43.1758422" lon="12.2507759"><ele>374.0</ele><time>2026-04-08T11:19:29.78Z</time></trkpt><trkpt lat="43.1759313" lon="12.2507391"><ele>374.0</ele><time>2026-04-08T11:19:31.787Z</time></trkpt><trkpt lat="43.1760176" lon="12.2507283"><ele>374.0</ele><time>2026-04-08T11:19:33.79Z</time></trkpt><trkpt lat="43.1761027" lon="12.2507234"><ele>374.0</ele><time>2026-04-08T11:19:35.77Z</time></trkpt><trkpt lat="43.1761956" lon="12.2507522"><ele>374.0</ele><time>2026-04-08T11:19:37.776Z</time></trkpt><trkpt lat="43.1762716" lon="12.25075"><ele>374.0</ele><time>2026-04-08T11:19:39.771Z</time></trkpt><trkpt lat="43.1763528" lon="12.2507192"><ele>374.0</ele><time>2026-04-08T11:19:41.792Z</time></trkpt><trkpt lat="43.1763982" lon="12.2506555"><ele>374.0</ele><time>2026-04-08T11:19:43.782Z</time></trkpt><trkpt lat="43.1764105" lon="12.2505432"><ele>374.0</ele><time>2026-04-08T11:19:45.783Z</time></trkpt><trkpt lat="43.1764257" lon="12.2504039"><ele>374.0</ele><time>2026-04-08T11:19:47.787Z</time></trkpt><trkpt lat="43.1764358" lon="12.2502356"><ele>370.83333333333337</ele><time>2026-04-08T11:19:49.794Z</time></trkpt><trkpt lat="43.176451" lon="12.250091"><ele>367.6666666666667</ele><time>2026-04-08T11:19:51.798Z</time></trkpt><trkpt lat="43.1764707" lon="12.2499742"><ele>364.5</ele><time>2026-04-08T11:19:53.791Z</time></trkpt><trkpt lat="43.1764995" lon="12.2498711"><ele>361.3333333333333</ele><time>2026-04-08T11:19:55.782Z</time></trkpt><trkpt lat="43.176512" lon="12.2497667"><ele>358.16666666666663</ele><time>2026-04-08T11:19:57.794Z</time></trkpt><trkpt lat="43.1765185" lon="12.2496468"><ele>355.0</ele><time>2026-04-08T11:19:59.788Z</time></trkpt><trkpt lat="43.1765119" lon="12.2495272"><ele>355.4</ele><time>2026-04-08T11:20:01.793Z</time></trkpt><trkpt lat="43.1764982" lon="12.2493638"><ele>355.8</ele><time>2026-04-08T11:20:03.776Z</time></trkpt><trkpt lat="43.1764821" lon="12.2492089"><ele>356.20000000000005</ele><time>2026-04-08T11:20:05.795Z</time></trkpt><trkpt lat="43.1765068" lon="12.2490774"><ele>356.6</ele><time>2026-04-08T11:20:07.792Z</time></trkpt><trkpt lat="43.1765235" lon="12.2489773"><ele>357.0</ele><time>2026-04-08T11:20:09.763Z</time></trkpt><trkpt lat="43.1765313" lon="12.2488608"><ele>355.6</ele><time>2026-04-08T11:20:11.794Z</time></trkpt><trkpt lat="43.1765296" lon="12.2487105"><ele>354.20000000000005</ele><time>2026-04-08T11:20:13.774Z</time></trkpt><trkpt lat="43.1765281" lon="12.2485875"><ele>352.8</ele><time>2026-04-08T11:20:15.801Z</time></trkpt><trkpt lat="43.1765301" lon="12.2484733"><ele>351.4</ele><time>2026-04-08T11:20:17.802Z</time></trkpt><trkpt lat="43.1765228" lon="12.2483353"><ele>350.0</ele><time>2026-04-08T11:20:19.801Z</time></trkpt><trkpt lat="43.1765113" lon="12.2481913"><ele>345.0</ele><time>2026-04-08T11:20:21.765Z</time></trkpt><trkpt lat="43.1764997" lon="12.2480893"><ele>340.0</ele><time>2026-04-08T11:20:23.791Z</time></trkpt><trkpt lat="43.1764932" lon="12.2479589"><ele>335.0</ele><time>2026-04-08T11:20:25.787Z</time></trkpt><trkpt lat="43.176488" lon="12.2478369"><ele>330.0</ele><time>2026-04-08T11:20:27.786Z</time></trkpt><trkpt lat="43.1764652" lon="12.2476981"><ele>325.0</ele><time>2026-04-08T11:20:29.79Z</time></trkpt><trkpt lat="43.1764681" lon="12.2475838"><ele>320.0</ele><time>2026-04-08T11:20:31.78Z</time></trkpt><trkpt lat="43.1764994" lon="12.2474932"><ele>320.1428571428571</ele><time>2026-04-08T11:20:33.779Z</time></trkpt><trkpt lat="43.1765427" lon="12.2474193"><ele>320.2857142857143</ele><time>2026-04-08T11:20:35.76Z</time></trkpt><trkpt lat="43.176594" lon="12.2473498"><ele>320.42857142857144</ele><time>2026-04-08T11:20:39.79Z</time></trkpt><trkpt lat="43.1765896" lon="12.2472612"><ele>320.57142857142856</ele><time>2026-04-08T11:20:44.754Z</time></trkpt><trkpt lat="43.1765254" lon="12.2471977"><ele>320.7142857142857</ele><time>2026-04-08T11:20:50.776Z</time></trkpt><trkpt lat="43.1764593" lon="12.2471859"><ele>320.85714285714283</ele><time>2026-04-08T11:20:52.787Z</time></trkpt><trkpt lat="43.1763837" lon="12.2471858"><ele>321.0</ele><time>2026-04-08T11:20:54.801Z</time></trkpt><trkpt lat="43.1763352" lon="12.2472604"><ele>320.8</ele><time>2026-04-08T11:20:59.782Z</time></trkpt><trkpt lat="43.1762917" lon="12.2473607"><ele>320.6</ele><time>2026-04-08T11:21:02.772Z</time></trkpt><trkpt lat="43.1762343" lon="12.2474875"><ele>320.4</ele><time>2026-04-08T11:21:04.767Z</time></trkpt><trkpt lat="43.1761769" lon="12.2475924"><ele>320.2</ele><time>2026-04-08T11:21:06.764Z</time></trkpt><trkpt lat="43.176133" lon="12.2476664"><ele>320.0</ele><time>2026-04-08T11:21:08.742Z</time></trkpt><trkpt lat="43.176081" lon="12.2477748"><ele>320.0</ele><time>2026-04-08T11:21:10.782Z</time></trkpt><trkpt lat="43.1760413" lon="12.2478615"><ele>320.0</ele><time>2026-04-08T11:21:12.792Z</time></trkpt><trkpt lat="43.1760081" lon="12.2479687"><ele>320.0</ele><time>2026-04-08T11:21:14.791Z</time></trkpt><trkpt lat="43.1759638" lon="12.2480541"><ele>320.0</ele><time>2026-04-08T11:21:16.752Z</time></trkpt><trkpt lat="43.1759343" lon="12.2481477"><ele>320.0</ele><time>2026-04-08T11:21:18.778Z</time></trkpt><trkpt lat="43.1758888" lon="12.2482338"><ele>320.0</ele><time>2026-04-08T11:21:20.785Z</time></trkpt><trkpt lat="43.1758198" lon="12.2482066"><ele>320.0</ele><time>2026-04-08T11:21:23.783Z</time></trkpt><trkpt lat="43.1758266" lon="12.2480744"><ele>320.0</ele><time>2026-04-08T11:21:26.772Z</time></trkpt><trkpt lat="43.1758364" lon="12.2479564"><ele>320.0</ele><time>2026-04-08T11:21:28.778Z</time></trkpt><trkpt lat="43.1758439" lon="12.2478509"><ele>320.0</ele><time>2026-04-08T11:21:30.775Z</time></trkpt><trkpt lat="43.175851" lon="12.2477227"><ele>320.0</ele><time>2026-04-08T11:21:33.764Z</time></trkpt><trkpt lat="43.1758174" lon="12.2475873"><ele>320.0</ele><time>2026-04-08T11:21:35.76Z</time></trkpt><trkpt lat="43.1757988" lon="12.2474625"><ele>320.0</ele><time>2026-04-08T11:21:37.78Z</time></trkpt><trkpt lat="43.1757813" lon="12.2473652"><ele>320.0</ele><time>2026-04-08T11:21:39.779Z</time></trkpt><trkpt lat="43.1757685" lon="12.2472607"><ele>320.0</ele><time>2026-04-08T11:21:41.78Z</time></trkpt><trkpt lat="43.1757922" lon="12.2471396"><ele>320.0</ele><time>2026-04-08T11:21:43.783Z</time></trkpt><trkpt lat="43.175854" lon="12.2469925"><ele>318.0</ele><time>2026-04-08T11:21:45.733Z</time></trkpt><trkpt lat="43.1758957" lon="12.2468442"><ele>316.0</ele><time>2026-04-08T11:21:47.753Z</time></trkpt><trkpt lat="43.1759265" lon="12.2466981"><ele>314.0</ele><time>2026-04-08T11:21:49.77Z</time></trkpt><trkpt lat="43.1759468" lon="12.2465624"><ele>312.0</ele><time>2026-04-08T11:21:51.777Z</time></trkpt><trkpt lat="43.1760048" lon="12.2464425"><ele>310.0</ele><time>2026-04-08T11:21:53.769Z</time></trkpt><trkpt lat="43.1760389" lon="12.2463034"><ele>308.4</ele><time>2026-04-08T11:21:55.782Z</time></trkpt><trkpt lat="43.1760186" lon="12.246163"><ele>306.8</ele><time>2026-04-08T11:21:57.791Z</time></trkpt><trkpt lat="43.1760261" lon="12.2460081"><ele>305.2</ele><time>2026-04-08T11:21:59.801Z</time></trkpt><trkpt lat="43.176065" lon="12.2458714"><ele>303.6</ele><time>2026-04-08T11:22:01.775Z</time></trkpt><trkpt lat="43.1761353" lon="12.2457612"><ele>302.0</ele><time>2026-04-08T11:22:03.78Z</time></trkpt><trkpt lat="43.1761995" lon="12.2456908"><ele>302.5</ele><time>2026-04-08T11:22:05.793Z</time></trkpt><trkpt lat="43.1762846" lon="12.245572"><ele>303.0</ele><time>2026-04-08T11:22:07.788Z</time></trkpt><trkpt lat="43.1763236" lon="12.2454965"><ele>303.5</ele><time>2026-04-08T11:22:08.771Z</time></trkpt><trkpt lat="43.1763646" lon="12.245426"><ele>304.0</ele><time>2026-04-08T11:22:09.798Z</time></trkpt><trkpt lat="43.1764013" lon="12.2453529"><ele>304.5</ele><time>2026-04-08T11:22:10.782Z</time></trkpt><trkpt lat="43.1764632" lon="12.2452262"><ele>305.0</ele><time>2026-04-08T11:22:12.786Z</time></trkpt><trkpt lat="43.1764958" lon="12.2451296"><ele>303.0</ele><time>2026-04-08T11:22:14.792Z</time></trkpt><trkpt lat="43.1765397" lon="12.2450099"><ele>301.0</ele><time>2026-04-08T11:22:29.768Z</time></trkpt><trkpt lat="43.1766234" lon="12.2449124"><ele>299.0</ele><time>2026-04-08T11:22:31.792Z</time></trkpt><trkpt lat="43.1766728" lon="12.2448586"><ele>297.0</ele><time>2026-04-08T11:22:32.772Z</time></trkpt><trkpt lat="43.1767085" lon="12.2447841"><ele>295.0</ele><time>2026-04-08T11:22:33.762Z</time></trkpt><trkpt lat="43.1767283" lon="12.2446726"><ele>293.0</ele><time>2026-04-08T11:22:34.772Z</time></trkpt><trkpt lat="43.1767353" lon="12.2445568"><ele>292.57142857142856</ele><time>2026-04-08T11:22:35.781Z</time></trkpt><trkpt lat="43.1767314" lon="12.2444492"><ele>292.1428571428571</ele><time>2026-04-08T11:22:36.789Z</time></trkpt><trkpt lat="43.1767215" lon="12.2443463"><ele>291.7142857142857</ele><time>2026-04-08T11:22:37.788Z</time></trkpt><trkpt lat="43.1767114" lon="12.2442508"><ele>291.2857142857143</ele><time>2026-04-08T11:22:38.792Z</time></trkpt><trkpt lat="43.1766917" lon="12.2441484"><ele>290.8571428571429</ele><time>2026-04-08T11:22:39.79Z</time></trkpt><trkpt lat="43.1766847" lon="12.2440507"><ele>290.42857142857144</ele><time>2026-04-08T11:22:40.794Z</time></trkpt><trkpt lat="43.1766854" lon="12.2439558"><ele>290.0</ele><time>2026-04-08T11:22:41.8Z</time></trkpt><trkpt lat="43.1767004" lon="12.2438683"><ele>289.8571428571429</ele><time>2026-04-08T11:22:42.783Z</time></trkpt><trkpt lat="43.1767173" lon="12.2437478"><ele>289.7142857142857</ele><time>2026-04-08T11:22:44.79Z</time></trkpt><trkpt lat="43.1767399" lon="12.2436485"><ele>289.57142857142856</ele><time>2026-04-08T11:22:47.79Z</time></trkpt><trkpt lat="43.1767098" lon="12.2435703"><ele>289.42857142857144</ele><time>2026-04-08T11:22:49.781Z</time></trkpt><trkpt lat="43.1766614" lon="12.2435027"><ele>289.2857142857143</ele><time>2026-04-08T11:22:50.791Z</time></trkpt><trkpt lat="43.1766124" lon="12.2434424"><ele>289.14285714285717</ele><time>2026-04-08T11:22:51.78Z</time></trkpt><trkpt lat="43.1765546" lon="12.2433799"><ele>289.0</ele><time>2026-04-08T11:22:52.81Z</time></trkpt><trkpt lat="43.1764846" lon="12.2433176"><ele>289.0</ele><time>2026-04-08T11:22:53.779Z</time></trkpt><trkpt lat="43.1764142" lon="12.2432592"><ele>289.0</ele><time>2026-04-08T11:22:54.811Z</time></trkpt><trkpt lat="43.1763473" lon="12.2431946"><ele>289.0</ele><time>2026-04-08T11:22:55.8Z</time></trkpt><trkpt lat="43.1762987" lon="12.243115"><ele>289.0</ele><time>2026-04-08T11:22:56.773Z</time></trkpt><trkpt lat="43.1762701" lon="12.2430187"><ele>289.0</ele><time>2026-04-08T11:22:57.787Z</time></trkpt><trkpt lat="43.1762532" lon="12.242928"><ele>289.0</ele><time>2026-04-08T11:22:58.781Z</time></trkpt><trkpt lat="43.1762356" lon="12.2428248"><ele>288.66666666666663</ele><time>2026-04-08T11:22:59.787Z</time></trkpt><trkpt lat="43.1762422" lon="12.2427192"><ele>288.3333333333333</ele><time>2026-04-08T11:23:00.785Z</time></trkpt><trkpt lat="43.1762438" lon="12.2426147"><ele>288.0</ele><time>2026-04-08T11:23:01.744Z</time></trkpt><trkpt lat="43.1762267" lon="12.2425135"><ele>287.6666666666667</ele><time>2026-04-08T11:23:02.792Z</time></trkpt><trkpt lat="43.1762005" lon="12.2424094"><ele>287.33333333333337</ele><time>2026-04-08T11:23:03.799Z</time></trkpt><trkpt lat="43.1761757" lon="12.242305"><ele>287.0</ele><time>2026-04-08T11:23:04.799Z</time></trkpt><trkpt lat="43.1761389" lon="12.2421912"><ele>286.8</ele><time>2026-04-08T11:23:05.771Z</time></trkpt><trkpt lat="43.1760911" lon="12.2420898"><ele>286.6</ele><time>2026-04-08T11:23:06.791Z</time></trkpt><trkpt lat="43.1760414" lon="12.2419806"><ele>286.40000000000003</ele><time>2026-04-08T11:23:07.783Z</time></trkpt><trkpt lat="43.1759989" lon="12.2418593"><ele>286.2</ele><time>2026-04-08T11:23:08.787Z</time></trkpt><trkpt lat="43.1759597" lon="12.2417277"><ele>286.0</ele><time>2026-04-08T11:23:09.785Z</time></trkpt><trkpt lat="43.1759234" lon="12.2416013"><ele>286.0</ele><time>2026-04-08T11:23:10.778Z</time></trkpt><trkpt lat="43.1758845" lon="12.2414752"><ele>286.0</ele><time>2026-04-08T11:23:11.803Z</time></trkpt><trkpt lat="43.1758441" lon="12.2413595"><ele>286.0</ele><time>2026-04-08T11:23:12.812Z</time></trkpt><trkpt lat="43.1758079" lon="12.2412538"><ele>286.0</ele><time>2026-04-08T11:23:13.798Z</time></trkpt><trkpt lat="43.1757737" lon="12.2411526"><ele>286.0</ele><time>2026-04-08T11:23:14.723Z</time></trkpt><trkpt lat="43.1757394" lon="12.2410456"><ele>286.0</ele><time>2026-04-08T11:23:15.79Z</time></trkpt><trkpt lat="43.1756999" lon="12.2409296"><ele>286.2</ele><time>2026-04-08T11:23:16.794Z</time></trkpt><trkpt lat="43.1756631" lon="12.2408088"><ele>286.40000000000003</ele><time>2026-04-08T11:23:17.791Z</time></trkpt><trkpt lat="43.1756285" lon="12.2406867"><ele>286.6</ele><time>2026-04-08T11:23:18.781Z</time></trkpt><trkpt lat="43.175596" lon="12.240563"><ele>286.8</ele><time>2026-04-08T11:23:19.801Z</time></trkpt><trkpt lat="43.1755663" lon="12.2404348"><ele>287.0</ele><time>2026-04-08T11:23:20.794Z</time></trkpt><trkpt lat="43.175537" lon="12.2403048"><ele>286.4</ele><time>2026-04-08T11:23:21.795Z</time></trkpt><trkpt lat="43.1755105" lon="12.2401686"><ele>285.79999999999995</ele><time>2026-04-08T11:23:22.786Z</time></trkpt><trkpt lat="43.1754914" lon="12.240028"><ele>285.2</ele><time>2026-04-08T11:23:23.786Z</time></trkpt><trkpt lat="43.1754741" lon="12.2398725"><ele>284.59999999999997</ele><time>2026-04-08T11:23:24.768Z</time></trkpt><trkpt lat="43.1754552" lon="12.2397231"><ele>284.0</ele><time>2026-04-08T11:23:25.756Z</time></trkpt><trkpt lat="43.1754323" lon="12.2395729"><ele>283.8</ele><time>2026-04-08T11:23:26.799Z</time></trkpt><trkpt lat="43.1754009" lon="12.2394212"><ele>283.59999999999997</ele><time>2026-04-08T11:23:27.794Z</time></trkpt><trkpt lat="43.1753665" lon="12.2392744"><ele>283.4</ele><time>2026-04-08T11:23:28.777Z</time></trkpt><trkpt lat="43.1753282" lon="12.2391321"><ele>283.2</ele><time>2026-04-08T11:23:29.789Z</time></trkpt><trkpt lat="43.175286" lon="12.2389992"><ele>283.0</ele><time>2026-04-08T11:23:30.773Z</time></trkpt><trkpt lat="43.1752459" lon="12.2388599"><ele>282.8</ele><time>2026-04-08T11:23:31.775Z</time></trkpt><trkpt lat="43.1752113" lon="12.2387205"><ele>282.6</ele><time>2026-04-08T11:23:32.777Z</time></trkpt><trkpt lat="43.1751743" lon="12.238579"><ele>282.4</ele><time>2026-04-08T11:23:33.782Z</time></trkpt><trkpt lat="43.1751387" lon="12.2384439"><ele>282.2</ele><time>2026-04-08T11:23:34.736Z</time></trkpt><trkpt lat="43.1751078" lon="12.2383054"><ele>282.0</ele><time>2026-04-08T11:23:35.723Z</time></trkpt><trkpt lat="43.1750778" lon="12.2381615"><ele>282.8</ele><time>2026-04-08T11:23:36.752Z</time></trkpt><trkpt lat="43.1750543" lon="12.2380223"><ele>283.6</ele><time>2026-04-08T11:23:37.746Z</time></trkpt><trkpt lat="43.1750398" lon="12.2378831"><ele>284.40000000000003</ele><time>2026-04-08T11:23:38.77Z</time></trkpt><trkpt lat="43.1750379" lon="12.2377521"><ele>285.2</ele><time>2026-04-08T11:23:39.744Z</time></trkpt><trkpt lat="43.1750322" lon="12.2376153"><ele>286.0</ele><time>2026-04-08T11:23:40.805Z</time></trkpt><trkpt lat="43.1750137" lon="12.2374747"><ele>286.0</ele><time>2026-04-08T11:23:41.798Z</time></trkpt><trkpt lat="43.1749881" lon="12.2373403"><ele>286.0</ele><time>2026-04-08T11:23:42.79Z</time></trkpt><trkpt lat="43.1749483" lon="12.2371973"><ele>286.0</ele><time>2026-04-08T11:23:43.793Z</time></trkpt><trkpt lat="43.1748977" lon="12.2370645"><ele>286.0</ele><time>2026-04-08T11:23:44.795Z</time></trkpt><trkpt lat="43.1748419" lon="12.236933"><ele>286.0</ele><time>2026-04-08T11:23:45.789Z</time></trkpt><trkpt lat="43.1747796" lon="12.2368057"><ele>285.8</ele><time>2026-04-08T11:23:46.768Z</time></trkpt><trkpt lat="43.1747134" lon="12.2366803"><ele>285.6</ele><time>2026-04-08T11:23:47.798Z</time></trkpt><trkpt lat="43.1746441" lon="12.2365622"><ele>285.4</ele><time>2026-04-08T11:23:48.791Z</time></trkpt><trkpt lat="43.1745698" lon="12.2364562"><ele>285.2</ele><time>2026-04-08T11:23:49.789Z</time></trkpt><trkpt lat="43.1744942" lon="12.2363545"><ele>285.0</ele><time>2026-04-08T11:23:50.79Z</time></trkpt><trkpt lat="43.1744166" lon="12.2362407"><ele>285.0</ele><time>2026-04-08T11:23:51.794Z</time></trkpt><trkpt lat="43.1743398" lon="12.2361241"><ele>285.0</ele><time>2026-04-08T11:23:52.784Z</time></trkpt><trkpt lat="43.1742686" lon="12.2360087"><ele>285.0</ele><time>2026-04-08T11:23:53.783Z</time></trkpt><trkpt lat="43.1742001" lon="12.2358932"><ele>285.0</ele><time>2026-04-08T11:23:54.795Z</time></trkpt><trkpt lat="43.1741336" lon="12.2357725"><ele>285.0</ele><time>2026-04-08T11:23:55.795Z</time></trkpt><trkpt lat="43.174061" lon="12.2356415"><ele>283.0</ele><time>2026-04-08T11:23:56.801Z</time></trkpt><trkpt lat="43.173988" lon="12.2355049"><ele>281.0</ele><time>2026-04-08T11:23:57.799Z</time></trkpt><trkpt lat="43.1739101" lon="12.2353648"><ele>279.0</ele><time>2026-04-08T11:23:58.785Z</time></trkpt><trkpt lat="43.1738303" lon="12.2352218"><ele>277.0</ele><time>2026-04-08T11:23:59.786Z</time></trkpt><trkpt lat="43.1737515" lon="12.2350748"><ele>277.0</ele><time>2026-04-08T11:24:00.811Z</time></trkpt><trkpt lat="43.1736775" lon="12.2349421"><ele>277.0</ele><time>2026-04-08T11:24:01.794Z</time></trkpt><trkpt lat="43.1736008" lon="12.2348077"><ele>277.0</ele><time>2026-04-08T11:24:02.795Z</time></trkpt><trkpt lat="43.1735309" lon="12.2346711"><ele>277.0</ele><time>2026-04-08T11:24:03.783Z</time></trkpt><trkpt lat="43.1734626" lon="12.2345423"><ele>277.6</ele><time>2026-04-08T11:24:04.774Z</time></trkpt><trkpt lat="43.1734041" lon="12.2344244"><ele>278.2</ele><time>2026-04-08T11:24:05.8Z</time></trkpt><trkpt lat="43.1733507" lon="12.2343099"><ele>278.8</ele><time>2026-04-08T11:24:06.775Z</time></trkpt><trkpt lat="43.1733027" lon="12.2342047"><ele>279.4</ele><time>2026-04-08T11:24:07.743Z</time></trkpt><trkpt lat="43.1732598" lon="12.2341088"><ele>280.0</ele><time>2026-04-08T11:24:08.782Z</time></trkpt><trkpt lat="43.1732235" lon="12.234011"><ele>279.16666666666663</ele><time>2026-04-08T11:24:09.783Z</time></trkpt><trkpt lat="43.1731879" lon="12.233919"><ele>278.3333333333333</ele><time>2026-04-08T11:24:10.772Z</time></trkpt><trkpt lat="43.1731516" lon="12.2338245"><ele>277.5</ele><time>2026-04-08T11:24:11.779Z</time></trkpt><trkpt lat="43.1731089" lon="12.2337231"><ele>276.6666666666667</ele><time>2026-04-08T11:24:12.794Z</time></trkpt><trkpt lat="43.1730639" lon="12.2336251"><ele>275.83333333333337</ele><time>2026-04-08T11:24:13.794Z</time></trkpt><trkpt lat="43.1730092" lon="12.2335225"><ele>275.0</ele><time>2026-04-08T11:24:14.784Z</time></trkpt><trkpt lat="43.1729408" lon="12.233429"><ele>275.0</ele><time>2026-04-08T11:24:15.776Z</time></trkpt><trkpt lat="43.1728666" lon="12.2333464"><ele>275.0</ele><time>2026-04-08T11:24:16.788Z</time></trkpt><trkpt lat="43.1727934" lon="12.2332572"><ele>275.0</ele><time>2026-04-08T11:24:17.786Z</time></trkpt><trkpt lat="43.1727082" lon="12.233166"><ele>275.0</ele><time>2026-04-08T11:24:18.791Z</time></trkpt><trkpt lat="43.1726171" lon="12.2330786"><ele>275.0</ele><time>2026-04-08T11:24:19.808Z</time></trkpt><trkpt lat="43.1725319" lon="12.2329916"><ele>274.5</ele><time>2026-04-08T11:24:20.769Z</time></trkpt><trkpt lat="43.1724432" lon="12.2328934"><ele>274.0</ele><time>2026-04-08T11:24:21.787Z</time></trkpt><trkpt lat="43.1723603" lon="12.2327929"><ele>273.5</ele><time>2026-04-08T11:24:22.798Z</time></trkpt><trkpt lat="43.1722805" lon="12.2326825"><ele>273.0</ele><time>2026-04-08T11:24:23.792Z</time></trkpt><trkpt lat="43.1722037" lon="12.2325696"><ele>273.0</ele><time>2026-04-08T11:24:24.769Z</time></trkpt><trkpt lat="43.1721262" lon="12.2324427"><ele>273.0</ele><time>2026-04-08T11:24:25.791Z</time></trkpt><trkpt lat="43.1720526" lon="12.2323122"><ele>273.0</ele><time>2026-04-08T11:24:26.79Z</time></trkpt><trkpt lat="43.1719758" lon="12.2321777"><ele>273.0</ele><time>2026-04-08T11:24:27.775Z</time></trkpt><trkpt lat="43.1718999" lon="12.2320352"><ele>275.0</ele><time>2026-04-08T11:24:28.783Z</time></trkpt><trkpt lat="43.1718219" lon="12.2318869"><ele>277.0</ele><time>2026-04-08T11:24:29.766Z</time></trkpt><trkpt lat="43.1717465" lon="12.2317465"><ele>279.0</ele><time>2026-04-08T11:24:30.784Z</time></trkpt><trkpt lat="43.1716695" lon="12.2316064"><ele>281.0</ele><time>2026-04-08T11:24:31.783Z</time></trkpt><trkpt lat="43.1715913" lon="12.2314567"><ele>279.5</ele><time>2026-04-08T11:24:32.779Z</time></trkpt><trkpt lat="43.1715178" lon="12.2313018"><ele>278.0</ele><time>2026-04-08T11:24:33.778Z</time></trkpt><trkpt lat="43.1714513" lon="12.2311511"><ele>276.5</ele><time>2026-04-08T11:24:34.775Z</time></trkpt><trkpt lat="43.1713816" lon="12.2310074"><ele>275.0</ele><time>2026-04-08T11:24:35.785Z</time></trkpt><trkpt lat="43.1713229" lon="12.2308773"><ele>275.0</ele><time>2026-04-08T11:24:36.773Z</time></trkpt><trkpt lat="43.1712651" lon="12.2307669"><ele>275.0</ele><time>2026-04-08T11:24:37.794Z</time></trkpt><trkpt lat="43.1711991" lon="12.230664"><ele>275.0</ele><time>2026-04-08T11:24:38.796Z</time></trkpt><trkpt lat="43.17114" lon="12.2305737"><ele>275.0</ele><time>2026-04-08T11:24:39.779Z</time></trkpt><trkpt lat="43.1710832" lon="12.2304869"><ele>275.0</ele><time>2026-04-08T11:24:40.792Z</time></trkpt><trkpt lat="43.1710213" lon="12.2304149"><ele>275.2857142857143</ele><time>2026-04-08T11:24:41.789Z</time></trkpt><trkpt lat="43.1709653" lon="12.2303464"><ele>275.57142857142856</ele><time>2026-04-08T11:24:42.767Z</time></trkpt><trkpt lat="43.1709128" lon="12.2302856"><ele>275.85714285714283</ele><time>2026-04-08T11:24:43.791Z</time></trkpt><trkpt lat="43.1708573" lon="12.2302205"><ele>276.1428571428571</ele><time>2026-04-08T11:24:44.761Z</time></trkpt><trkpt lat="43.1708042" lon="12.2301488"><ele>276.4285714285714</ele><time>2026-04-08T11:24:45.737Z</time></trkpt><trkpt lat="43.1707531" lon="12.2300783"><ele>276.7142857142857</ele><time>2026-04-08T11:24:46.774Z</time></trkpt><trkpt lat="43.1707031" lon="12.2300025"><ele>277.0</ele><time>2026-04-08T11:24:47.763Z</time></trkpt><trkpt lat="43.1706545" lon="12.2299191"><ele>276.0</ele><time>2026-04-08T11:24:48.79Z</time></trkpt><trkpt lat="43.1706009" lon="12.2298375"><ele>275.0</ele><time>2026-04-08T11:24:49.783Z</time></trkpt><trkpt lat="43.1705438" lon="12.2297524"><ele>274.0</ele><time>2026-04-08T11:24:50.785Z</time></trkpt><trkpt lat="43.1704845" lon="12.2296727"><ele>273.0</ele><time>2026-04-08T11:24:51.813Z</time></trkpt><trkpt lat="43.1704347" lon="12.2295962"><ele>272.0</ele><time>2026-04-08T11:24:52.781Z</time></trkpt><trkpt lat="43.1703951" lon="12.2295151"><ele>271.0</ele><time>2026-04-08T11:24:53.727Z</time></trkpt><trkpt lat="43.1703674" lon="12.2294203"><ele>271.0</ele><time>2026-04-08T11:24:54.761Z</time></trkpt><trkpt lat="43.1703542" lon="12.2293272"><ele>271.0</ele><time>2026-04-08T11:24:55.78Z</time></trkpt><trkpt lat="43.1703471" lon="12.2292328"><ele>271.0</ele><time>2026-04-08T11:24:56.778Z</time></trkpt><trkpt lat="43.1703532" lon="12.2291445"><ele>271.0</ele><time>2026-04-08T11:24:57.781Z</time></trkpt><trkpt lat="43.1703571" lon="12.2290438"><ele>271.0</ele><time>2026-04-08T11:24:58.759Z</time></trkpt><trkpt lat="43.170363" lon="12.2289302"><ele>271.0</ele><time>2026-04-08T11:24:59.784Z</time></trkpt><trkpt lat="43.1703691" lon="12.2288097"><ele>271.0</ele><time>2026-04-08T11:25:00.782Z</time></trkpt><trkpt lat="43.1703756" lon="12.2286893"><ele>271.0</ele><time>2026-04-08T11:25:01.759Z</time></trkpt><trkpt lat="43.1703867" lon="12.2285659"><ele>271.0</ele><time>2026-04-08T11:25:02.799Z</time></trkpt><trkpt lat="43.1703996" lon="12.2284483"><ele>271.0</ele><time>2026-04-08T11:25:03.755Z</time></trkpt><trkpt lat="43.1704088" lon="12.2283345"><ele>271.0</ele><time>2026-04-08T11:25:04.761Z</time></trkpt><trkpt lat="43.1704205" lon="12.2282251"><ele>271.0</ele><time>2026-04-08T11:25:05.78Z</time></trkpt><trkpt lat="43.1704203" lon="12.2281279"><ele>271.0</ele><time>2026-04-08T11:25:06.773Z</time></trkpt><trkpt lat="43.1703967" lon="12.2279713"><ele>271.2</ele><time>2026-04-08T11:25:08.748Z</time></trkpt><trkpt lat="43.1703344" lon="12.2278245"><ele>271.40000000000003</ele><time>2026-04-08T11:25:10.792Z</time></trkpt><trkpt lat="43.1702331" lon="12.2277484"><ele>271.6</ele><time>2026-04-08T11:25:12.774Z</time></trkpt><trkpt lat="43.1701658" lon="12.2277485"><ele>271.8</ele><time>2026-04-08T11:25:13.792Z</time></trkpt><trkpt lat="43.1700963" lon="12.2277408"><ele>272.0</ele><time>2026-04-08T11:25:14.737Z</time></trkpt><trkpt lat="43.169976" lon="12.2277403"><ele>272.0</ele><time>2026-04-08T11:25:16.798Z</time></trkpt><trkpt lat="43.169906" lon="12.2277296"><ele>272.0</ele><time>2026-04-08T11:25:17.796Z</time></trkpt><trkpt lat="43.1698364" lon="12.2277236"><ele>272.0</ele><time>2026-04-08T11:25:18.762Z</time></trkpt><trkpt lat="43.1697723" lon="12.2277141"><ele>272.0</ele><time>2026-04-08T11:25:19.739Z</time></trkpt><trkpt lat="43.1697081" lon="12.2277124"><ele>272.0</ele><time>2026-04-08T11:25:20.776Z</time></trkpt><trkpt lat="43.1695793" lon="12.2276845"><ele>272.0</ele><time>2026-04-08T11:25:22.778Z</time></trkpt><trkpt lat="43.1695141" lon="12.2276654"><ele>272.0</ele><time>2026-04-08T11:25:23.794Z</time></trkpt><trkpt lat="43.1694485" lon="12.2276322"><ele>272.0</ele><time>2026-04-08T11:25:24.782Z</time></trkpt><trkpt lat="43.1693804" lon="12.2275939"><ele>272.0</ele><time>2026-04-08T11:25:25.802Z</time></trkpt><trkpt lat="43.1693159" lon="12.2275541"><ele>272.0</ele><time>2026-04-08T11:25:26.789Z</time></trkpt><trkpt lat="43.1692554" lon="12.227512"><ele>272.0</ele><time>2026-04-08T11:25:27.787Z</time></trkpt><trkpt lat="43.1691462" lon="12.2274717"><ele>272.0</ele><time>2026-04-08T11:25:29.779Z</time></trkpt><trkpt lat="43.1690458" lon="12.2274308"><ele>271.0</ele><time>2026-04-08T11:25:31.785Z</time></trkpt><trkpt lat="43.1689847" lon="12.2273998"><ele>270.0</ele><time>2026-04-08T11:25:32.754Z</time></trkpt><trkpt lat="43.1689253" lon="12.2273629"><ele>269.0</ele><time>2026-04-08T11:25:33.784Z</time></trkpt><trkpt lat="43.1688078" lon="12.2273059"><ele>268.0</ele><time>2026-04-08T11:25:35.79Z</time></trkpt><trkpt lat="43.1686885" lon="12.2272564"><ele>267.0</ele><time>2026-04-08T11:25:37.764Z</time></trkpt><trkpt lat="43.1686284" lon="12.2272235"><ele>266.0</ele><time>2026-04-08T11:25:38.748Z</time></trkpt><trkpt lat="43.1685644" lon="12.2271872"><ele>265.83333333333337</ele><time>2026-04-08T11:25:39.785Z</time></trkpt><trkpt lat="43.1685026" lon="12.2271518"><ele>265.6666666666667</ele><time>2026-04-08T11:25:40.789Z</time></trkpt><trkpt lat="43.1684346" lon="12.2271123"><ele>265.5</ele><time>2026-04-08T11:25:41.791Z</time></trkpt><trkpt lat="43.1683595" lon="12.2270764"><ele>265.3333333333333</ele><time>2026-04-08T11:25:42.795Z</time></trkpt><trkpt lat="43.1682746" lon="12.2270409"><ele>265.16666666666663</ele><time>2026-04-08T11:25:43.791Z</time></trkpt><trkpt lat="43.1681825" lon="12.2269974"><ele>265.0</ele><time>2026-04-08T11:25:44.767Z</time></trkpt><trkpt lat="43.1680977" lon="12.2269533"><ele>265.0</ele><time>2026-04-08T11:25:45.78Z</time></trkpt><trkpt lat="43.1680217" lon="12.2269045"><ele>265.0</ele><time>2026-04-08T11:25:46.797Z</time></trkpt><trkpt lat="43.1679391" lon="12.2268587"><ele>265.0</ele><time>2026-04-08T11:25:47.776Z</time></trkpt><trkpt lat="43.1678556" lon="12.2268146"><ele>265.0</ele><time>2026-04-08T11:25:48.796Z</time></trkpt><trkpt lat="43.1677734" lon="12.2267765"><ele>265.0</ele><time>2026-04-08T11:25:49.781Z</time></trkpt><trkpt lat="43.1676885" lon="12.2267334"><ele>265.0</ele><time>2026-04-08T11:25:50.789Z</time></trkpt><trkpt lat="43.1676079" lon="12.2266798"><ele>265.0</ele><time>2026-04-08T11:25:51.796Z</time></trkpt><trkpt lat="43.1675349" lon="12.2266197"><ele>265.0</ele><time>2026-04-08T11:25:52.787Z</time></trkpt><trkpt lat="43.1674668" lon="12.2265606"><ele>265.0</ele><time>2026-04-08T11:25:53.779Z</time></trkpt><trkpt lat="43.1673957" lon="12.2265025"><ele>265.0</ele><time>2026-04-08T11:25:54.768Z</time></trkpt><trkpt lat="43.1673356" lon="12.2264406"><ele>265.0</ele><time>2026-04-08T11:25:55.78Z</time></trkpt><trkpt lat="43.1672774" lon="12.2263759"><ele>265.0</ele><time>2026-04-08T11:25:56.794Z</time></trkpt><trkpt lat="43.1672209" lon="12.2263179"><ele>264.4</ele><time>2026-04-08T11:25:57.792Z</time></trkpt><trkpt lat="43.1671658" lon="12.2262688"><ele>263.8</ele><time>2026-04-08T11:25:58.799Z</time></trkpt><trkpt lat="43.1670804" lon="12.2261892"><ele>263.2</ele><time>2026-04-08T11:26:00.819Z</time></trkpt><trkpt lat="43.167005" lon="12.2261892"><ele>262.6</ele><time>2026-04-08T11:26:02.796Z</time></trkpt><trkpt lat="43.1669329" lon="12.2262562"><ele>262.0</ele><time>2026-04-08T11:26:04.768Z</time></trkpt><trkpt lat="43.1668591" lon="12.2264014"><ele>261.8333333333333</ele><time>2026-04-08T11:26:06.793Z</time></trkpt><trkpt lat="43.1668129" lon="12.2264889"><ele>261.66666666666663</ele><time>2026-04-08T11:26:07.772Z</time></trkpt><trkpt lat="43.166767" lon="12.2265747"><ele>261.5</ele><time>2026-04-08T11:26:08.766Z</time></trkpt><trkpt lat="43.1667171" lon="12.2266631"><ele>261.3333333333333</ele><time>2026-04-08T11:26:09.782Z</time></trkpt><trkpt lat="43.1666697" lon="12.2267502"><ele>261.1666666666667</ele><time>2026-04-08T11:26:10.777Z</time></trkpt><trkpt lat="43.1666202" lon="12.2268324"><ele>261.0</ele><time>2026-04-08T11:26:11.761Z</time></trkpt><trkpt lat="43.1665634" lon="12.2269127"><ele>260.8</ele><time>2026-04-08T11:26:12.776Z</time></trkpt><trkpt lat="43.1664961" lon="12.2269913"><ele>260.6</ele><time>2026-04-08T11:26:13.784Z</time></trkpt><trkpt lat="43.1664242" lon="12.2270608"><ele>260.4</ele><time>2026-04-08T11:26:14.719Z</time></trkpt><trkpt lat="43.16634" lon="12.2271237"><ele>260.2</ele><time>2026-04-08T11:26:15.783Z</time></trkpt><trkpt lat="43.166254" lon="12.227194"><ele>260.0</ele><time>2026-04-08T11:26:16.773Z</time></trkpt><trkpt lat="43.1661723" lon="12.2272636"><ele>260.2</ele><time>2026-04-08T11:26:17.781Z</time></trkpt><trkpt lat="43.1660943" lon="12.2273472"><ele>260.4</ele><time>2026-04-08T11:26:18.781Z</time></trkpt><trkpt lat="43.1660209" lon="12.2274375"><ele>260.6</ele><time>2026-04-08T11:26:19.781Z</time></trkpt><trkpt lat="43.1659503" lon="12.2275242"><ele>260.8</ele><time>2026-04-08T11:26:20.79Z</time></trkpt><trkpt lat="43.1658777" lon="12.2276094"><ele>261.0</ele><time>2026-04-08T11:26:21.791Z</time></trkpt><trkpt lat="43.1658037" lon="12.2276886"><ele>261.0</ele><time>2026-04-08T11:26:22.773Z</time></trkpt><trkpt lat="43.165726" lon="12.2277514"><ele>261.0</ele><time>2026-04-08T11:26:23.742Z</time></trkpt><trkpt lat="43.1656453" lon="12.227789"><ele>261.0</ele><time>2026-04-08T11:26:24.78Z</time></trkpt><trkpt lat="43.165577" lon="12.2278261"><ele>261.0</ele><time>2026-04-08T11:26:25.805Z</time></trkpt><trkpt lat="43.1654638" lon="12.2279028"><ele>261.0</ele><time>2026-04-08T11:26:27.79Z</time></trkpt><trkpt lat="43.165419" lon="12.2279818"><ele>261.0</ele><time>2026-04-08T11:26:28.792Z</time></trkpt><trkpt lat="43.1653333" lon="12.2281403"><ele>261.8</ele><time>2026-04-08T11:26:30.785Z</time></trkpt><trkpt lat="43.1652664" lon="12.2282228"><ele>262.6</ele><time>2026-04-08T11:26:31.799Z</time></trkpt><trkpt lat="43.1652018" lon="12.2283149"><ele>263.4</ele><time>2026-04-08T11:26:32.79Z</time></trkpt><trkpt lat="43.165141" lon="12.2284141"><ele>264.2</ele><time>2026-04-08T11:26:33.791Z</time></trkpt><trkpt lat="43.1650876" lon="12.2285165"><ele>265.0</ele><time>2026-04-08T11:26:34.763Z</time></trkpt><trkpt lat="43.1650432" lon="12.2286209"><ele>265.0</ele><time>2026-04-08T11:26:35.786Z</time></trkpt><trkpt lat="43.1650071" lon="12.2287187"><ele>265.0</ele><time>2026-04-08T11:26:36.792Z</time></trkpt><trkpt lat="43.1649684" lon="12.2288063"><ele>265.0</ele><time>2026-04-08T11:26:37.777Z</time></trkpt><trkpt lat="43.1649338" lon="12.2288906"><ele>265.0</ele><time>2026-04-08T11:26:38.772Z</time></trkpt><trkpt lat="43.164838" lon="12.2289967"><ele>265.0</ele><time>2026-04-08T11:26:40.781Z</time></trkpt><trkpt lat="43.1647712" lon="12.2290299"><ele>265.0</ele><time>2026-04-08T11:26:41.787Z</time></trkpt><trkpt lat="43.1646852" lon="12.2290552"><ele>265.6</ele><time>2026-04-08T11:26:42.775Z</time></trkpt><trkpt lat="43.1645825" lon="12.229075"><ele>266.2</ele><time>2026-04-08T11:26:43.781Z</time></trkpt><trkpt lat="43.1644775" lon="12.2290829"><ele>266.8</ele><time>2026-04-08T11:26:44.783Z</time></trkpt><trkpt lat="43.164377" lon="12.2290948"><ele>267.4</ele><time>2026-04-08T11:26:45.802Z</time></trkpt><trkpt lat="43.164278" lon="12.2291014"><ele>268.0</ele><time>2026-04-08T11:26:46.782Z</time></trkpt><trkpt lat="43.1641821" lon="12.2291108"><ele>268.0</ele><time>2026-04-08T11:26:47.791Z</time></trkpt><trkpt lat="43.1640753" lon="12.2291198"><ele>268.0</ele><time>2026-04-08T11:26:48.814Z</time></trkpt><trkpt lat="43.1639717" lon="12.2291224"><ele>268.0</ele><time>2026-04-08T11:26:49.789Z</time></trkpt><trkpt lat="43.1638666" lon="12.2291268"><ele>268.0</ele><time>2026-04-08T11:26:50.782Z</time></trkpt><trkpt lat="43.1637638" lon="12.2291255"><ele>268.0</ele><time>2026-04-08T11:26:51.78Z</time></trkpt><trkpt lat="43.1636622" lon="12.2291298"><ele>269.8</ele><time>2026-04-08T11:26:52.757Z</time></trkpt><trkpt lat="43.1635533" lon="12.2291347"><ele>271.6</ele><time>2026-04-08T11:26:53.774Z</time></trkpt><trkpt lat="43.1634422" lon="12.2291453"><ele>273.4</ele><time>2026-04-08T11:26:54.779Z</time></trkpt><trkpt lat="43.1633338" lon="12.2291512"><ele>275.2</ele><time>2026-04-08T11:26:55.789Z</time></trkpt><trkpt lat="43.1632254" lon="12.2291521"><ele>277.0</ele><time>2026-04-08T11:26:56.765Z</time></trkpt><trkpt lat="43.1631381" lon="12.2291569"><ele>277.16666666666663</ele><time>2026-04-08T11:26:57.775Z</time></trkpt><trkpt lat="43.1630598" lon="12.2291627"><ele>277.3333333333333</ele><time>2026-04-08T11:26:58.792Z</time></trkpt><trkpt lat="43.1629947" lon="12.2291738"><ele>277.5</ele><time>2026-04-08T11:26:59.783Z</time></trkpt><trkpt lat="43.1628958" lon="12.2292532"><ele>277.6666666666667</ele><time>2026-04-08T11:27:01.786Z</time></trkpt><trkpt lat="43.1628856" lon="12.2294067"><ele>277.83333333333337</ele><time>2026-04-08T11:27:03.782Z</time></trkpt><trkpt lat="43.1629198" lon="12.2294974"><ele>278.0</ele><time>2026-04-08T11:27:04.777Z</time></trkpt><trkpt lat="43.1629571" lon="12.2295951"><ele>278.0</ele><time>2026-04-08T11:27:05.779Z</time></trkpt><trkpt lat="43.1629958" lon="12.2296912"><ele>278.0</ele><time>2026-04-08T11:27:06.791Z</time></trkpt><trkpt lat="43.1630351" lon="12.2297605"><ele>278.0</ele><time>2026-04-08T11:27:07.78Z</time></trkpt><trkpt lat="43.1630468" lon="12.2299229"><ele>278.0</ele><time>2026-04-08T11:27:09.797Z</time></trkpt><trkpt lat="43.163039" lon="12.2300161"><ele>278.0</ele><time>2026-04-08T11:27:10.78Z</time></trkpt><trkpt lat="43.1630255" lon="12.2301677"><ele>278.0</ele><time>2026-04-08T11:27:12.786Z</time></trkpt><trkpt lat="43.1629439" lon="12.2302181"><ele>279.83333333333337</ele><time>2026-04-08T11:27:15.796Z</time></trkpt><trkpt lat="43.1628926" lon="12.230273"><ele>281.6666666666667</ele><time>2026-04-08T11:27:17.782Z</time></trkpt><trkpt lat="43.1628423" lon="12.2304112"><ele>283.5</ele><time>2026-04-08T11:27:19.794Z</time></trkpt><trkpt lat="43.1628044" lon="12.2305035"><ele>285.3333333333333</ele><time>2026-04-08T11:27:20.786Z</time></trkpt><trkpt lat="43.1627703" lon="12.2305854"><ele>287.16666666666663</ele><time>2026-04-08T11:27:21.793Z</time></trkpt><trkpt lat="43.1626824" lon="12.2306806"><ele>289.0</ele><time>2026-04-08T11:27:23.802Z</time></trkpt><trkpt lat="43.1625832" lon="12.2307532"><ele>290.8</ele><time>2026-04-08T11:27:25.788Z</time></trkpt><trkpt lat="43.1624814" lon="12.2308377"><ele>292.59999999999997</ele><time>2026-04-08T11:27:27.8Z</time></trkpt><trkpt lat="43.1623992" lon="12.2309485"><ele>294.4</ele><time>2026-04-08T11:27:29.783Z</time></trkpt><trkpt lat="43.1623551" lon="12.2310307"><ele>296.2</ele><time>2026-04-08T11:27:30.793Z</time></trkpt><trkpt lat="43.1623136" lon="12.2311216"><ele>298.0</ele><time>2026-04-08T11:27:31.78Z</time></trkpt><trkpt lat="43.1622766" lon="12.2312122"><ele>298.0</ele><time>2026-04-08T11:27:32.767Z</time></trkpt><trkpt lat="43.1622329" lon="12.2313562"><ele>298.0</ele><time>2026-04-08T11:27:34.792Z</time></trkpt><trkpt lat="43.1622069" lon="12.231439"><ele>298.0</ele><time>2026-04-08T11:27:35.741Z</time></trkpt><trkpt lat="43.1621789" lon="12.2315199"><ele>298.0</ele><time>2026-04-08T11:27:36.785Z</time></trkpt><trkpt lat="43.1621504" lon="12.231602"><ele>298.0</ele><time>2026-04-08T11:27:37.772Z</time></trkpt><trkpt lat="43.1621192" lon="12.2316919"><ele>298.0</ele><time>2026-04-08T11:27:38.776Z</time></trkpt><trkpt lat="43.1620892" lon="12.2317879"><ele>300.57142857142856</ele><time>2026-04-08T11:27:39.803Z</time></trkpt><trkpt lat="43.1620547" lon="12.2318866"><ele>303.1428571428571</ele><time>2026-04-08T11:27:40.79Z</time></trkpt><trkpt lat="43.162023" lon="12.23198"><ele>305.7142857142857</ele><time>2026-04-08T11:27:41.771Z</time></trkpt><trkpt lat="43.1619969" lon="12.2320617"><ele>308.2857142857143</ele><time>2026-04-08T11:27:42.793Z</time></trkpt><trkpt lat="43.1619749" lon="12.2321481"><ele>310.8571428571429</ele><time>2026-04-08T11:27:43.781Z</time></trkpt><trkpt lat="43.1619514" lon="12.2322345"><ele>313.42857142857144</ele><time>2026-04-08T11:27:44.782Z</time></trkpt><trkpt lat="43.1619281" lon="12.232319"><ele>316.0</ele><time>2026-04-08T11:27:45.78Z</time></trkpt><trkpt lat="43.1619066" lon="12.2324129"><ele>317.5</ele><time>2026-04-08T11:27:46.77Z</time></trkpt><trkpt lat="43.1618882" lon="12.2325245"><ele>319.0</ele><time>2026-04-08T11:27:47.794Z</time></trkpt><trkpt lat="43.1618735" lon="12.2326461"><ele>320.5</ele><time>2026-04-08T11:27:48.774Z</time></trkpt><trkpt lat="43.1618616" lon="12.2327823"><ele>322.0</ele><time>2026-04-08T11:27:49.78Z</time></trkpt><trkpt lat="43.1618516" lon="12.2329081"><ele>323.5</ele><time>2026-04-08T11:27:50.777Z</time></trkpt><trkpt lat="43.1618484" lon="12.233016"><ele>325.0</ele><time>2026-04-08T11:27:51.788Z</time></trkpt><trkpt lat="43.1618217" lon="12.2331028"><ele>325.57142857142856</ele><time>2026-04-08T11:27:52.782Z</time></trkpt><trkpt lat="43.1617872" lon="12.2331817"><ele>326.14285714285717</ele><time>2026-04-08T11:27:53.772Z</time></trkpt><trkpt lat="43.1617478" lon="12.2332599"><ele>326.7142857142857</ele><time>2026-04-08T11:27:54.785Z</time></trkpt><trkpt lat="43.1617155" lon="12.2333504"><ele>327.2857142857143</ele><time>2026-04-08T11:27:55.773Z</time></trkpt><trkpt lat="43.1616867" lon="12.2334361"><ele>327.8571428571429</ele><time>2026-04-08T11:27:56.788Z</time></trkpt><trkpt lat="43.1616432" lon="12.2335177"><ele>328.42857142857144</ele><time>2026-04-08T11:27:57.812Z</time></trkpt><trkpt lat="43.1616027" lon="12.2335868"><ele>329.0</ele><time>2026-04-08T11:27:58.775Z</time></trkpt><trkpt lat="43.1615178" lon="12.2337026"><ele>333.2</ele><time>2026-04-08T11:28:00.79Z</time></trkpt><trkpt lat="43.1614363" lon="12.2338018"><ele>337.4</ele><time>2026-04-08T11:28:02.793Z</time></trkpt><trkpt lat="43.1613435" lon="12.2338577"><ele>341.6</ele><time>2026-04-08T11:28:04.781Z</time></trkpt><trkpt lat="43.1612669" lon="12.233895"><ele>345.8</ele><time>2026-04-08T11:28:06.787Z</time></trkpt><trkpt lat="43.1611706" lon="12.2338697"><ele>350.0</ele><time>2026-04-08T11:28:08.779Z</time></trkpt><trkpt lat="43.1610872" lon="12.2338583"><ele>350.0</ele><time>2026-04-08T11:28:10.789Z</time></trkpt><trkpt lat="43.1609796" lon="12.2339095"><ele>350.0</ele><time>2026-04-08T11:28:12.767Z</time></trkpt><trkpt lat="43.1608957" lon="12.2339415"><ele>350.0</ele><time>2026-04-08T11:28:14.779Z</time></trkpt><trkpt lat="43.1608346" lon="12.2339901"><ele>350.0</ele><time>2026-04-08T11:28:15.76Z</time></trkpt><trkpt lat="43.1607768" lon="12.234044"><ele>350.0</ele><time>2026-04-08T11:28:16.769Z</time></trkpt><trkpt lat="43.1606664" lon="12.2341243"><ele>352.5</ele><time>2026-04-08T11:28:18.781Z</time></trkpt><trkpt lat="43.1605843" lon="12.2342122"><ele>355.0</ele><time>2026-04-08T11:28:20.788Z</time></trkpt><trkpt lat="43.1604972" lon="12.2343009"><ele>357.5</ele><time>2026-04-08T11:28:22.784Z</time></trkpt><trkpt lat="43.1604216" lon="12.2343478"><ele>360.0</ele><time>2026-04-08T11:28:24.789Z</time></trkpt><trkpt lat="43.1603606" lon="12.2344078"><ele>362.5</ele><time>2026-04-08T11:28:26.787Z</time></trkpt><trkpt lat="43.1603149" lon="12.2344684"><ele>365.0</ele><time>2026-04-08T11:28:27.738Z</time></trkpt><trkpt lat="43.1602708" lon="12.234546"><ele>365.0</ele><time>2026-04-08T11:28:28.782Z</time></trkpt><trkpt lat="43.160244" lon="12.2346333"><ele>365.0</ele><time>2026-04-08T11:28:29.789Z</time></trkpt><trkpt lat="43.1601813" lon="12.2347464"><ele>365.0</ele><time>2026-04-08T11:28:31.792Z</time></trkpt><trkpt lat="43.160085" lon="12.2347793"><ele>365.0</ele><time>2026-04-08T11:28:33.793Z</time></trkpt><trkpt lat="43.1600237" lon="12.2348008"><ele>365.0</ele><time>2026-04-08T11:28:34.759Z</time></trkpt><trkpt lat="43.1599386" lon="12.2348176"><ele>365.0</ele><time>2026-04-08T11:28:35.795Z</time></trkpt><trkpt lat="43.159839" lon="12.2348249"><ele>367.0</ele><time>2026-04-08T11:28:36.792Z</time></trkpt><trkpt lat="43.159744" lon="12.2348136"><ele>369.0</ele><time>2026-04-08T11:28:37.786Z</time></trkpt><trkpt lat="43.1596515" lon="12.2348023"><ele>371.0</ele><time>2026-04-08T11:28:38.798Z</time></trkpt><trkpt lat="43.1595696" lon="12.2347793"><ele>373.0</ele><time>2026-04-08T11:28:39.798Z</time></trkpt><trkpt lat="43.1594965" lon="12.2347418"><ele>375.0</ele><time>2026-04-08T11:28:40.793Z</time></trkpt><trkpt lat="43.1594338" lon="12.2346865"><ele>377.0</ele><time>2026-04-08T11:28:41.779Z</time></trkpt><trkpt lat="43.1593484" lon="12.2345943"><ele>377.0</ele><time>2026-04-08T11:28:43.777Z</time></trkpt><trkpt lat="43.1592589" lon="12.2345394"><ele>377.0</ele><time>2026-04-08T11:28:45.746Z</time></trkpt><trkpt lat="43.159151" lon="12.2345356"><ele>377.0</ele><time>2026-04-08T11:28:47.784Z</time></trkpt><trkpt lat="43.1590127" lon="12.2345239"><ele>377.0</ele><time>2026-04-08T11:28:49.739Z</time></trkpt><trkpt lat="43.1589383" lon="12.2344819"><ele>377.0</ele><time>2026-04-08T11:28:50.782Z</time></trkpt><trkpt lat="43.1588666" lon="12.234416"><ele>379.1666666666667</ele><time>2026-04-08T11:28:51.804Z</time></trkpt><trkpt lat="43.1587969" lon="12.2343566"><ele>381.33333333333337</ele><time>2026-04-08T11:28:52.779Z</time></trkpt><trkpt lat="43.1587205" lon="12.2343024"><ele>383.5</ele><time>2026-04-08T11:28:53.793Z</time></trkpt><trkpt lat="43.1586391" lon="12.234255"><ele>385.6666666666667</ele><time>2026-04-08T11:28:54.767Z</time></trkpt><trkpt lat="43.1585675" lon="12.2341988"><ele>387.8333333333333</ele><time>2026-04-08T11:28:55.787Z</time></trkpt><trkpt lat="43.158484" lon="12.2341014"><ele>390.0</ele><time>2026-04-08T11:28:57.788Z</time></trkpt><trkpt lat="43.158445" lon="12.2339723"><ele>391.0</ele><time>2026-04-08T11:28:59.792Z</time></trkpt><trkpt lat="43.1583461" lon="12.2338846"><ele>392.0</ele><time>2026-04-08T11:29:01.78Z</time></trkpt><trkpt lat="43.158272" lon="12.2338457"><ele>393.0</ele><time>2026-04-08T11:29:02.795Z</time></trkpt><trkpt lat="43.1582075" lon="12.2338033"><ele>394.0</ele><time>2026-04-08T11:29:03.775Z</time></trkpt><trkpt lat="43.1581472" lon="12.2337454"><ele>395.0</ele><time>2026-04-08T11:29:04.785Z</time></trkpt><trkpt lat="43.1580672" lon="12.2337002"><ele>396.0</ele><time>2026-04-08T11:29:05.776Z</time></trkpt><trkpt lat="43.157971" lon="12.2336471"><ele>396.0</ele><time>2026-04-08T11:29:06.799Z</time></trkpt><trkpt lat="43.1578711" lon="12.2335722"><ele>396.0</ele><time>2026-04-08T11:29:07.795Z</time></trkpt><trkpt lat="43.1577691" lon="12.2334844"><ele>396.0</ele><time>2026-04-08T11:29:08.762Z</time></trkpt><trkpt lat="43.1576697" lon="12.2333828"><ele>396.0</ele><time>2026-04-08T11:29:09.787Z</time></trkpt><trkpt lat="43.1575677" lon="12.233291"><ele>396.0</ele><time>2026-04-08T11:29:10.792Z</time></trkpt><trkpt lat="43.1574662" lon="12.2332102"><ele>396.0</ele><time>2026-04-08T11:29:11.785Z</time></trkpt><trkpt lat="43.1573624" lon="12.2331616"><ele>396.0</ele><time>2026-04-08T11:29:12.78Z</time></trkpt><trkpt lat="43.1572717" lon="12.2331198"><ele>396.0</ele><time>2026-04-08T11:29:13.804Z</time></trkpt><trkpt lat="43.1571899" lon="12.2330834"><ele>396.0</ele><time>2026-04-08T11:29:14.774Z</time></trkpt><trkpt lat="43.157116" lon="12.233047"><ele>396.6</ele><time>2026-04-08T11:29:15.739Z</time></trkpt><trkpt lat="43.1570149" lon="12.2330159"><ele>397.20000000000005</ele><time>2026-04-08T11:29:17.786Z</time></trkpt><trkpt lat="43.1569497" lon="12.2331384"><ele>397.79999999999995</ele><time>2026-04-08T11:29:19.781Z</time></trkpt><trkpt lat="43.156924" lon="12.2332436"><ele>398.4</ele><time>2026-04-08T11:29:20.789Z</time></trkpt><trkpt lat="43.1569128" lon="12.2333497"><ele>399.0</ele><time>2026-04-08T11:29:21.781Z</time></trkpt><trkpt lat="43.1569028" lon="12.233465"><ele>400.1666666666667</ele><time>2026-04-08T11:29:22.783Z</time></trkpt><trkpt lat="43.1568861" lon="12.233585"><ele>401.33333333333337</ele><time>2026-04-08T11:29:23.789Z</time></trkpt><trkpt lat="43.1568674" lon="12.2337019"><ele>402.5</ele><time>2026-04-08T11:29:24.787Z</time></trkpt><trkpt lat="43.1568539" lon="12.2338087"><ele>403.6666666666667</ele><time>2026-04-08T11:29:25.791Z</time></trkpt><trkpt lat="43.1568383" lon="12.2339087"><ele>404.83333333333337</ele><time>2026-04-08T11:29:26.759Z</time></trkpt><trkpt lat="43.1568277" lon="12.2340397"><ele>406.0</ele><time>2026-04-08T11:29:28.775Z</time></trkpt><trkpt lat="43.1568346" lon="12.2341395"><ele>408.20000000000005</ele><time>2026-04-08T11:29:30.798Z</time></trkpt><trkpt lat="43.1568038" lon="12.2342572"><ele>410.40000000000003</ele><time>2026-04-08T11:29:32.734Z</time></trkpt><trkpt lat="43.1567312" lon="12.2343616"><ele>412.6</ele><time>2026-04-08T11:29:34.806Z</time></trkpt><trkpt lat="43.1566639" lon="12.2344731"><ele>414.8</ele><time>2026-04-08T11:29:36.787Z</time></trkpt><trkpt lat="43.156598" lon="12.2345996"><ele>417.0</ele><time>2026-04-08T11:29:38.781Z</time></trkpt><trkpt lat="43.1565353" lon="12.2347202"><ele>417.40000000000003</ele><time>2026-04-08T11:29:40.79Z</time></trkpt><trkpt lat="43.1564713" lon="12.234831"><ele>417.8</ele><time>2026-04-08T11:29:42.77Z</time></trkpt><trkpt lat="43.1564626" lon="12.2349877"><ele>418.2</ele><time>2026-04-08T11:29:44.791Z</time></trkpt><trkpt lat="43.156486" lon="12.2351206"><ele>418.6</ele><time>2026-04-08T11:29:46.789Z</time></trkpt><trkpt lat="43.1565271" lon="12.2352755"><ele>419.0</ele><time>2026-04-08T11:29:48.797Z</time></trkpt><trkpt lat="43.1565657" lon="12.2353612"><ele>419.49999999999994</ele><time>2026-04-08T11:29:49.798Z</time></trkpt><trkpt lat="43.1566169" lon="12.2354459"><ele>420.0</ele><time>2026-04-08T11:29:50.744Z</time></trkpt><trkpt lat="43.1566682" lon="12.2355224"><ele>420.5</ele><time>2026-04-08T11:29:51.79Z</time></trkpt><trkpt lat="43.1567236" lon="12.235604"><ele>421.0</ele><time>2026-04-08T11:29:52.791Z</time></trkpt><trkpt lat="43.1567818" lon="12.2356879"><ele>421.49999999999994</ele><time>2026-04-08T11:29:53.779Z</time></trkpt><trkpt lat="43.1568381" lon="12.2357717"><ele>422.0</ele><time>2026-04-08T11:29:54.776Z</time></trkpt><trkpt lat="43.1568906" lon="12.2358619"><ele>421.99999999999994</ele><time>2026-04-08T11:29:55.789Z</time></trkpt><trkpt lat="43.1569438" lon="12.2359607"><ele>422.0</ele><time>2026-04-08T11:29:56.797Z</time></trkpt><trkpt lat="43.1569958" lon="12.2360427"><ele>422.0</ele><time>2026-04-08T11:29:57.787Z</time></trkpt><trkpt lat="43.1570451" lon="12.2361135"><ele>422.0</ele><time>2026-04-08T11:29:58.768Z</time></trkpt><trkpt lat="43.1571031" lon="12.2361849"><ele>421.99999999999994</ele><time>2026-04-08T11:29:59.819Z</time></trkpt><trkpt lat="43.1571616" lon="12.2362386"><ele>422.0</ele><time>2026-04-08T11:30:00.802Z</time></trkpt><trkpt lat="43.1572283" lon="12.2362902"><ele>421.99999999999994</ele><time>2026-04-08T11:30:01.8Z</time></trkpt><trkpt lat="43.1572972" lon="12.2363542"><ele>422.0</ele><time>2026-04-08T11:30:02.79Z</time></trkpt><trkpt lat="43.1573579" lon="12.2364307"><ele>422.0</ele><time>2026-04-08T11:30:03.736Z</time></trkpt><trkpt lat="43.1574078" lon="12.2365091"><ele>422.0</ele><time>2026-04-08T11:30:04.793Z</time></trkpt><trkpt lat="43.1574537" lon="12.2365995"><ele>421.99999999999994</ele><time>2026-04-08T11:30:05.802Z</time></trkpt><trkpt lat="43.1574858" lon="12.2367139"><ele>422.0</ele><time>2026-04-08T11:30:06.793Z</time></trkpt><trkpt lat="43.1575254" lon="12.2368523"><ele>424.6</ele><time>2026-04-08T11:30:07.794Z</time></trkpt><trkpt lat="43.1575651" lon="12.2369817"><ele>427.20000000000005</ele><time>2026-04-08T11:30:08.799Z</time></trkpt><trkpt lat="43.1575906" lon="12.2371143"><ele>429.8</ele><time>2026-04-08T11:30:09.803Z</time></trkpt><trkpt lat="43.1576133" lon="12.2372296"><ele>432.4</ele><time>2026-04-08T11:30:10.812Z</time></trkpt><trkpt lat="43.1576455" lon="12.2373403"><ele>435.0</ele><time>2026-04-08T11:30:11.799Z</time></trkpt><trkpt lat="43.1576821" lon="12.2374366"><ele>435.8333333333333</ele><time>2026-04-08T11:30:12.795Z</time></trkpt><trkpt lat="43.1577254" lon="12.2375222"><ele>436.66666666666663</ele><time>2026-04-08T11:30:13.795Z</time></trkpt><trkpt lat="43.1577693" lon="12.2376184"><ele>437.5</ele><time>2026-04-08T11:30:14.787Z</time></trkpt><trkpt lat="43.1578269" lon="12.2377122"><ele>438.3333333333333</ele><time>2026-04-08T11:30:15.785Z</time></trkpt><trkpt lat="43.157887" lon="12.2378124"><ele>439.16666666666663</ele><time>2026-04-08T11:30:16.788Z</time></trkpt><trkpt lat="43.1579332" lon="12.2379144"><ele>440.0</ele><time>2026-04-08T11:30:17.787Z</time></trkpt><trkpt lat="43.1579695" lon="12.2380178"><ele>439.99999999999994</ele><time>2026-04-08T11:30:18.79Z</time></trkpt><trkpt lat="43.1579888" lon="12.2381108"><ele>440.0</ele><time>2026-04-08T11:30:19.78Z</time></trkpt><trkpt lat="43.1579961" lon="12.2381986"><ele>440.0</ele><time>2026-04-08T11:30:20.795Z</time></trkpt><trkpt lat="43.1579999" lon="12.2382978"><ele>440.0</ele><time>2026-04-08T11:30:21.795Z</time></trkpt><trkpt lat="43.1580119" lon="12.2383864"><ele>440.0</ele><time>2026-04-08T11:30:22.798Z</time></trkpt><trkpt lat="43.1580313" lon="12.2384818"><ele>439.99999999999994</ele><time>2026-04-08T11:30:23.791Z</time></trkpt><trkpt lat="43.1580771" lon="12.2385845"><ele>440.0</ele><time>2026-04-08T11:30:24.798Z</time></trkpt><trkpt lat="43.158134" lon="12.2386951"><ele>441.25</ele><time>2026-04-08T11:30:25.796Z</time></trkpt><trkpt lat="43.1582068" lon="12.2387999"><ele>442.5</ele><time>2026-04-08T11:30:26.799Z</time></trkpt><trkpt lat="43.1582943" lon="12.2389064"><ele>443.75</ele><time>2026-04-08T11:30:27.795Z</time></trkpt><trkpt lat="43.1583882" lon="12.239021"><ele>445.0</ele><time>2026-04-08T11:30:28.779Z</time></trkpt><trkpt lat="43.1584679" lon="12.2391456"><ele>445.75</ele><time>2026-04-08T11:30:29.781Z</time></trkpt><trkpt lat="43.158565" lon="12.2392682"><ele>446.5</ele><time>2026-04-08T11:30:30.81Z</time></trkpt><trkpt lat="43.1586583" lon="12.2393925"><ele>447.25</ele><time>2026-04-08T11:30:31.797Z</time></trkpt><trkpt lat="43.1587436" lon="12.2395015"><ele>448.0</ele><time>2026-04-08T11:30:32.809Z</time></trkpt><trkpt lat="43.1588175" lon="12.2395982"><ele>448.0</ele><time>2026-04-08T11:30:33.772Z</time></trkpt><trkpt lat="43.1588887" lon="12.2396912"><ele>447.99999999999994</ele><time>2026-04-08T11:30:34.769Z</time></trkpt><trkpt lat="43.1589611" lon="12.2397828"><ele>447.99999999999994</ele><time>2026-04-08T11:30:35.799Z</time></trkpt><trkpt lat="43.1590368" lon="12.2398754"><ele>448.0</ele><time>2026-04-08T11:30:36.788Z</time></trkpt><trkpt lat="43.1591062" lon="12.2399549"><ele>448.0</ele><time>2026-04-08T11:30:37.804Z</time></trkpt><trkpt lat="43.1591648" lon="12.2400225"><ele>449.33333333333337</ele><time>2026-04-08T11:30:38.802Z</time></trkpt><trkpt lat="43.1592145" lon="12.2400919"><ele>450.6666666666667</ele><time>2026-04-08T11:30:39.769Z</time></trkpt><trkpt lat="43.1592625" lon="12.240157"><ele>452.0</ele><time>2026-04-08T11:30:40.799Z</time></trkpt><trkpt lat="43.1593214" lon="12.240282"><ele>453.33333333333337</ele><time>2026-04-08T11:30:42.758Z</time></trkpt><trkpt lat="43.1593328" lon="12.2404533"><ele>454.6666666666667</ele><time>2026-04-08T11:30:44.783Z</time></trkpt><trkpt lat="43.1593303" lon="12.2405457"><ele>456.0</ele><time>2026-04-08T11:30:45.789Z</time></trkpt><trkpt lat="43.1593253" lon="12.2406374"><ele>457.4</ele><time>2026-04-08T11:30:46.798Z</time></trkpt><trkpt lat="43.1592772" lon="12.2407833"><ele>458.8</ele><time>2026-04-08T11:30:48.801Z</time></trkpt><trkpt lat="43.1591847" lon="12.2409042"><ele>460.19999999999993</ele><time>2026-04-08T11:30:50.772Z</time></trkpt><trkpt lat="43.1591259" lon="12.2409618"><ele>461.59999999999997</ele><time>2026-04-08T11:30:51.754Z</time></trkpt><trkpt lat="43.1590723" lon="12.2410235"><ele>463.0</ele><time>2026-04-08T11:30:52.79Z</time></trkpt><trkpt lat="43.1590027" lon="12.2411485"><ele>464.50000000000006</ele><time>2026-04-08T11:30:54.8Z</time></trkpt><trkpt lat="43.158995" lon="12.2413177"><ele>466.0</ele><time>2026-04-08T11:30:56.804Z</time></trkpt><trkpt lat="43.1590199" lon="12.2414131"><ele>467.5</ele><time>2026-04-08T11:30:57.762Z</time></trkpt><trkpt lat="43.1590489" lon="12.2415093"><ele>469.0</ele><time>2026-04-08T11:30:58.816Z</time></trkpt><trkpt lat="43.1590746" lon="12.2416076"><ele>470.50000000000006</ele><time>2026-04-08T11:30:59.786Z</time></trkpt><trkpt lat="43.1590982" lon="12.2416964"><ele>472.0</ele><time>2026-04-08T11:31:00.789Z</time></trkpt><trkpt lat="43.1591232" lon="12.2417897"><ele>472.00000000000006</ele><time>2026-04-08T11:31:01.801Z</time></trkpt><trkpt lat="43.1591505" lon="12.2418781"><ele>472.0</ele><time>2026-04-08T11:31:02.785Z</time></trkpt><trkpt lat="43.1591859" lon="12.2419681"><ele>472.0</ele><time>2026-04-08T11:31:03.796Z</time></trkpt><trkpt lat="43.1592233" lon="12.2420663"><ele>472.0</ele><time>2026-04-08T11:31:04.787Z</time></trkpt><trkpt lat="43.1592599" lon="12.2421708"><ele>472.00000000000006</ele><time>2026-04-08T11:31:05.794Z</time></trkpt><trkpt lat="43.1592891" lon="12.2422765"><ele>472.0</ele><time>2026-04-08T11:31:06.802Z</time></trkpt><trkpt lat="43.1593129" lon="12.2423833"><ele>473.33333333333337</ele><time>2026-04-08T11:31:07.788Z</time></trkpt><trkpt lat="43.1593373" lon="12.2424955"><ele>474.6666666666667</ele><time>2026-04-08T11:31:08.809Z</time></trkpt><trkpt lat="43.1593574" lon="12.2426087"><ele>476.0</ele><time>2026-04-08T11:31:09.756Z</time></trkpt><trkpt lat="43.1593768" lon="12.2427236"><ele>477.33333333333337</ele><time>2026-04-08T11:31:10.769Z</time></trkpt><trkpt lat="43.1593981" lon="12.2428358"><ele>478.6666666666667</ele><time>2026-04-08T11:31:11.771Z</time></trkpt><trkpt lat="43.1594235" lon="12.2429378"><ele>480.0</ele><time>2026-04-08T11:31:12.785Z</time></trkpt><trkpt lat="43.1594613" lon="12.2430213"><ele>480.0</ele><time>2026-04-08T11:31:13.734Z</time></trkpt><trkpt lat="43.1594941" lon="12.2431076"><ele>480.0</ele><time>2026-04-08T11:31:14.778Z</time></trkpt><trkpt lat="43.1595369" lon="12.2431979"><ele>480.0</ele><time>2026-04-08T11:31:15.776Z</time></trkpt><trkpt lat="43.1595762" lon="12.2432887"><ele>480.0</ele><time>2026-04-08T11:31:16.773Z</time></trkpt><trkpt lat="43.1596123" lon="12.2433781"><ele>480.0</ele><time>2026-04-08T11:31:17.77Z</time></trkpt><trkpt lat="43.1596403" lon="12.2434578"><ele>480.0</ele><time>2026-04-08T11:31:18.787Z</time></trkpt><trkpt lat="43.1596657" lon="12.243542"><ele>480.0</ele><time>2026-04-08T11:31:19.784Z</time></trkpt><trkpt lat="43.1597214" lon="12.2437068"><ele>482.3333333333333</ele><time>2026-04-08T11:31:21.789Z</time></trkpt><trkpt lat="43.1597469" lon="12.2438022"><ele>484.66666666666663</ele><time>2026-04-08T11:31:22.773Z</time></trkpt><trkpt lat="43.1597687" lon="12.2438914"><ele>487.0</ele><time>2026-04-08T11:31:23.814Z</time></trkpt><trkpt lat="43.1597895" lon="12.2439769"><ele>489.3333333333333</ele><time>2026-04-08T11:31:24.794Z</time></trkpt><trkpt lat="43.1598334" lon="12.244115"><ele>491.66666666666663</ele><time>2026-04-08T11:31:26.817Z</time></trkpt><trkpt lat="43.1598418" lon="12.244246"><ele>494.0</ele><time>2026-04-08T11:31:28.797Z</time></trkpt><trkpt lat="43.1598099" lon="12.2443428"><ele>495.49999999999994</ele><time>2026-04-08T11:31:30.792Z</time></trkpt><trkpt lat="43.15978" lon="12.2442663"><ele>497.0</ele><time>2026-04-08T11:32:15.784Z</time></trkpt><trkpt lat="43.15984" lon="12.2442257"><ele>498.5</ele><time>2026-04-08T11:35:45.788Z</time></trkpt><trkpt lat="43.1598976" lon="12.2443659"><ele>500.0</ele><time>2026-04-08T11:35:48.773Z</time></trkpt><trkpt lat="43.1599482" lon="12.2445228"><ele>501.49999999999994</ele><time>2026-04-08T11:35:50.771Z</time></trkpt><trkpt lat="43.1599728" lon="12.2446147"><ele>503.0</ele><time>2026-04-08T11:35:51.785Z</time></trkpt><trkpt lat="43.1600075" lon="12.2447074"><ele>503.59999999999997</ele><time>2026-04-08T11:35:52.792Z</time></trkpt><trkpt lat="43.1600365" lon="12.244794"><ele>504.19999999999993</ele><time>2026-04-08T11:35:53.771Z</time></trkpt><trkpt lat="43.160056" lon="12.2448882"><ele>504.8</ele><time>2026-04-08T11:35:54.812Z</time></trkpt><trkpt lat="43.1600686" lon="12.2450612"><ele>505.4</ele><time>2026-04-08T11:35:56.801Z</time></trkpt><trkpt lat="43.1600653" lon="12.2451525"><ele>506.0</ele><time>2026-04-08T11:35:57.789Z</time></trkpt><trkpt lat="43.1600358" lon="12.2453272"><ele>506.4285714285715</ele><time>2026-04-08T11:35:59.776Z</time></trkpt><trkpt lat="43.1600175" lon="12.2454131"><ele>506.8571428571429</ele><time>2026-04-08T11:36:00.779Z</time></trkpt><trkpt lat="43.1599914" lon="12.2455139"><ele>507.2857142857143</ele><time>2026-04-08T11:36:01.782Z</time></trkpt><trkpt lat="43.1599773" lon="12.2456081"><ele>507.7142857142857</ele><time>2026-04-08T11:36:02.783Z</time></trkpt><trkpt lat="43.1599667" lon="12.2457119"><ele>508.1428571428571</ele><time>2026-04-08T11:36:03.762Z</time></trkpt><trkpt lat="43.1599561" lon="12.2458083"><ele>508.5714285714285</ele><time>2026-04-08T11:36:04.785Z</time></trkpt><trkpt lat="43.1599584" lon="12.2459026"><ele>508.99999999999994</ele><time>2026-04-08T11:36:05.814Z</time></trkpt><trkpt lat="43.1599944" lon="12.2460609"><ele>508.99999999999994</ele><time>2026-04-08T11:36:07.762Z</time></trkpt><trkpt lat="43.1600309" lon="12.2461334"><ele>509.0</ele><time>2026-04-08T11:36:08.752Z</time></trkpt><trkpt lat="43.1600879" lon="12.2462218"><ele>508.99999999999994</ele><time>2026-04-08T11:36:09.776Z</time></trkpt><trkpt lat="43.1601461" lon="12.2462982"><ele>508.99999999999994</ele><time>2026-04-08T11:36:10.744Z</time></trkpt><trkpt lat="43.1602044" lon="12.2463655"><ele>509.0</ele><time>2026-04-08T11:36:11.782Z</time></trkpt><trkpt lat="43.1602549" lon="12.2464208"><ele>508.99999999999994</ele><time>2026-04-08T11:36:12.772Z</time></trkpt><trkpt lat="43.1603092" lon="12.2464771"><ele>508.99999999999994</ele><time>2026-04-08T11:36:13.742Z</time></trkpt><trkpt lat="43.1603855" lon="12.2465733"><ele>509.49999999999994</ele><time>2026-04-08T11:36:15.773Z</time></trkpt><trkpt lat="43.1604647" lon="12.2466955"><ele>510.0</ele><time>2026-04-08T11:36:17.788Z</time></trkpt><trkpt lat="43.1605078" lon="12.2467709"><ele>510.5</ele><time>2026-04-08T11:36:18.783Z</time></trkpt><trkpt lat="43.1605513" lon="12.2468441"><ele>511.0</ele><time>2026-04-08T11:36:19.779Z</time></trkpt><trkpt lat="43.1605899" lon="12.2469177"><ele>511.49999999999994</ele><time>2026-04-08T11:36:20.765Z</time></trkpt><trkpt lat="43.1606203" lon="12.2469969"><ele>512.0</ele><time>2026-04-08T11:36:21.791Z</time></trkpt><trkpt lat="43.1606452" lon="12.2470802"><ele>508.6</ele><time>2026-04-08T11:36:22.79Z</time></trkpt><trkpt lat="43.1606998" lon="12.2472435"><ele>505.20000000000005</ele><time>2026-04-08T11:36:24.779Z</time></trkpt><trkpt lat="43.1607294" lon="12.2473253"><ele>501.8</ele><time>2026-04-08T11:36:25.781Z</time></trkpt><trkpt lat="43.1607675" lon="12.2474074"><ele>498.4</ele><time>2026-04-08T11:36:26.789Z</time></trkpt><trkpt lat="43.1608091" lon="12.2474762"><ele>495.0</ele><time>2026-04-08T11:36:27.811Z</time></trkpt><trkpt lat="43.1608957" lon="12.2475883"><ele>495.0</ele><time>2026-04-08T11:36:29.781Z</time></trkpt><trkpt lat="43.1610097" lon="12.2476424"><ele>495.0</ele><time>2026-04-08T11:36:31.787Z</time></trkpt><trkpt lat="43.1610811" lon="12.2476777"><ele>495.0</ele><time>2026-04-08T11:36:32.734Z</time></trkpt><trkpt lat="43.1611516" lon="12.2477158"><ele>495.0</ele><time>2026-04-08T11:36:33.78Z</time></trkpt><trkpt lat="43.1612254" lon="12.2477685"><ele>495.0</ele><time>2026-04-08T11:36:34.754Z</time></trkpt><trkpt lat="43.1612948" lon="12.2478246"><ele>495.0</ele><time>2026-04-08T11:36:35.782Z</time></trkpt><trkpt lat="43.1613582" lon="12.2478886"><ele>495.0</ele><time>2026-04-08T11:36:36.785Z</time></trkpt><trkpt lat="43.1614168" lon="12.2479428"><ele>495.0</ele><time>2026-04-08T11:36:37.773Z</time></trkpt><trkpt lat="43.1614765" lon="12.247998"><ele>495.0</ele><time>2026-04-08T11:36:38.796Z</time></trkpt><trkpt lat="43.1615309" lon="12.2480585"><ele>495.0</ele><time>2026-04-08T11:36:39.756Z</time></trkpt><trkpt lat="43.1615714" lon="12.2481336"><ele>495.0</ele><time>2026-04-08T11:36:40.793Z</time></trkpt><trkpt lat="43.1616002" lon="12.2482174"><ele>495.0</ele><time>2026-04-08T11:36:41.777Z</time></trkpt><trkpt lat="43.1615983" lon="12.2483717"><ele>494.6666666666667</ele><time>2026-04-08T11:36:43.777Z</time></trkpt><trkpt lat="43.1616191" lon="12.2484836"><ele>494.33333333333337</ele><time>2026-04-08T11:36:45.776Z</time></trkpt><trkpt lat="43.1616508" lon="12.2485615"><ele>494.0</ele><time>2026-04-08T11:36:46.796Z</time></trkpt><trkpt lat="43.161681" lon="12.2486491"><ele>493.6666666666667</ele><time>2026-04-08T11:36:47.784Z</time></trkpt><trkpt lat="43.1617098" lon="12.248751"><ele>493.33333333333337</ele><time>2026-04-08T11:36:48.796Z</time></trkpt><trkpt lat="43.1617379" lon="12.2488675"><ele>493.0</ele><time>2026-04-08T11:36:49.777Z</time></trkpt><trkpt lat="43.1617735" lon="12.2489677"><ele>494.1666666666667</ele><time>2026-04-08T11:36:50.723Z</time></trkpt><trkpt lat="43.1618049" lon="12.2490772"><ele>495.33333333333337</ele><time>2026-04-08T11:36:51.791Z</time></trkpt><trkpt lat="43.1618261" lon="12.2491845"><ele>496.5</ele><time>2026-04-08T11:36:52.778Z</time></trkpt><trkpt lat="43.1618352" lon="12.2492857"><ele>497.66666666666663</ele><time>2026-04-08T11:36:53.785Z</time></trkpt><trkpt lat="43.1618172" lon="12.249422"><ele>498.8333333333333</ele><time>2026-04-08T11:36:55.783Z</time></trkpt><trkpt lat="43.1617493" lon="12.2495171"><ele>500.0</ele><time>2026-04-08T11:36:57.758Z</time></trkpt><trkpt lat="43.161672" lon="12.2495507"><ele>500.0</ele><time>2026-04-08T11:37:00.752Z</time></trkpt><trkpt lat="43.1616228" lon="12.24961"><ele>500.0</ele><time>2026-04-08T11:37:03.779Z</time></trkpt><trkpt lat="43.1616116" lon="12.2497042"><ele>500.0</ele><time>2026-04-08T11:37:12.808Z</time></trkpt><trkpt lat="43.1616238" lon="12.2497911"><ele>500.0</ele><time>2026-04-08T11:37:16.803Z</time></trkpt><trkpt lat="43.1616851" lon="12.2497702"><ele>500.0</ele><time>2026-04-08T11:37:24.777Z</time></trkpt><trkpt lat="43.1617545" lon="12.2497158"><ele>500.0</ele><time>2026-04-08T11:37:36.77Z</time></trkpt><trkpt lat="43.1618239" lon="12.2496907"><ele>500.0</ele><time>2026-04-08T11:37:48.762Z</time></trkpt><trkpt lat="43.1617631" lon="12.2497533"><ele>500.0</ele><time>2026-04-08T11:39:15.803Z</time></trkpt><trkpt lat="43.1616921" lon="12.2497165"><ele>500.0</ele><time>2026-04-08T11:39:32.775Z</time></trkpt><trkpt lat="43.1616382" lon="12.2496597"><ele>500.0</ele><time>2026-04-08T11:39:45.779Z</time></trkpt><trkpt lat="43.1615941" lon="12.2497364"><ele>500.0</ele><time>2026-04-08T11:39:56.785Z</time></trkpt><trkpt lat="43.1616583" lon="12.24974"><ele>500.0</ele><time>2026-04-08T11:41:23.769Z</time></trkpt><trkpt lat="43.1617264" lon="12.2497298"><ele>500.0</ele><time>2026-04-08T11:41:31.758Z</time></trkpt><trkpt lat="43.1617826" lon="12.2496771"><ele>500.0</ele><time>2026-04-08T11:41:55.743Z</time></trkpt><trkpt lat="43.1618656" lon="12.249696"><ele>499.99999999999994</ele><time>2026-04-08T11:42:54.754Z</time></trkpt><trkpt lat="43.1619434" lon="12.2497364"><ele>500.0</ele><time>2026-04-08T11:42:58.752Z</time></trkpt><trkpt lat="43.1620258" lon="12.2497677"><ele>500.0</ele><time>2026-04-08T11:43:01.776Z</time></trkpt><trkpt lat="43.1621102" lon="12.2498337"><ele>500.0</ele><time>2026-04-08T11:43:03.74Z</time></trkpt><trkpt lat="43.1622039" lon="12.2498536"><ele>499.99999999999994</ele><time>2026-04-08T11:43:05.741Z</time></trkpt><trkpt lat="43.1622909" lon="12.2498465"><ele>500.0</ele><time>2026-04-08T11:43:07.788Z</time></trkpt><trkpt lat="43.1623556" lon="12.2498391"><ele>500.1428571428571</ele><time>2026-04-08T11:43:09.756Z</time></trkpt><trkpt lat="43.1624326" lon="12.2498047"><ele>500.28571428571433</ele><time>2026-04-08T11:43:12.799Z</time></trkpt><trkpt lat="43.162499" lon="12.2497575"><ele>500.42857142857144</ele><time>2026-04-08T11:43:15.744Z</time></trkpt><trkpt lat="43.1625191" lon="12.2496715"><ele>500.57142857142856</ele><time>2026-04-08T11:44:04.779Z</time></trkpt><trkpt lat="43.1625407" lon="12.2497571"><ele>500.71428571428567</ele><time>2026-04-08T11:44:51.732Z</time></trkpt><trkpt lat="43.1625816" lon="12.2498381"><ele>500.8571428571429</ele><time>2026-04-08T11:44:57.76Z</time></trkpt><trkpt lat="43.1626425" lon="12.2498869"><ele>501.0</ele><time>2026-04-08T11:45:03.764Z</time></trkpt><trkpt lat="43.1626798" lon="12.2499579"><ele>501.0</ele><time>2026-04-08T11:45:14.762Z</time></trkpt><trkpt lat="43.1626453" lon="12.2498849"><ele>501.0</ele><time>2026-04-08T11:46:23.744Z</time></trkpt><trkpt lat="43.1625886" lon="12.2498246"><ele>501.0</ele><time>2026-04-08T11:46:31.731Z</time></trkpt><trkpt lat="43.1625412" lon="12.2497577"><ele>501.0</ele><time>2026-04-08T11:46:38.783Z</time></trkpt><trkpt lat="43.1625057" lon="12.2498458"><ele>501.0</ele><time>2026-04-08T11:47:49.733Z</time></trkpt><trkpt lat="43.1625288" lon="12.2499472"><ele>501.0</ele><time>2026-04-08T11:47:53.775Z</time></trkpt><trkpt lat="43.1626796" lon="12.2501401"><ele>501.0</ele><time>2026-04-08T11:48:06.792Z</time></trkpt><trkpt lat="43.1627348" lon="12.2502031"><ele>501.0</ele><time>2026-04-08T11:48:07.758Z</time></trkpt><trkpt lat="43.1628197" lon="12.2503121"><ele>501.0</ele><time>2026-04-08T11:48:09.728Z</time></trkpt><trkpt lat="43.1628924" lon="12.2503838"><ele>501.0</ele><time>2026-04-08T11:48:11.799Z</time></trkpt><trkpt lat="43.1629505" lon="12.2504406"><ele>501.0</ele><time>2026-04-08T11:48:13.757Z</time></trkpt><trkpt lat="43.16303" lon="12.2505125"><ele>501.0</ele><time>2026-04-08T11:48:16.762Z</time></trkpt><trkpt lat="43.1631135" lon="12.2505568"><ele>499.6666666666667</ele><time>2026-04-08T11:48:19.723Z</time></trkpt><trkpt lat="43.1631994" lon="12.2505352"><ele>498.33333333333337</ele><time>2026-04-08T11:48:21.724Z</time></trkpt><trkpt lat="43.1632858" lon="12.2504692"><ele>497.0</ele><time>2026-04-08T11:48:23.773Z</time></trkpt><trkpt lat="43.1633524" lon="12.25039"><ele>495.6666666666667</ele><time>2026-04-08T11:48:25.776Z</time></trkpt><trkpt lat="43.1633949" lon="12.2503154"><ele>494.33333333333337</ele><time>2026-04-08T11:48:27.799Z</time></trkpt><trkpt lat="43.1634343" lon="12.2502463"><ele>493.0</ele><time>2026-04-08T11:48:29.79Z</time></trkpt><trkpt lat="43.1634772" lon="12.2501767"><ele>493.00000000000006</ele><time>2026-04-08T11:48:31.774Z</time></trkpt><trkpt lat="43.1635432" lon="12.2501226"><ele>493.0</ele><time>2026-04-08T11:48:33.726Z</time></trkpt><trkpt lat="43.163609" lon="12.2500565"><ele>493.0</ele><time>2026-04-08T11:48:35.778Z</time></trkpt><trkpt lat="43.1636875" lon="12.2500204"><ele>493.0</ele><time>2026-04-08T11:48:37.779Z</time></trkpt><trkpt lat="43.163766" lon="12.2499855"><ele>493.00000000000006</ele><time>2026-04-08T11:48:39.79Z</time></trkpt><trkpt lat="43.1638343" lon="12.2499271"><ele>493.0</ele><time>2026-04-08T11:48:41.764Z</time></trkpt><trkpt lat="43.1638886" lon="12.2498757"><ele>493.00000000000006</ele><time>2026-04-08T11:48:43.775Z</time></trkpt><trkpt lat="43.1639479" lon="12.249837"><ele>493.0</ele><time>2026-04-08T11:48:45.736Z</time></trkpt><trkpt lat="43.1640319" lon="12.2498114"><ele>493.0</ele><time>2026-04-08T11:48:47.769Z</time></trkpt><trkpt lat="43.1641303" lon="12.249772"><ele>493.0</ele><time>2026-04-08T11:48:49.793Z</time></trkpt><trkpt lat="43.1642125" lon="12.2497421"><ele>493.00000000000006</ele><time>2026-04-08T11:48:51.784Z</time></trkpt><trkpt lat="43.1642901" lon="12.2497004"><ele>493.0</ele><time>2026-04-08T11:48:53.755Z</time></trkpt><trkpt lat="43.1643548" lon="12.2496692"><ele>489.1666666666667</ele><time>2026-04-08T11:48:55.798Z</time></trkpt><trkpt lat="43.164447" lon="12.2496381"><ele>485.33333333333337</ele><time>2026-04-08T11:48:57.797Z</time></trkpt><trkpt lat="43.1645188" lon="12.2496338"><ele>481.5</ele><time>2026-04-08T11:48:59.792Z</time></trkpt><trkpt lat="43.1645992" lon="12.2496583"><ele>477.66666666666663</ele><time>2026-04-08T11:49:01.766Z</time></trkpt><trkpt lat="43.1647092" lon="12.2496877"><ele>473.8333333333333</ele><time>2026-04-08T11:49:03.781Z</time></trkpt><trkpt lat="43.1647725" lon="12.2497067"><ele>470.0</ele><time>2026-04-08T11:49:04.798Z</time></trkpt><trkpt lat="43.1648376" lon="12.2497229"><ele>468.8333333333333</ele><time>2026-04-08T11:49:05.802Z</time></trkpt><trkpt lat="43.1649061" lon="12.2497272"><ele>467.66666666666663</ele><time>2026-04-08T11:49:06.789Z</time></trkpt><trkpt lat="43.1649805" lon="12.2497189"><ele>466.5</ele><time>2026-04-08T11:49:07.778Z</time></trkpt><trkpt lat="43.1650499" lon="12.2497122"><ele>465.33333333333337</ele><time>2026-04-08T11:49:08.797Z</time></trkpt><trkpt lat="43.1651128" lon="12.2497044"><ele>464.1666666666667</ele><time>2026-04-08T11:49:09.781Z</time></trkpt><trkpt lat="43.1652244" lon="12.249687"><ele>463.0</ele><time>2026-04-08T11:49:11.793Z</time></trkpt><trkpt lat="43.1653239" lon="12.2496412"><ele>463.0</ele><time>2026-04-08T11:49:13.774Z</time></trkpt><trkpt lat="43.1654239" lon="12.2495466"><ele>462.99999999999994</ele><time>2026-04-08T11:49:15.774Z</time></trkpt><trkpt lat="43.1654712" lon="12.2494886"><ele>462.99999999999994</ele><time>2026-04-08T11:49:16.78Z</time></trkpt><trkpt lat="43.1655306" lon="12.2494284"><ele>463.0</ele><time>2026-04-08T11:49:17.799Z</time></trkpt><trkpt lat="43.1655777" lon="12.2493683"><ele>463.0</ele><time>2026-04-08T11:49:18.798Z</time></trkpt><trkpt lat="43.1656605" lon="12.2492348"><ele>464.2</ele><time>2026-04-08T11:49:20.789Z</time></trkpt><trkpt lat="43.1657078" lon="12.2491554"><ele>465.4</ele><time>2026-04-08T11:49:21.785Z</time></trkpt><trkpt lat="43.1657802" lon="12.2490333"><ele>466.59999999999997</ele><time>2026-04-08T11:49:23.795Z</time></trkpt><trkpt lat="43.1658592" lon="12.2489239"><ele>467.79999999999995</ele><time>2026-04-08T11:49:25.779Z</time></trkpt><trkpt lat="43.1659286" lon="12.2488219"><ele>469.0</ele><time>2026-04-08T11:49:27.798Z</time></trkpt><trkpt lat="43.165971" lon="12.2487421"><ele>466.6</ele><time>2026-04-08T11:49:29.803Z</time></trkpt><trkpt lat="43.1660191" lon="12.2486798"><ele>464.2</ele><time>2026-04-08T11:49:31.785Z</time></trkpt><trkpt lat="43.1660755" lon="12.2486175"><ele>461.80000000000007</ele><time>2026-04-08T11:49:34.763Z</time></trkpt><trkpt lat="43.1661412" lon="12.2485526"><ele>459.40000000000003</ele><time>2026-04-08T11:49:38.791Z</time></trkpt><trkpt lat="43.1662389" lon="12.2484799"><ele>457.0</ele><time>2026-04-08T11:49:40.78Z</time></trkpt><trkpt lat="43.1663417" lon="12.2483951"><ele>457.0</ele><time>2026-04-08T11:49:42.79Z</time></trkpt><trkpt lat="43.166452" lon="12.2483274"><ele>457.00000000000006</ele><time>2026-04-08T11:49:44.784Z</time></trkpt><trkpt lat="43.1665097" lon="12.248291"><ele>457.00000000000006</ele><time>2026-04-08T11:49:45.8Z</time></trkpt><trkpt lat="43.1666267" lon="12.2482231"><ele>457.0</ele><time>2026-04-08T11:49:47.767Z</time></trkpt><trkpt lat="43.1667417" lon="12.2481733"><ele>457.0</ele><time>2026-04-08T11:49:49.784Z</time></trkpt><trkpt lat="43.1668504" lon="12.2481253"><ele>458.20000000000005</ele><time>2026-04-08T11:49:51.791Z</time></trkpt><trkpt lat="43.166951" lon="12.2481093"><ele>459.40000000000003</ele><time>2026-04-08T11:49:53.783Z</time></trkpt><trkpt lat="43.1670496" lon="12.2481206"><ele>460.59999999999997</ele><time>2026-04-08T11:49:55.779Z</time></trkpt><trkpt lat="43.1671582" lon="12.2481532"><ele>461.79999999999995</ele><time>2026-04-08T11:49:57.794Z</time></trkpt><trkpt lat="43.1672791" lon="12.2481485"><ele>463.0</ele><time>2026-04-08T11:49:59.734Z</time></trkpt><trkpt lat="43.1673503" lon="12.2481308"><ele>462.83333333333337</ele><time>2026-04-08T11:50:00.77Z</time></trkpt><trkpt lat="43.1674188" lon="12.2481149"><ele>462.6666666666667</ele><time>2026-04-08T11:50:01.784Z</time></trkpt><trkpt lat="43.1674831" lon="12.2481182"><ele>462.5</ele><time>2026-04-08T11:50:02.778Z</time></trkpt><trkpt lat="43.1675465" lon="12.2481185"><ele>462.33333333333337</ele><time>2026-04-08T11:50:03.765Z</time></trkpt><trkpt lat="43.1676448" lon="12.2481854"><ele>462.1666666666667</ele><time>2026-04-08T11:50:05.775Z</time></trkpt><trkpt lat="43.1676985" lon="12.2482844"><ele>462.0</ele><time>2026-04-08T11:50:07.779Z</time></trkpt><trkpt lat="43.1677739" lon="12.2483832"><ele>462.0</ele><time>2026-04-08T11:50:09.783Z</time></trkpt><trkpt lat="43.1678809" lon="12.2485028"><ele>462.0</ele><time>2026-04-08T11:50:11.78Z</time></trkpt><trkpt lat="43.1679347" lon="12.2485606"><ele>462.0</ele><time>2026-04-08T11:50:12.792Z</time></trkpt><trkpt lat="43.1679888" lon="12.2486285"><ele>462.0</ele><time>2026-04-08T11:50:13.783Z</time></trkpt><trkpt lat="43.1680437" lon="12.2487023"><ele>462.0</ele><time>2026-04-08T11:50:14.807Z</time></trkpt><trkpt lat="43.1680919" lon="12.2487926"><ele>462.0</ele><time>2026-04-08T11:50:15.786Z</time></trkpt><trkpt lat="43.1681455" lon="12.2488789"><ele>462.0</ele><time>2026-04-08T11:50:16.779Z</time></trkpt><trkpt lat="43.1681936" lon="12.2489627"><ele>462.0</ele><time>2026-04-08T11:50:17.801Z</time></trkpt><trkpt lat="43.1682462" lon="12.249043"><ele>462.0</ele><time>2026-04-08T11:50:18.79Z</time></trkpt><trkpt lat="43.1682885" lon="12.2491277"><ele>462.0</ele><time>2026-04-08T11:50:19.752Z</time></trkpt><trkpt lat="43.1683263" lon="12.2492034"><ele>462.0</ele><time>2026-04-08T11:50:20.765Z</time></trkpt><trkpt lat="43.1683657" lon="12.2492813"><ele>462.0</ele><time>2026-04-08T11:50:21.783Z</time></trkpt><trkpt lat="43.168413" lon="12.2493494"><ele>462.0</ele><time>2026-04-08T11:50:22.779Z</time></trkpt><trkpt lat="43.1684633" lon="12.2494083"><ele>462.0</ele><time>2026-04-08T11:50:23.777Z</time></trkpt><trkpt lat="43.1685592" lon="12.2494664"><ele>462.00000000000006</ele><time>2026-04-08T11:50:25.776Z</time></trkpt><trkpt lat="43.1686519" lon="12.2495673"><ele>462.00000000000006</ele><time>2026-04-08T11:50:27.765Z</time></trkpt><trkpt lat="43.1687147" lon="12.2496971"><ele>462.0</ele><time>2026-04-08T11:50:29.783Z</time></trkpt><trkpt lat="43.1687746" lon="12.2497968"><ele>462.0</ele><time>2026-04-08T11:50:31.791Z</time></trkpt><trkpt lat="43.1688536" lon="12.2498844"><ele>462.20000000000005</ele><time>2026-04-08T11:50:33.78Z</time></trkpt><trkpt lat="43.1689055" lon="12.2500071"><ele>462.40000000000003</ele><time>2026-04-08T11:50:35.802Z</time></trkpt><trkpt lat="43.1689442" lon="12.2501403"><ele>462.59999999999997</ele><time>2026-04-08T11:50:37.78Z</time></trkpt><trkpt lat="43.1690171" lon="12.2502749"><ele>462.79999999999995</ele><time>2026-04-08T11:50:39.796Z</time></trkpt><trkpt lat="43.1690709" lon="12.2503401"><ele>463.0</ele><time>2026-04-08T11:50:40.787Z</time></trkpt><trkpt lat="43.1691316" lon="12.2503961"><ele>463.0</ele><time>2026-04-08T11:50:41.78Z</time></trkpt><trkpt lat="43.1691898" lon="12.2504517"><ele>462.99999999999994</ele><time>2026-04-08T11:50:42.776Z</time></trkpt><trkpt lat="43.1692458" lon="12.250505"><ele>463.0</ele><time>2026-04-08T11:50:43.758Z</time></trkpt><trkpt lat="43.1692924" lon="12.2505631"><ele>463.0</ele><time>2026-04-08T11:50:44.791Z</time></trkpt><trkpt lat="43.1693389" lon="12.2506231"><ele>462.99999999999994</ele><time>2026-04-08T11:50:45.776Z</time></trkpt><trkpt lat="43.169382" lon="12.2506892"><ele>463.0</ele><time>2026-04-08T11:50:46.733Z</time></trkpt><trkpt lat="43.1694252" lon="12.2507668"><ele>463.0</ele><time>2026-04-08T11:50:47.764Z</time></trkpt><trkpt lat="43.1694679" lon="12.250848"><ele>461.1666666666667</ele><time>2026-04-08T11:50:48.778Z</time></trkpt><trkpt lat="43.1695155" lon="12.2509269"><ele>459.33333333333337</ele><time>2026-04-08T11:50:49.76Z</time></trkpt><trkpt lat="43.1695627" lon="12.2509996"><ele>457.5</ele><time>2026-04-08T11:50:50.777Z</time></trkpt><trkpt lat="43.1696196" lon="12.2510685"><ele>455.66666666666663</ele><time>2026-04-08T11:50:51.795Z</time></trkpt><trkpt lat="43.1696807" lon="12.2511324"><ele>453.8333333333333</ele><time>2026-04-08T11:50:52.774Z</time></trkpt><trkpt lat="43.1697434" lon="12.2512001"><ele>452.0</ele><time>2026-04-08T11:50:53.774Z</time></trkpt><trkpt lat="43.1698062" lon="12.2512478"><ele>450.5714285714286</ele><time>2026-04-08T11:50:54.784Z</time></trkpt><trkpt lat="43.1698749" lon="12.2512899"><ele>449.1428571428571</ele><time>2026-04-08T11:50:55.791Z</time></trkpt><trkpt lat="43.1699433" lon="12.251327"><ele>447.7142857142857</ele><time>2026-04-08T11:50:56.777Z</time></trkpt><trkpt lat="43.1700032" lon="12.2513669"><ele>446.28571428571433</ele><time>2026-04-08T11:50:57.784Z</time></trkpt><trkpt lat="43.1700682" lon="12.2514173"><ele>444.8571428571429</ele><time>2026-04-08T11:50:58.772Z</time></trkpt><trkpt lat="43.1701303" lon="12.2514527"><ele>443.42857142857144</ele><time>2026-04-08T11:50:59.777Z</time></trkpt><trkpt lat="43.1701907" lon="12.2514878"><ele>442.0</ele><time>2026-04-08T11:51:00.775Z</time></trkpt><trkpt lat="43.1702521" lon="12.2515213"><ele>442.00000000000006</ele><time>2026-04-08T11:51:01.793Z</time></trkpt><trkpt lat="43.1703095" lon="12.2515644"><ele>442.0</ele><time>2026-04-08T11:51:02.779Z</time></trkpt><trkpt lat="43.1703903" lon="12.2516985"><ele>442.0</ele><time>2026-04-08T11:51:04.781Z</time></trkpt><trkpt lat="43.1704226" lon="12.2517828"><ele>442.0</ele><time>2026-04-08T11:51:05.778Z</time></trkpt><trkpt lat="43.1704447" lon="12.2518963"><ele>442.00000000000006</ele><time>2026-04-08T11:51:06.795Z</time></trkpt><trkpt lat="43.1704617" lon="12.2520068"><ele>442.0</ele><time>2026-04-08T11:51:07.779Z</time></trkpt><trkpt lat="43.1704753" lon="12.252116"><ele>442.0</ele><time>2026-04-08T11:51:08.793Z</time></trkpt><trkpt lat="43.1704961" lon="12.2522231"><ele>442.00000000000006</ele><time>2026-04-08T11:51:09.786Z</time></trkpt><trkpt lat="43.170524" lon="12.2523758"><ele>442.00000000000006</ele><time>2026-04-08T11:51:11.792Z</time></trkpt><trkpt lat="43.1705365" lon="12.252521"><ele>442.0</ele><time>2026-04-08T11:51:13.738Z</time></trkpt><trkpt lat="43.1705245" lon="12.2526721"><ele>442.0</ele><time>2026-04-08T11:51:15.729Z</time></trkpt><trkpt lat="43.1705313" lon="12.2527705"><ele>442.50000000000006</ele><time>2026-04-08T11:51:16.755Z</time></trkpt><trkpt lat="43.1705587" lon="12.2528721"><ele>443.0</ele><time>2026-04-08T11:51:17.773Z</time></trkpt><trkpt lat="43.1705913" lon="12.2529748"><ele>443.5</ele><time>2026-04-08T11:51:18.782Z</time></trkpt><trkpt lat="43.1706363" lon="12.2530718"><ele>444.0</ele><time>2026-04-08T11:51:19.79Z</time></trkpt><trkpt lat="43.1706792" lon="12.2531834"><ele>444.50000000000006</ele><time>2026-04-08T11:51:20.773Z</time></trkpt><trkpt lat="43.1707225" lon="12.2532862"><ele>445.0</ele><time>2026-04-08T11:51:21.781Z</time></trkpt><trkpt lat="43.1707603" lon="12.253387"><ele>445.00000000000006</ele><time>2026-04-08T11:51:22.774Z</time></trkpt><trkpt lat="43.1707886" lon="12.253501"><ele>445.0</ele><time>2026-04-08T11:51:23.764Z</time></trkpt><trkpt lat="43.1708115" lon="12.2536035"><ele>445.0</ele><time>2026-04-08T11:51:24.783Z</time></trkpt><trkpt lat="43.170819" lon="12.2537142"><ele>445.0</ele><time>2026-04-08T11:51:25.782Z</time></trkpt><trkpt lat="43.1708117" lon="12.2538185"><ele>445.00000000000006</ele><time>2026-04-08T11:51:26.776Z</time></trkpt><trkpt lat="43.170795" lon="12.2539321"><ele>445.0</ele><time>2026-04-08T11:51:27.771Z</time></trkpt><trkpt lat="43.1707745" lon="12.2540404"><ele>445.1666666666667</ele><time>2026-04-08T11:51:28.762Z</time></trkpt><trkpt lat="43.1707653" lon="12.2541524"><ele>445.33333333333337</ele><time>2026-04-08T11:51:29.795Z</time></trkpt><trkpt lat="43.1707636" lon="12.2542724"><ele>445.5</ele><time>2026-04-08T11:51:30.771Z</time></trkpt><trkpt lat="43.1707685" lon="12.2543765"><ele>445.66666666666663</ele><time>2026-04-08T11:51:31.767Z</time></trkpt><trkpt lat="43.1707829" lon="12.2544632"><ele>445.8333333333333</ele><time>2026-04-08T11:51:32.782Z</time></trkpt><trkpt lat="43.1707949" lon="12.2546088"><ele>446.0</ele><time>2026-04-08T11:51:34.774Z</time></trkpt><trkpt lat="43.1707352" lon="12.254695"><ele>445.3333333333333</ele><time>2026-04-08T11:51:37.769Z</time></trkpt><trkpt lat="43.170662" lon="12.2547251"><ele>444.66666666666663</ele><time>2026-04-08T11:51:39.781Z</time></trkpt><trkpt lat="43.1706124" lon="12.2547972"><ele>444.0</ele><time>2026-04-08T11:51:41.791Z</time></trkpt><trkpt lat="43.1705775" lon="12.2549299"><ele>443.33333333333337</ele><time>2026-04-08T11:51:43.807Z</time></trkpt><trkpt lat="43.1705555" lon="12.2550235"><ele>442.6666666666667</ele><time>2026-04-08T11:51:44.777Z</time></trkpt><trkpt lat="43.170522" lon="12.2551194"><ele>442.0</ele><time>2026-04-08T11:51:45.784Z</time></trkpt><trkpt lat="43.1704819" lon="12.2551979"><ele>441.6666666666667</ele><time>2026-04-08T11:51:46.792Z</time></trkpt><trkpt lat="43.170432" lon="12.2552777"><ele>441.33333333333337</ele><time>2026-04-08T11:51:47.784Z</time></trkpt><trkpt lat="43.1703844" lon="12.2553644"><ele>441.0</ele><time>2026-04-08T11:51:48.776Z</time></trkpt><trkpt lat="43.1703434" lon="12.255459"><ele>440.66666666666663</ele><time>2026-04-08T11:51:49.775Z</time></trkpt><trkpt lat="43.1703094" lon="12.2555486"><ele>440.3333333333333</ele><time>2026-04-08T11:51:50.795Z</time></trkpt><trkpt lat="43.1702827" lon="12.2556574"><ele>440.0</ele><time>2026-04-08T11:51:51.788Z</time></trkpt><trkpt lat="43.1702528" lon="12.2557701"><ele>439.99999999999994</ele><time>2026-04-08T11:51:52.791Z</time></trkpt><trkpt lat="43.170232" lon="12.2558809"><ele>440.0</ele><time>2026-04-08T11:51:53.776Z</time></trkpt><trkpt lat="43.170203" lon="12.2559841"><ele>440.0</ele><time>2026-04-08T11:51:54.774Z</time></trkpt><trkpt lat="43.1701724" lon="12.256087"><ele>440.0</ele><time>2026-04-08T11:51:55.778Z</time></trkpt><trkpt lat="43.1701411" lon="12.2561865"><ele>439.99999999999994</ele><time>2026-04-08T11:51:56.767Z</time></trkpt><trkpt lat="43.1701238" lon="12.2562859"><ele>440.0</ele><time>2026-04-08T11:51:57.789Z</time></trkpt><trkpt lat="43.1701048" lon="12.2563849"><ele>439.85714285714283</ele><time>2026-04-08T11:51:58.771Z</time></trkpt><trkpt lat="43.1700755" lon="12.2564621"><ele>439.7142857142857</ele><time>2026-04-08T11:51:59.779Z</time></trkpt><trkpt lat="43.1700332" lon="12.256542"><ele>439.57142857142856</ele><time>2026-04-08T11:52:00.782Z</time></trkpt><trkpt lat="43.1699878" lon="12.2566183"><ele>439.42857142857144</ele><time>2026-04-08T11:52:01.796Z</time></trkpt><trkpt lat="43.169936" lon="12.2566965"><ele>439.2857142857143</ele><time>2026-04-08T11:52:02.779Z</time></trkpt><trkpt lat="43.1698786" lon="12.2567755"><ele>439.1428571428571</ele><time>2026-04-08T11:52:03.782Z</time></trkpt><trkpt lat="43.1698228" lon="12.2568453"><ele>439.0</ele><time>2026-04-08T11:52:04.78Z</time></trkpt><trkpt lat="43.1697673" lon="12.2569151"><ele>439.00000000000006</ele><time>2026-04-08T11:52:05.77Z</time></trkpt><trkpt lat="43.1697138" lon="12.2569859"><ele>439.0</ele><time>2026-04-08T11:52:06.785Z</time></trkpt><trkpt lat="43.1696578" lon="12.2570615"><ele>439.0</ele><time>2026-04-08T11:52:07.783Z</time></trkpt><trkpt lat="43.1695965" lon="12.2571365"><ele>439.0</ele><time>2026-04-08T11:52:08.807Z</time></trkpt><trkpt lat="43.1695237" lon="12.2572232"><ele>439.00000000000006</ele><time>2026-04-08T11:52:09.795Z</time></trkpt><trkpt lat="43.1694459" lon="12.2573136"><ele>439.0</ele><time>2026-04-08T11:52:10.783Z</time></trkpt><trkpt lat="43.1693696" lon="12.2574017"><ele>439.50000000000006</ele><time>2026-04-08T11:52:11.795Z</time></trkpt><trkpt lat="43.1693017" lon="12.2574913"><ele>440.0</ele><time>2026-04-08T11:52:12.778Z</time></trkpt><trkpt lat="43.1692367" lon="12.2575751"><ele>440.5</ele><time>2026-04-08T11:52:13.783Z</time></trkpt><trkpt lat="43.1691809" lon="12.2576555"><ele>441.0</ele><time>2026-04-08T11:52:14.784Z</time></trkpt><trkpt lat="43.1691248" lon="12.2577304"><ele>441.50000000000006</ele><time>2026-04-08T11:52:15.748Z</time></trkpt><trkpt lat="43.1690579" lon="12.2578037"><ele>442.0</ele><time>2026-04-08T11:52:16.779Z</time></trkpt><trkpt lat="43.1689957" lon="12.2578742"><ele>441.1666666666667</ele><time>2026-04-08T11:52:17.736Z</time></trkpt><trkpt lat="43.168934" lon="12.2579456"><ele>440.33333333333337</ele><time>2026-04-08T11:52:18.797Z</time></trkpt><trkpt lat="43.1688717" lon="12.2580261"><ele>439.5</ele><time>2026-04-08T11:52:19.77Z</time></trkpt><trkpt lat="43.1688211" lon="12.2581164"><ele>438.66666666666663</ele><time>2026-04-08T11:52:20.762Z</time></trkpt><trkpt lat="43.1687888" lon="12.2582109"><ele>437.8333333333333</ele><time>2026-04-08T11:52:21.776Z</time></trkpt><trkpt lat="43.1687557" lon="12.2583174"><ele>437.0</ele><time>2026-04-08T11:52:22.785Z</time></trkpt><trkpt lat="43.1687312" lon="12.2584288"><ele>436.99999999999994</ele><time>2026-04-08T11:52:23.788Z</time></trkpt><trkpt lat="43.1687144" lon="12.2585398"><ele>437.0</ele><time>2026-04-08T11:52:24.786Z</time></trkpt><trkpt lat="43.1687034" lon="12.2586573"><ele>437.0</ele><time>2026-04-08T11:52:25.774Z</time></trkpt><trkpt lat="43.1686802" lon="12.2587698"><ele>437.0</ele><time>2026-04-08T11:52:26.777Z</time></trkpt><trkpt lat="43.168656" lon="12.2588738"><ele>436.99999999999994</ele><time>2026-04-08T11:52:27.771Z</time></trkpt><trkpt lat="43.1686221" lon="12.2589596"><ele>437.0</ele><time>2026-04-08T11:52:28.782Z</time></trkpt><trkpt lat="43.1685778" lon="12.2590379"><ele>437.16666666666663</ele><time>2026-04-08T11:52:29.774Z</time></trkpt><trkpt lat="43.1685339" lon="12.2591094"><ele>437.3333333333333</ele><time>2026-04-08T11:52:30.778Z</time></trkpt><trkpt lat="43.1684673" lon="12.2592254"><ele>437.5</ele><time>2026-04-08T11:52:32.786Z</time></trkpt><trkpt lat="43.1684044" lon="12.2592909"><ele>437.66666666666663</ele><time>2026-04-08T11:52:34.755Z</time></trkpt><trkpt lat="43.1683162" lon="12.2593719"><ele>437.8333333333333</ele><time>2026-04-08T11:52:36.782Z</time></trkpt><trkpt lat="43.1682573" lon="12.2594377"><ele>438.0</ele><time>2026-04-08T11:52:37.792Z</time></trkpt><trkpt lat="43.1681985" lon="12.2595095"><ele>437.3333333333333</ele><time>2026-04-08T11:52:38.781Z</time></trkpt><trkpt lat="43.1681283" lon="12.2595727"><ele>436.66666666666663</ele><time>2026-04-08T11:52:39.777Z</time></trkpt><trkpt lat="43.1680678" lon="12.2596318"><ele>436.0</ele><time>2026-04-08T11:52:40.779Z</time></trkpt><trkpt lat="43.1680123" lon="12.2596859"><ele>435.3333333333333</ele><time>2026-04-08T11:52:41.776Z</time></trkpt><trkpt lat="43.1679606" lon="12.2597408"><ele>434.66666666666663</ele><time>2026-04-08T11:52:42.774Z</time></trkpt><trkpt lat="43.1678744" lon="12.2598319"><ele>434.0</ele><time>2026-04-08T11:52:44.75Z</time></trkpt><trkpt lat="43.1678" lon="12.2599182"><ele>433.79999999999995</ele><time>2026-04-08T11:52:46.782Z</time></trkpt><trkpt lat="43.1677116" lon="12.259989"><ele>433.59999999999997</ele><time>2026-04-08T11:52:48.775Z</time></trkpt><trkpt lat="43.1676078" lon="12.260052"><ele>433.4</ele><time>2026-04-08T11:52:50.781Z</time></trkpt><trkpt lat="43.1675003" lon="12.2601324"><ele>433.2</ele><time>2026-04-08T11:52:52.772Z</time></trkpt><trkpt lat="43.1674441" lon="12.260176"><ele>433.0</ele><time>2026-04-08T11:52:53.797Z</time></trkpt><trkpt lat="43.1673864" lon="12.2602192"><ele>429.79999999999995</ele><time>2026-04-08T11:52:54.774Z</time></trkpt><trkpt lat="43.1673258" lon="12.2602607"><ele>426.59999999999997</ele><time>2026-04-08T11:52:55.782Z</time></trkpt><trkpt lat="43.1672263" lon="12.2603455"><ele>423.4</ele><time>2026-04-08T11:52:57.784Z</time></trkpt><trkpt lat="43.1671186" lon="12.2603999"><ele>420.20000000000005</ele><time>2026-04-08T11:52:59.782Z</time></trkpt><trkpt lat="43.1670096" lon="12.2604083"><ele>417.0</ele><time>2026-04-08T11:53:01.799Z</time></trkpt><trkpt lat="43.1669243" lon="12.2604026"><ele>417.0</ele><time>2026-04-08T11:53:03.783Z</time></trkpt><trkpt lat="43.1668216" lon="12.2604264"><ele>417.0</ele><time>2026-04-08T11:53:05.79Z</time></trkpt><trkpt lat="43.1667549" lon="12.260455"><ele>417.0</ele><time>2026-04-08T11:53:07.784Z</time></trkpt><trkpt lat="43.1666725" lon="12.2604949"><ele>417.0</ele><time>2026-04-08T11:53:10.776Z</time></trkpt><trkpt lat="43.166589" lon="12.2605151"><ele>417.0</ele><time>2026-04-08T11:53:13.789Z</time></trkpt><trkpt lat="43.1665142" lon="12.2604975"><ele>417.0</ele><time>2026-04-08T11:53:15.733Z</time></trkpt><trkpt lat="43.166411" lon="12.260464"><ele>414.0</ele><time>2026-04-08T11:53:17.785Z</time></trkpt><trkpt lat="43.1663154" lon="12.2603867"><ele>411.0</ele><time>2026-04-08T11:53:19.783Z</time></trkpt><trkpt lat="43.1662305" lon="12.2603117"><ele>408.0</ele><time>2026-04-08T11:53:21.746Z</time></trkpt><trkpt lat="43.166162" lon="12.2602296"><ele>405.0</ele><time>2026-04-08T11:53:23.771Z</time></trkpt><trkpt lat="43.1660986" lon="12.2602074"><ele>402.0</ele><time>2026-04-08T11:53:26.786Z</time></trkpt><trkpt lat="43.1660389" lon="12.2602836"><ele>402.0</ele><time>2026-04-08T11:53:29.777Z</time></trkpt><trkpt lat="43.1659754" lon="12.2603728"><ele>402.0</ele><time>2026-04-08T11:53:31.791Z</time></trkpt><trkpt lat="43.165913" lon="12.2604383"><ele>402.0</ele><time>2026-04-08T11:53:33.788Z</time></trkpt><trkpt lat="43.165847" lon="12.2604914"><ele>402.0</ele><time>2026-04-08T11:53:46.775Z</time></trkpt><trkpt lat="43.1657772" lon="12.2604689"><ele>402.0</ele><time>2026-04-08T11:53:50.772Z</time></trkpt><trkpt lat="43.1657119" lon="12.260519"><ele>402.0</ele><time>2026-04-08T11:53:53.772Z</time></trkpt><trkpt lat="43.1656606" lon="12.2606193"><ele>399.8333333333333</ele><time>2026-04-08T11:53:56.78Z</time></trkpt><trkpt lat="43.1655976" lon="12.2606882"><ele>397.66666666666663</ele><time>2026-04-08T11:53:58.742Z</time></trkpt><trkpt lat="43.165516" lon="12.2607278"><ele>395.5</ele><time>2026-04-08T11:54:00.762Z</time></trkpt><trkpt lat="43.1654425" lon="12.2607745"><ele>393.3333333333333</ele><time>2026-04-08T11:54:03.778Z</time></trkpt><trkpt lat="43.1653866" lon="12.2608294"><ele>391.16666666666663</ele><time>2026-04-08T11:54:05.768Z</time></trkpt><trkpt lat="43.1653096" lon="12.2608869"><ele>389.0</ele><time>2026-04-08T11:54:07.778Z</time></trkpt><trkpt lat="43.165246" lon="12.260992"><ele>389.0</ele><time>2026-04-08T11:54:09.77Z</time></trkpt><trkpt lat="43.165206" lon="12.2610633"><ele>389.0</ele><time>2026-04-08T11:54:10.77Z</time></trkpt><trkpt lat="43.1651294" lon="12.2611828"><ele>389.0</ele><time>2026-04-08T11:54:12.773Z</time></trkpt><trkpt lat="43.1650574" lon="12.2613115"><ele>389.0</ele><time>2026-04-08T11:54:14.772Z</time></trkpt><trkpt lat="43.164996" lon="12.2614206"><ele>389.0</ele><time>2026-04-08T11:54:16.733Z</time></trkpt><trkpt lat="43.1649637" lon="12.2614975"><ele>388.8333333333333</ele><time>2026-04-08T11:54:17.756Z</time></trkpt><trkpt lat="43.1649184" lon="12.2615942"><ele>388.66666666666663</ele><time>2026-04-08T11:54:18.773Z</time></trkpt><trkpt lat="43.1648789" lon="12.2616856"><ele>388.5</ele><time>2026-04-08T11:54:19.788Z</time></trkpt><trkpt lat="43.1648422" lon="12.2617858"><ele>388.33333333333337</ele><time>2026-04-08T11:54:20.785Z</time></trkpt><trkpt lat="43.1648026" lon="12.2618938"><ele>388.1666666666667</ele><time>2026-04-08T11:54:21.789Z</time></trkpt><trkpt lat="43.1647586" lon="12.2620034"><ele>388.0</ele><time>2026-04-08T11:54:22.782Z</time></trkpt><trkpt lat="43.1647137" lon="12.2621141"><ele>387.6666666666667</ele><time>2026-04-08T11:54:23.727Z</time></trkpt><trkpt lat="43.164652" lon="12.2622121"><ele>387.33333333333337</ele><time>2026-04-08T11:54:24.748Z</time></trkpt><trkpt lat="43.1645859" lon="12.262274"><ele>387.0</ele><time>2026-04-08T11:54:25.78Z</time></trkpt><trkpt lat="43.1644842" lon="12.2623301"><ele>386.66666666666663</ele><time>2026-04-08T11:54:27.788Z</time></trkpt><trkpt lat="43.1644166" lon="12.2623705"><ele>386.3333333333333</ele><time>2026-04-08T11:54:28.775Z</time></trkpt><trkpt lat="43.1643441" lon="12.2624172"><ele>386.0</ele><time>2026-04-08T11:54:29.727Z</time></trkpt><trkpt lat="43.1642735" lon="12.2624719"><ele>386.0</ele><time>2026-04-08T11:54:30.779Z</time></trkpt><trkpt lat="43.1641949" lon="12.2625253"><ele>386.0</ele><time>2026-04-08T11:54:31.745Z</time></trkpt><trkpt lat="43.1641157" lon="12.2625906"><ele>386.0</ele><time>2026-04-08T11:54:32.77Z</time></trkpt><trkpt lat="43.1640478" lon="12.262641"><ele>386.0</ele><time>2026-04-08T11:54:33.78Z</time></trkpt><trkpt lat="43.163988" lon="12.2626937"><ele>386.0</ele><time>2026-04-08T11:54:34.762Z</time></trkpt><trkpt lat="43.1638729" lon="12.2627553"><ele>386.6</ele><time>2026-04-08T11:54:36.771Z</time></trkpt><trkpt lat="43.1637644" lon="12.2627921"><ele>387.20000000000005</ele><time>2026-04-08T11:54:38.75Z</time></trkpt><trkpt lat="43.1636528" lon="12.2627648"><ele>387.79999999999995</ele><time>2026-04-08T11:54:40.78Z</time></trkpt><trkpt lat="43.1635614" lon="12.2627594"><ele>388.4</ele><time>2026-04-08T11:54:42.774Z</time></trkpt><trkpt lat="43.1634776" lon="12.262738"><ele>389.0</ele><time>2026-04-08T11:54:45.79Z</time></trkpt><trkpt lat="43.1633933" lon="12.2627604"><ele>388.99999999999994</ele><time>2026-04-08T11:54:48.792Z</time></trkpt><trkpt lat="43.1633295" lon="12.2627833"><ele>389.0</ele><time>2026-04-08T11:55:08.745Z</time></trkpt><trkpt lat="43.1633126" lon="12.2628882"><ele>389.0</ele><time>2026-04-08T11:55:12.777Z</time></trkpt><trkpt lat="43.1633351" lon="12.2629931"><ele>389.0</ele><time>2026-04-08T11:55:14.784Z</time></trkpt><trkpt lat="43.1633744" lon="12.2630793"><ele>388.99999999999994</ele><time>2026-04-08T11:55:16.772Z</time></trkpt><trkpt lat="43.1634211" lon="12.2631847"><ele>389.0</ele><time>2026-04-08T11:55:18.77Z</time></trkpt><trkpt lat="43.1634707" lon="12.2633013"><ele>388.6</ele><time>2026-04-08T11:55:20.734Z</time></trkpt><trkpt lat="43.1635096" lon="12.2634061"><ele>388.2</ele><time>2026-04-08T11:55:22.775Z</time></trkpt><trkpt lat="43.1635238" lon="12.2635119"><ele>387.8</ele><time>2026-04-08T11:55:24.788Z</time></trkpt><trkpt lat="43.163511" lon="12.2636438"><ele>387.40000000000003</ele><time>2026-04-08T11:55:26.786Z</time></trkpt><trkpt lat="43.1634734" lon="12.2637635"><ele>387.0</ele><time>2026-04-08T11:55:28.781Z</time></trkpt><trkpt lat="43.1634098" lon="12.2638851"><ele>386.25</ele><time>2026-04-08T11:55:30.79Z</time></trkpt><trkpt lat="43.1634147" lon="12.2640268"><ele>385.5</ele><time>2026-04-08T11:55:32.779Z</time></trkpt><trkpt lat="43.1633329" lon="12.2642122"><ele>384.75</ele><time>2026-04-08T11:55:34.753Z</time></trkpt><trkpt lat="43.163278" lon="12.2643289"><ele>384.0</ele><time>2026-04-08T11:55:35.776Z</time></trkpt><trkpt lat="43.1632244" lon="12.2644386"><ele>383.5</ele><time>2026-04-08T11:55:36.768Z</time></trkpt><trkpt lat="43.163162" lon="12.2645512"><ele>383.0</ele><time>2026-04-08T11:55:37.777Z</time></trkpt><trkpt lat="43.1631102" lon="12.2646483"><ele>382.5</ele><time>2026-04-08T11:55:38.778Z</time></trkpt><trkpt lat="43.1630651" lon="12.2647374"><ele>382.0</ele><time>2026-04-08T11:55:39.778Z</time></trkpt><trkpt lat="43.1630137" lon="12.2648347"><ele>381.5</ele><time>2026-04-08T11:55:40.783Z</time></trkpt><trkpt lat="43.1629621" lon="12.2649383"><ele>381.0</ele><time>2026-04-08T11:55:41.783Z</time></trkpt><trkpt lat="43.1629138" lon="12.2650356"><ele>381.0</ele><time>2026-04-08T11:55:42.773Z</time></trkpt><trkpt lat="43.1628659" lon="12.2651223"><ele>381.0</ele><time>2026-04-08T11:55:43.773Z</time></trkpt><trkpt lat="43.1627767" lon="12.2652416"><ele>381.0</ele><time>2026-04-08T11:55:45.732Z</time></trkpt><trkpt lat="43.1626913" lon="12.2653574"><ele>381.0</ele><time>2026-04-08T11:55:47.774Z</time></trkpt><trkpt lat="43.1626246" lon="12.2654905"><ele>381.0</ele><time>2026-04-08T11:55:49.772Z</time></trkpt><trkpt lat="43.1625914" lon="12.2656372"><ele>382.4</ele><time>2026-04-08T11:55:51.773Z</time></trkpt><trkpt lat="43.1625642" lon="12.2657718"><ele>383.8</ele><time>2026-04-08T11:55:53.79Z</time></trkpt><trkpt lat="43.1625336" lon="12.265925"><ele>385.2</ele><time>2026-04-08T11:55:55.754Z</time></trkpt><trkpt lat="43.1624865" lon="12.2660859"><ele>386.59999999999997</ele><time>2026-04-08T11:55:57.774Z</time></trkpt><trkpt lat="43.1624511" lon="12.2661718"><ele>388.0</ele><time>2026-04-08T11:55:58.803Z</time></trkpt><trkpt lat="43.1624117" lon="12.2662518"><ele>388.00000000000006</ele><time>2026-04-08T11:55:59.761Z</time></trkpt><trkpt lat="43.1623658" lon="12.2663398"><ele>388.0</ele><time>2026-04-08T11:56:00.745Z</time></trkpt><trkpt lat="43.1623192" lon="12.2664337"><ele>388.0</ele><time>2026-04-08T11:56:01.767Z</time></trkpt><trkpt lat="43.1622755" lon="12.2665313"><ele>388.0</ele><time>2026-04-08T11:56:02.729Z</time></trkpt><trkpt lat="43.1622211" lon="12.2666389"><ele>388.00000000000006</ele><time>2026-04-08T11:56:03.783Z</time></trkpt><trkpt lat="43.1621804" lon="12.2667457"><ele>388.0</ele><time>2026-04-08T11:56:04.758Z</time></trkpt><trkpt lat="43.1621396" lon="12.2668466"><ele>388.33333333333337</ele><time>2026-04-08T11:56:05.739Z</time></trkpt><trkpt lat="43.1620921" lon="12.2669492"><ele>388.6666666666667</ele><time>2026-04-08T11:56:06.78Z</time></trkpt><trkpt lat="43.1620482" lon="12.2670362"><ele>389.0</ele><time>2026-04-08T11:56:07.776Z</time></trkpt><trkpt lat="43.1619902" lon="12.2671134"><ele>389.33333333333337</ele><time>2026-04-08T11:56:08.771Z</time></trkpt><trkpt lat="43.1619377" lon="12.2671697"><ele>389.6666666666667</ele><time>2026-04-08T11:56:09.779Z</time></trkpt><trkpt lat="43.161841" lon="12.267246"><ele>390.0</ele><time>2026-04-08T11:56:11.723Z</time></trkpt><trkpt lat="43.1617821" lon="12.2673181"><ele>385.4</ele><time>2026-04-08T11:56:13.765Z</time></trkpt><trkpt lat="43.1618028" lon="12.2674263"><ele>380.8</ele><time>2026-04-08T11:56:15.775Z</time></trkpt><trkpt lat="43.1618876" lon="12.2674999"><ele>376.20000000000005</ele><time>2026-04-08T11:56:17.783Z</time></trkpt><trkpt lat="43.1619832" lon="12.267513"><ele>371.6</ele><time>2026-04-08T11:56:19.782Z</time></trkpt><trkpt lat="43.1621008" lon="12.2674983"><ele>367.0</ele><time>2026-04-08T11:56:21.713Z</time></trkpt><trkpt lat="43.162193" lon="12.2674931"><ele>367.0</ele><time>2026-04-08T11:56:23.782Z</time></trkpt><trkpt lat="43.1622676" lon="12.2674865"><ele>367.0</ele><time>2026-04-08T11:56:25.712Z</time></trkpt><trkpt lat="43.1623335" lon="12.2674824"><ele>367.0</ele><time>2026-04-08T11:56:28.731Z</time></trkpt><trkpt lat="43.1624163" lon="12.2673553"><ele>367.0</ele><time>2026-04-08T11:56:30.767Z</time></trkpt><trkpt lat="43.1624534" lon="12.2672679"><ele>367.0</ele><time>2026-04-08T11:56:31.774Z</time></trkpt><trkpt lat="43.1624944" lon="12.2671647"><ele>367.0</ele><time>2026-04-08T11:56:32.789Z</time></trkpt><trkpt lat="43.1625418" lon="12.2670711"><ele>368.3333333333333</ele><time>2026-04-08T11:56:33.772Z</time></trkpt><trkpt lat="43.1625967" lon="12.2669783"><ele>369.66666666666663</ele><time>2026-04-08T11:56:34.764Z</time></trkpt><trkpt lat="43.1626587" lon="12.2669222"><ele>371.0</ele><time>2026-04-08T11:56:35.778Z</time></trkpt><trkpt lat="43.1627253" lon="12.2668708"><ele>372.3333333333333</ele><time>2026-04-08T11:56:36.768Z</time></trkpt><trkpt lat="43.1628004" lon="12.2668277"><ele>373.6666666666667</ele><time>2026-04-08T11:56:37.765Z</time></trkpt><trkpt lat="43.16288" lon="12.2667875"><ele>375.0</ele><time>2026-04-08T11:56:38.767Z</time></trkpt><trkpt lat="43.1629532" lon="12.2667488"><ele>375.0</ele><time>2026-04-08T11:56:39.772Z</time></trkpt><trkpt lat="43.1630361" lon="12.2667274"><ele>375.0</ele><time>2026-04-08T11:56:40.767Z</time></trkpt><trkpt lat="43.1631231" lon="12.266707"><ele>375.0</ele><time>2026-04-08T11:56:41.767Z</time></trkpt><trkpt lat="43.1632171" lon="12.2666913"><ele>375.0</ele><time>2026-04-08T11:56:42.782Z</time></trkpt><trkpt lat="43.1633149" lon="12.2666817"><ele>375.0</ele><time>2026-04-08T11:56:43.775Z</time></trkpt><trkpt lat="43.1634253" lon="12.2666727"><ele>373.6</ele><time>2026-04-08T11:56:44.787Z</time></trkpt><trkpt lat="43.1635438" lon="12.2666648"><ele>372.2</ele><time>2026-04-08T11:56:45.771Z</time></trkpt><trkpt lat="43.1636556" lon="12.2666585"><ele>370.79999999999995</ele><time>2026-04-08T11:56:46.761Z</time></trkpt><trkpt lat="43.1637557" lon="12.2666529"><ele>369.4</ele><time>2026-04-08T11:56:47.785Z</time></trkpt><trkpt lat="43.163855" lon="12.2666433"><ele>368.0</ele><time>2026-04-08T11:56:48.798Z</time></trkpt><trkpt lat="43.1639445" lon="12.266638"><ele>368.0</ele><time>2026-04-08T11:56:49.779Z</time></trkpt><trkpt lat="43.1640224" lon="12.2666373"><ele>368.0</ele><time>2026-04-08T11:56:50.777Z</time></trkpt><trkpt lat="43.1641227" lon="12.2665974"><ele>368.0</ele><time>2026-04-08T11:56:52.781Z</time></trkpt><trkpt lat="43.1642179" lon="12.2665194"><ele>368.0</ele><time>2026-04-08T11:56:54.777Z</time></trkpt><trkpt lat="43.1642713" lon="12.2664391"><ele>368.0</ele><time>2026-04-08T11:56:55.777Z</time></trkpt><trkpt lat="43.1643174" lon="12.2663607"><ele>368.0</ele><time>2026-04-08T11:56:56.771Z</time></trkpt><trkpt lat="43.1643679" lon="12.266269"><ele>369.33333333333337</ele><time>2026-04-08T11:56:57.774Z</time></trkpt><trkpt lat="43.1644219" lon="12.2661704"><ele>370.6666666666667</ele><time>2026-04-08T11:56:58.779Z</time></trkpt><trkpt lat="43.16448" lon="12.266079"><ele>372.0</ele><time>2026-04-08T11:56:59.75Z</time></trkpt><trkpt lat="43.1645441" lon="12.2659872"><ele>373.3333333333333</ele><time>2026-04-08T11:57:00.745Z</time></trkpt><trkpt lat="43.1646032" lon="12.2658935"><ele>374.66666666666663</ele><time>2026-04-08T11:57:01.788Z</time></trkpt><trkpt lat="43.164659" lon="12.2658072"><ele>376.0</ele><time>2026-04-08T11:57:02.747Z</time></trkpt><trkpt lat="43.164701" lon="12.2657117"><ele>376.0</ele><time>2026-04-08T11:57:03.753Z</time></trkpt><trkpt lat="43.1647217" lon="12.2656149"><ele>376.0</ele><time>2026-04-08T11:57:04.791Z</time></trkpt><trkpt lat="43.164712" lon="12.2654575"><ele>376.0</ele><time>2026-04-08T11:57:06.788Z</time></trkpt><trkpt lat="43.1646649" lon="12.2653076"><ele>376.0</ele><time>2026-04-08T11:57:08.794Z</time></trkpt><trkpt lat="43.1646369" lon="12.265212"><ele>376.0</ele><time>2026-04-08T11:57:09.769Z</time></trkpt><trkpt lat="43.164602" lon="12.2651222"><ele>376.0</ele><time>2026-04-08T11:57:10.764Z</time></trkpt><trkpt lat="43.1645744" lon="12.2650424"><ele>376.0</ele><time>2026-04-08T11:57:11.782Z</time></trkpt><trkpt lat="43.1645596" lon="12.2649491"><ele>376.0</ele><time>2026-04-08T11:57:12.788Z</time></trkpt><trkpt lat="43.1645463" lon="12.264834"><ele>376.0</ele><time>2026-04-08T11:57:13.763Z</time></trkpt><trkpt lat="43.1645337" lon="12.2647429"><ele>376.0</ele><time>2026-04-08T11:57:14.769Z</time></trkpt><trkpt lat="43.164559" lon="12.2645862"><ele>376.0</ele><time>2026-04-08T11:57:16.769Z</time></trkpt><trkpt lat="43.1646255" lon="12.2645395"><ele>376.6</ele><time>2026-04-08T11:57:18.773Z</time></trkpt><trkpt lat="43.1647395" lon="12.2645937"><ele>377.20000000000005</ele><time>2026-04-08T11:57:20.76Z</time></trkpt><trkpt lat="43.1648512" lon="12.2645873"><ele>377.79999999999995</ele><time>2026-04-08T11:57:22.764Z</time></trkpt><trkpt lat="43.1649095" lon="12.2645537"><ele>378.4</ele><time>2026-04-08T11:57:23.77Z</time></trkpt><trkpt lat="43.1650181" lon="12.2644434"><ele>379.0</ele><time>2026-04-08T11:57:25.767Z</time></trkpt><trkpt lat="43.1650667" lon="12.2643531"><ele>378.3333333333333</ele><time>2026-04-08T11:57:26.768Z</time></trkpt><trkpt lat="43.1651271" lon="12.2642645"><ele>377.66666666666663</ele><time>2026-04-08T11:57:27.774Z</time></trkpt><trkpt lat="43.1651813" lon="12.2641647"><ele>377.0</ele><time>2026-04-08T11:57:28.773Z</time></trkpt><trkpt lat="43.1652361" lon="12.2640747"><ele>376.3333333333333</ele><time>2026-04-08T11:57:29.759Z</time></trkpt><trkpt lat="43.165289" lon="12.2639763"><ele>375.6666666666667</ele><time>2026-04-08T11:57:30.772Z</time></trkpt><trkpt lat="43.1653345" lon="12.2638729"><ele>375.0</ele><time>2026-04-08T11:57:31.765Z</time></trkpt><trkpt lat="43.1653717" lon="12.2637663"><ele>375.0</ele><time>2026-04-08T11:57:32.767Z</time></trkpt><trkpt lat="43.1654041" lon="12.2636329"><ele>375.0</ele><time>2026-04-08T11:57:33.766Z</time></trkpt><trkpt lat="43.165425" lon="12.2635095"><ele>375.0</ele><time>2026-04-08T11:57:34.766Z</time></trkpt><trkpt lat="43.1654524" lon="12.263383"><ele>375.0</ele><time>2026-04-08T11:57:35.722Z</time></trkpt><trkpt lat="43.1654837" lon="12.2632598"><ele>375.0</ele><time>2026-04-08T11:57:36.766Z</time></trkpt><trkpt lat="43.1655189" lon="12.263148"><ele>374.8</ele><time>2026-04-08T11:57:37.771Z</time></trkpt><trkpt lat="43.1655552" lon="12.2630593"><ele>374.6</ele><time>2026-04-08T11:57:38.762Z</time></trkpt><trkpt lat="43.1656075" lon="12.2629845"><ele>374.4</ele><time>2026-04-08T11:57:39.772Z</time></trkpt><trkpt lat="43.1657112" lon="12.2628964"><ele>374.2</ele><time>2026-04-08T11:57:41.775Z</time></trkpt><trkpt lat="43.1658124" lon="12.2628486"><ele>374.0</ele><time>2026-04-08T11:57:43.749Z</time></trkpt><trkpt lat="43.1658958" lon="12.2628931"><ele>374.0</ele><time>2026-04-08T11:57:45.727Z</time></trkpt><trkpt lat="43.1659761" lon="12.263028"><ele>374.0</ele><time>2026-04-08T11:57:47.764Z</time></trkpt><trkpt lat="43.1660289" lon="12.2631328"><ele>374.0</ele><time>2026-04-08T11:57:48.761Z</time></trkpt><trkpt lat="43.1660656" lon="12.2632355"><ele>374.0</ele><time>2026-04-08T11:57:49.764Z</time></trkpt><trkpt lat="43.1660986" lon="12.26332"><ele>374.0</ele><time>2026-04-08T11:57:50.771Z</time></trkpt><trkpt lat="43.166177" lon="12.2634508"><ele>374.6666666666667</ele><time>2026-04-08T11:57:52.758Z</time></trkpt><trkpt lat="43.1662408" lon="12.2635117"><ele>375.33333333333337</ele><time>2026-04-08T11:57:53.785Z</time></trkpt><trkpt lat="43.166313" lon="12.2635775"><ele>376.0</ele><time>2026-04-08T11:57:54.757Z</time></trkpt><trkpt lat="43.1663854" lon="12.2636525"><ele>376.6666666666667</ele><time>2026-04-08T11:57:55.779Z</time></trkpt><trkpt lat="43.1664601" lon="12.2637244"><ele>377.3333333333333</ele><time>2026-04-08T11:57:56.754Z</time></trkpt><trkpt lat="43.1665299" lon="12.2638008"><ele>378.0</ele><time>2026-04-08T11:57:57.784Z</time></trkpt><trkpt lat="43.1665959" lon="12.2638771"><ele>378.0</ele><time>2026-04-08T11:57:58.788Z</time></trkpt><trkpt lat="43.1666574" lon="12.263942"><ele>378.0</ele><time>2026-04-08T11:57:59.782Z</time></trkpt><trkpt lat="43.1667124" lon="12.2639919"><ele>378.0</ele><time>2026-04-08T11:58:00.744Z</time></trkpt><trkpt lat="43.1667984" lon="12.2640789"><ele>378.0</ele><time>2026-04-08T11:58:02.784Z</time></trkpt><trkpt lat="43.166857" lon="12.2641146"><ele>378.0</ele><time>2026-04-08T11:58:03.766Z</time></trkpt><trkpt lat="43.1669273" lon="12.2641412"><ele>378.0</ele><time>2026-04-08T11:58:04.8Z</time></trkpt><trkpt lat="43.1670112" lon="12.2641687"><ele>377.6666666666667</ele><time>2026-04-08T11:58:05.754Z</time></trkpt><trkpt lat="43.1670983" lon="12.2641861"><ele>377.3333333333333</ele><time>2026-04-08T11:58:06.75Z</time></trkpt><trkpt lat="43.1671864" lon="12.2641834"><ele>377.0</ele><time>2026-04-08T11:58:07.785Z</time></trkpt><trkpt lat="43.1672736" lon="12.2641963"><ele>376.66666666666663</ele><time>2026-04-08T11:58:08.759Z</time></trkpt><trkpt lat="43.1673511" lon="12.2642187"><ele>376.3333333333333</ele><time>2026-04-08T11:58:09.778Z</time></trkpt><trkpt lat="43.1674222" lon="12.2642597"><ele>376.0</ele><time>2026-04-08T11:58:10.765Z</time></trkpt><trkpt lat="43.1674884" lon="12.2643438"><ele>376.0</ele><time>2026-04-08T11:58:11.782Z</time></trkpt><trkpt lat="43.1675544" lon="12.2644375"><ele>376.0</ele><time>2026-04-08T11:58:12.782Z</time></trkpt><trkpt lat="43.167615" lon="12.2645252"><ele>376.0</ele><time>2026-04-08T11:58:13.778Z</time></trkpt><trkpt lat="43.1676681" lon="12.264628"><ele>376.0</ele><time>2026-04-08T11:58:14.778Z</time></trkpt><trkpt lat="43.1677137" lon="12.2647252"><ele>376.0</ele><time>2026-04-08T11:58:15.785Z</time></trkpt><trkpt lat="43.1677625" lon="12.2648316"><ele>373.5</ele><time>2026-04-08T11:58:16.797Z</time></trkpt><trkpt lat="43.1678094" lon="12.2649291"><ele>371.0</ele><time>2026-04-08T11:58:17.774Z</time></trkpt><trkpt lat="43.1678576" lon="12.2650144"><ele>368.5</ele><time>2026-04-08T11:58:18.793Z</time></trkpt><trkpt lat="43.1679115" lon="12.2650973"><ele>366.0</ele><time>2026-04-08T11:58:19.774Z</time></trkpt><trkpt lat="43.1679732" lon="12.265171"><ele>363.5</ele><time>2026-04-08T11:58:20.786Z</time></trkpt><trkpt lat="43.1680359" lon="12.2652291"><ele>361.0</ele><time>2026-04-08T11:58:21.74Z</time></trkpt><trkpt lat="43.1680998" lon="12.2652953"><ele>361.0</ele><time>2026-04-08T11:58:22.733Z</time></trkpt><trkpt lat="43.1681595" lon="12.2653599"><ele>361.0</ele><time>2026-04-08T11:58:23.77Z</time></trkpt><trkpt lat="43.1682309" lon="12.2654124"><ele>361.0</ele><time>2026-04-08T11:58:24.793Z</time></trkpt><trkpt lat="43.1683195" lon="12.2654568"><ele>361.0</ele><time>2026-04-08T11:58:26.785Z</time></trkpt><trkpt lat="43.1683689" lon="12.2655153"><ele>361.0</ele><time>2026-04-08T11:58:29.782Z</time></trkpt><trkpt lat="43.1683375" lon="12.2656397"><ele>361.0</ele><time>2026-04-08T11:58:31.749Z</time></trkpt><trkpt lat="43.1682969" lon="12.2658082"><ele>359.66666666666663</ele><time>2026-04-08T11:58:33.787Z</time></trkpt><trkpt lat="43.1682856" lon="12.2658976"><ele>358.3333333333333</ele><time>2026-04-08T11:58:34.785Z</time></trkpt><trkpt lat="43.1682742" lon="12.2659841"><ele>357.0</ele><time>2026-04-08T11:58:35.766Z</time></trkpt><trkpt lat="43.1682283" lon="12.2661142"><ele>355.6666666666667</ele><time>2026-04-08T11:58:37.795Z</time></trkpt><trkpt lat="43.1681529" lon="12.2661999"><ele>354.33333333333337</ele><time>2026-04-08T11:58:39.788Z</time></trkpt><trkpt lat="43.1680693" lon="12.2662152"><ele>353.0</ele><time>2026-04-08T11:58:41.778Z</time></trkpt><trkpt lat="43.167995" lon="12.266168"><ele>353.0</ele><time>2026-04-08T11:58:43.804Z</time></trkpt><trkpt lat="43.1679168" lon="12.2660996"><ele>353.0</ele><time>2026-04-08T11:58:45.771Z</time></trkpt><trkpt lat="43.167843" lon="12.2660437"><ele>353.0</ele><time>2026-04-08T11:58:47.779Z</time></trkpt><trkpt lat="43.1677656" lon="12.2660054"><ele>353.0</ele><time>2026-04-08T11:58:49.795Z</time></trkpt><trkpt lat="43.167671" lon="12.265938"><ele>353.0</ele><time>2026-04-08T11:58:51.768Z</time></trkpt><trkpt lat="43.1675836" lon="12.2658707"><ele>353.0</ele><time>2026-04-08T11:58:53.788Z</time></trkpt><trkpt lat="43.1675186" lon="12.2658165"><ele>353.0</ele><time>2026-04-08T11:58:55.777Z</time></trkpt><trkpt lat="43.1674516" lon="12.2657593"><ele>353.0</ele><time>2026-04-08T11:58:57.811Z</time></trkpt><trkpt lat="43.1673943" lon="12.2657002"><ele>353.0</ele><time>2026-04-08T11:58:59.811Z</time></trkpt><trkpt lat="43.1673478" lon="12.2657682"><ele>353.0</ele><time>2026-04-08T11:59:04.782Z</time></trkpt><trkpt lat="43.1673338" lon="12.2659054"><ele>353.0</ele><time>2026-04-08T11:59:07.784Z</time></trkpt><trkpt lat="43.1672867" lon="12.2660043"><ele>348.0</ele><time>2026-04-08T11:59:09.776Z</time></trkpt><trkpt lat="43.1672104" lon="12.2660874"><ele>343.0</ele><time>2026-04-08T11:59:11.75Z</time></trkpt><trkpt lat="43.1671138" lon="12.2661823"><ele>338.0</ele><time>2026-04-08T11:59:13.775Z</time></trkpt><trkpt lat="43.1670556" lon="12.2662207"><ele>333.0</ele><time>2026-04-08T11:59:14.775Z</time></trkpt><trkpt lat="43.1669579" lon="12.2662781"><ele>328.0</ele><time>2026-04-08T11:59:16.751Z</time></trkpt><trkpt lat="43.1668677" lon="12.266354"><ele>328.0</ele><time>2026-04-08T11:59:18.757Z</time></trkpt><trkpt lat="43.166808" lon="12.2664359"><ele>328.0</ele><time>2026-04-08T11:59:20.758Z</time></trkpt><trkpt lat="43.1667623" lon="12.2666037"><ele>328.0</ele><time>2026-04-08T11:59:22.769Z</time></trkpt><trkpt lat="43.1666996" lon="12.2666553"><ele>328.0</ele><time>2026-04-08T11:59:23.746Z</time></trkpt><trkpt lat="43.1666045" lon="12.2667428"><ele>328.0</ele><time>2026-04-08T11:59:25.774Z</time></trkpt><trkpt lat="43.1665502" lon="12.2668604"><ele>327.79999999999995</ele><time>2026-04-08T11:59:27.779Z</time></trkpt><trkpt lat="43.1665349" lon="12.2669975"><ele>327.6</ele><time>2026-04-08T11:59:29.765Z</time></trkpt><trkpt lat="43.1665397" lon="12.2670986"><ele>327.4</ele><time>2026-04-08T11:59:30.781Z</time></trkpt><trkpt lat="43.1665469" lon="12.267246"><ele>327.20000000000005</ele><time>2026-04-08T11:59:32.767Z</time></trkpt><trkpt lat="43.1665373" lon="12.2673847"><ele>327.0</ele><time>2026-04-08T11:59:34.775Z</time></trkpt><trkpt lat="43.1664958" lon="12.2674991"><ele>323.6</ele><time>2026-04-08T11:59:36.771Z</time></trkpt><trkpt lat="43.1664637" lon="12.2676495"><ele>320.20000000000005</ele><time>2026-04-08T11:59:38.775Z</time></trkpt><trkpt lat="43.1664289" lon="12.2677987"><ele>316.8</ele><time>2026-04-08T11:59:40.774Z</time></trkpt><trkpt lat="43.1664264" lon="12.2679246"><ele>313.4</ele><time>2026-04-08T11:59:42.774Z</time></trkpt><trkpt lat="43.1663954" lon="12.268014"><ele>310.0</ele><time>2026-04-08T11:59:44.73Z</time></trkpt><trkpt lat="43.1663713" lon="12.2681292"><ele>308.8333333333333</ele><time>2026-04-08T11:59:46.779Z</time></trkpt><trkpt lat="43.1663529" lon="12.2682689"><ele>307.66666666666663</ele><time>2026-04-08T11:59:48.781Z</time></trkpt><trkpt lat="43.1663471" lon="12.2683827"><ele>306.5</ele><time>2026-04-08T11:59:51.779Z</time></trkpt><trkpt lat="43.1663353" lon="12.2684742"><ele>305.3333333333333</ele><time>2026-04-08T11:59:54.781Z</time></trkpt><trkpt lat="43.1663028" lon="12.2685515"><ele>304.1666666666667</ele><time>2026-04-08T11:59:57.758Z</time></trkpt><trkpt lat="43.1662736" lon="12.2686381"><ele>303.0</ele><time>2026-04-08T11:59:59.774Z</time></trkpt><trkpt lat="43.1662413" lon="12.2687689"><ele>303.0</ele><time>2026-04-08T12:00:02.79Z</time></trkpt><trkpt lat="43.1662263" lon="12.2689031"><ele>303.0</ele><time>2026-04-08T12:00:04.778Z</time></trkpt><trkpt lat="43.1662037" lon="12.2690369"><ele>303.0</ele><time>2026-04-08T12:00:06.804Z</time></trkpt><trkpt lat="43.1661745" lon="12.2691309"><ele>303.0</ele><time>2026-04-08T12:00:08.801Z</time></trkpt><trkpt lat="43.1661313" lon="12.2692293"><ele>303.0</ele><time>2026-04-08T12:00:10.788Z</time></trkpt><trkpt lat="43.1660742" lon="12.269345"><ele>302.2</ele><time>2026-04-08T12:00:12.784Z</time></trkpt><trkpt lat="43.1660242" lon="12.2695111"><ele>301.4</ele><time>2026-04-08T12:00:14.779Z</time></trkpt><trkpt lat="43.1660053" lon="12.2696002"><ele>300.59999999999997</ele><time>2026-04-08T12:00:15.785Z</time></trkpt><trkpt lat="43.1659774" lon="12.2697488"><ele>299.8</ele><time>2026-04-08T12:00:17.788Z</time></trkpt><trkpt lat="43.1659891" lon="12.2698384"><ele>299.0</ele><time>2026-04-08T12:00:18.768Z</time></trkpt><trkpt lat="43.1660377" lon="12.2699825"><ele>298.0</ele><time>2026-04-08T12:00:20.785Z</time></trkpt><trkpt lat="43.166052" lon="12.2700679"><ele>297.0</ele><time>2026-04-08T12:00:21.779Z</time></trkpt><trkpt lat="43.1660729" lon="12.2701606"><ele>296.0</ele><time>2026-04-08T12:00:22.768Z</time></trkpt><trkpt lat="43.1660772" lon="12.2703085"><ele>295.0</ele><time>2026-04-08T12:00:24.782Z</time></trkpt><trkpt lat="43.1660258" lon="12.2704273"><ele>294.0</ele><time>2026-04-08T12:00:26.777Z</time></trkpt><trkpt lat="43.1659581" lon="12.2705286"><ele>293.0</ele><time>2026-04-08T12:00:28.769Z</time></trkpt><trkpt lat="43.165905" lon="12.2706365"><ele>295.4</ele><time>2026-04-08T12:00:30.746Z</time></trkpt><trkpt lat="43.1658403" lon="12.2707642"><ele>297.8</ele><time>2026-04-08T12:00:32.79Z</time></trkpt><trkpt lat="43.1657549" lon="12.270876"><ele>300.2</ele><time>2026-04-08T12:00:34.774Z</time></trkpt><trkpt lat="43.165675" lon="12.2709752"><ele>302.6</ele><time>2026-04-08T12:00:36.759Z</time></trkpt><trkpt lat="43.1656326" lon="12.2710573"><ele>305.0</ele><time>2026-04-08T12:00:38.785Z</time></trkpt><trkpt lat="43.1656045" lon="12.2711349"><ele>305.0</ele><time>2026-04-08T12:00:40.78Z</time></trkpt><trkpt lat="43.1656108" lon="12.2712212"><ele>305.0</ele><time>2026-04-08T12:00:43.782Z</time></trkpt><trkpt lat="43.1656703" lon="12.2712538"><ele>305.0</ele><time>2026-04-08T12:00:45.779Z</time></trkpt><trkpt lat="43.1657927" lon="12.2712564"><ele>305.0</ele><time>2026-04-08T12:00:47.764Z</time></trkpt><trkpt lat="43.1658657" lon="12.2712307"><ele>305.0</ele><time>2026-04-08T12:00:48.771Z</time></trkpt><trkpt lat="43.1659449" lon="12.2711869"><ele>305.0</ele><time>2026-04-08T12:00:49.735Z</time></trkpt><trkpt lat="43.1660217" lon="12.2711484"><ele>300.6666666666667</ele><time>2026-04-08T12:00:50.708Z</time></trkpt><trkpt lat="43.1660913" lon="12.2710991"><ele>296.33333333333337</ele><time>2026-04-08T12:00:51.759Z</time></trkpt><trkpt lat="43.1661667" lon="12.2710568"><ele>292.0</ele><time>2026-04-08T12:00:52.764Z</time></trkpt><trkpt lat="43.1662268" lon="12.2710178"><ele>287.6666666666667</ele><time>2026-04-08T12:00:53.773Z</time></trkpt><trkpt lat="43.1662869" lon="12.2709835"><ele>283.3333333333333</ele><time>2026-04-08T12:00:54.769Z</time></trkpt><trkpt lat="43.166412" lon="12.271043"><ele>279.0</ele><time>2026-04-08T12:00:56.762Z</time></trkpt><trkpt lat="43.166478" lon="12.2711092"><ele>279.6666666666667</ele><time>2026-04-08T12:00:57.778Z</time></trkpt><trkpt lat="43.1665383" lon="12.2711742"><ele>280.3333333333333</ele><time>2026-04-08T12:00:58.782Z</time></trkpt><trkpt lat="43.1666068" lon="12.2712422"><ele>281.0</ele><time>2026-04-08T12:00:59.782Z</time></trkpt><trkpt lat="43.1666822" lon="12.2712952"><ele>281.66666666666663</ele><time>2026-04-08T12:01:00.79Z</time></trkpt><trkpt lat="43.1667409" lon="12.2713409"><ele>282.3333333333333</ele><time>2026-04-08T12:01:01.796Z</time></trkpt><trkpt lat="43.1667952" lon="12.2713872"><ele>283.0</ele><time>2026-04-08T12:01:02.805Z</time></trkpt><trkpt lat="43.1668677" lon="12.271449"><ele>283.8333333333333</ele><time>2026-04-08T12:01:04.779Z</time></trkpt><trkpt lat="43.1669178" lon="12.2715598"><ele>284.66666666666663</ele><time>2026-04-08T12:01:06.762Z</time></trkpt><trkpt lat="43.1669749" lon="12.2716395"><ele>285.5</ele><time>2026-04-08T12:01:07.795Z</time></trkpt><trkpt lat="43.1670309" lon="12.2717277"><ele>286.3333333333333</ele><time>2026-04-08T12:01:08.765Z</time></trkpt><trkpt lat="43.1670723" lon="12.2718019"><ele>287.1666666666667</ele><time>2026-04-08T12:01:09.798Z</time></trkpt><trkpt lat="43.167126" lon="12.2719377"><ele>288.0</ele><time>2026-04-08T12:01:11.779Z</time></trkpt><trkpt lat="43.1671298" lon="12.2720251"><ele>288.0</ele><time>2026-04-08T12:01:13.79Z</time></trkpt><trkpt lat="43.1670933" lon="12.2721188"><ele>288.0</ele><time>2026-04-08T12:01:15.762Z</time></trkpt><trkpt lat="43.1670183" lon="12.2721601"><ele>288.0</ele><time>2026-04-08T12:01:17.773Z</time></trkpt><trkpt lat="43.1669238" lon="12.2721558"><ele>288.0</ele><time>2026-04-08T12:01:19.772Z</time></trkpt><trkpt lat="43.1668213" lon="12.272217"><ele>288.0</ele><time>2026-04-08T12:01:21.78Z</time></trkpt><trkpt lat="43.1667324" lon="12.2723172"><ele>289.0</ele><time>2026-04-08T12:01:23.772Z</time></trkpt><trkpt lat="43.1666355" lon="12.2724298"><ele>290.0</ele><time>2026-04-08T12:01:25.768Z</time></trkpt><trkpt lat="43.1665807" lon="12.2724813"><ele>291.0</ele><time>2026-04-08T12:01:26.767Z</time></trkpt><trkpt lat="43.1665174" lon="12.2725299"><ele>292.0</ele><time>2026-04-08T12:01:27.745Z</time></trkpt><trkpt lat="43.1664551" lon="12.2725762"><ele>293.0</ele><time>2026-04-08T12:01:28.77Z</time></trkpt><trkpt lat="43.1663803" lon="12.272602"><ele>294.0</ele><time>2026-04-08T12:01:29.78Z</time></trkpt><trkpt lat="43.1662982" lon="12.272628"><ele>291.6666666666667</ele><time>2026-04-08T12:01:30.775Z</time></trkpt><trkpt lat="43.1662199" lon="12.2726435"><ele>289.3333333333333</ele><time>2026-04-08T12:01:31.743Z</time></trkpt><trkpt lat="43.1661505" lon="12.2726435"><ele>287.0</ele><time>2026-04-08T12:01:32.779Z</time></trkpt><trkpt lat="43.1660816" lon="12.2726449"><ele>284.66666666666663</ele><time>2026-04-08T12:01:33.8Z</time></trkpt><trkpt lat="43.1659628" lon="12.2726815"><ele>282.3333333333333</ele><time>2026-04-08T12:01:35.781Z</time></trkpt><trkpt lat="43.1659004" lon="12.2727138"><ele>280.0</ele><time>2026-04-08T12:01:37.779Z</time></trkpt><trkpt lat="43.1658426" lon="12.2728022"><ele>280.0</ele><time>2026-04-08T12:01:40.761Z</time></trkpt><trkpt lat="43.1658245" lon="12.2729189"><ele>280.0</ele><time>2026-04-08T12:01:42.785Z</time></trkpt><trkpt lat="43.1658002" lon="12.2730784"><ele>280.0</ele><time>2026-04-08T12:01:44.802Z</time></trkpt><trkpt lat="43.1657921" lon="12.2731667"><ele>280.0</ele><time>2026-04-08T12:01:45.779Z</time></trkpt><trkpt lat="43.1657801" lon="12.273252"><ele>280.0</ele><time>2026-04-08T12:01:46.759Z</time></trkpt><trkpt lat="43.1657682" lon="12.2734284"><ele>281.0</ele><time>2026-04-08T12:01:48.79Z</time></trkpt><trkpt lat="43.1657591" lon="12.273585"><ele>282.0</ele><time>2026-04-08T12:01:50.757Z</time></trkpt><trkpt lat="43.1657448" lon="12.273733"><ele>283.0</ele><time>2026-04-08T12:01:52.784Z</time></trkpt><trkpt lat="43.1657113" lon="12.2738926"><ele>284.0</ele><time>2026-04-08T12:01:54.787Z</time></trkpt><trkpt lat="43.1656927" lon="12.2739852"><ele>285.0</ele><time>2026-04-08T12:01:55.783Z</time></trkpt><trkpt lat="43.1656726" lon="12.2740809"><ele>282.2857142857143</ele><time>2026-04-08T12:01:56.787Z</time></trkpt><trkpt lat="43.1656612" lon="12.2741749"><ele>279.57142857142856</ele><time>2026-04-08T12:01:57.785Z</time></trkpt><trkpt lat="43.1656507" lon="12.274266"><ele>276.8571428571429</ele><time>2026-04-08T12:01:58.782Z</time></trkpt><trkpt lat="43.1656416" lon="12.274358"><ele>274.1428571428571</ele><time>2026-04-08T12:01:59.78Z</time></trkpt><trkpt lat="43.1656266" lon="12.2744469"><ele>271.42857142857144</ele><time>2026-04-08T12:02:00.761Z</time></trkpt><trkpt lat="43.1656135" lon="12.2745422"><ele>268.7142857142857</ele><time>2026-04-08T12:02:01.798Z</time></trkpt><trkpt lat="43.1656042" lon="12.2746417"><ele>266.0</ele><time>2026-04-08T12:02:02.8Z</time></trkpt><trkpt lat="43.1655899" lon="12.2747471"><ele>265.5</ele><time>2026-04-08T12:02:03.774Z</time></trkpt><trkpt lat="43.1655815" lon="12.2748548"><ele>265.0</ele><time>2026-04-08T12:02:04.787Z</time></trkpt><trkpt lat="43.1655698" lon="12.2749653"><ele>264.5</ele><time>2026-04-08T12:02:05.78Z</time></trkpt><trkpt lat="43.1655554" lon="12.2750801"><ele>264.0</ele><time>2026-04-08T12:02:06.77Z</time></trkpt><trkpt lat="43.1655254" lon="12.2751876"><ele>263.5</ele><time>2026-04-08T12:02:07.811Z</time></trkpt><trkpt lat="43.1654734" lon="12.2752932"><ele>263.0</ele><time>2026-04-08T12:02:08.806Z</time></trkpt><trkpt lat="43.1654124" lon="12.2753668"><ele>263.0</ele><time>2026-04-08T12:02:09.795Z</time></trkpt><trkpt lat="43.1653568" lon="12.2754181"><ele>263.0</ele><time>2026-04-08T12:02:10.79Z</time></trkpt><trkpt lat="43.1652966" lon="12.2754483"><ele>263.0</ele><time>2026-04-08T12:02:11.794Z</time></trkpt><trkpt lat="43.1652232" lon="12.2754739"><ele>263.0</ele><time>2026-04-08T12:02:12.785Z</time></trkpt><trkpt lat="43.1651592" lon="12.2754876"><ele>263.0</ele><time>2026-04-08T12:02:13.798Z</time></trkpt><trkpt lat="43.165085" lon="12.2754999"><ele>263.0</ele><time>2026-04-08T12:02:14.776Z</time></trkpt><trkpt lat="43.1650076" lon="12.2755047"><ele>263.0</ele><time>2026-04-08T12:02:15.79Z</time></trkpt><trkpt lat="43.1649303" lon="12.2755147"><ele>262.4</ele><time>2026-04-08T12:02:16.717Z</time></trkpt><trkpt lat="43.1648539" lon="12.2755264"><ele>261.8</ele><time>2026-04-08T12:02:17.797Z</time></trkpt><trkpt lat="43.164781" lon="12.2755486"><ele>261.2</ele><time>2026-04-08T12:02:18.804Z</time></trkpt><trkpt lat="43.1647127" lon="12.2755587"><ele>260.6</ele><time>2026-04-08T12:02:19.788Z</time></trkpt><trkpt lat="43.1645877" lon="12.2755755"><ele>260.0</ele><time>2026-04-08T12:02:21.771Z</time></trkpt><trkpt lat="43.1644668" lon="12.2755815"><ele>260.2</ele><time>2026-04-08T12:02:23.796Z</time></trkpt><trkpt lat="43.1643707" lon="12.2756262"><ele>260.4</ele><time>2026-04-08T12:02:25.779Z</time></trkpt><trkpt lat="43.1643004" lon="12.2757642"><ele>260.6</ele><time>2026-04-08T12:02:27.795Z</time></trkpt><trkpt lat="43.1642574" lon="12.2758584"><ele>260.8</ele><time>2026-04-08T12:02:28.785Z</time></trkpt><trkpt lat="43.1642093" lon="12.2759538"><ele>261.0</ele><time>2026-04-08T12:02:29.777Z</time></trkpt><trkpt lat="43.1641618" lon="12.2760607"><ele>261.0</ele><time>2026-04-08T12:02:30.786Z</time></trkpt><trkpt lat="43.1641181" lon="12.2761715"><ele>261.0</ele><time>2026-04-08T12:02:31.798Z</time></trkpt><trkpt lat="43.1640756" lon="12.2762744"><ele>261.0</ele><time>2026-04-08T12:02:32.812Z</time></trkpt><trkpt lat="43.1640366" lon="12.2763726"><ele>261.0</ele><time>2026-04-08T12:02:33.764Z</time></trkpt><trkpt lat="43.1640072" lon="12.2764634"><ele>261.0</ele><time>2026-04-08T12:02:34.8Z</time></trkpt><trkpt lat="43.1639868" lon="12.2765685"><ele>261.0</ele><time>2026-04-08T12:02:35.767Z</time></trkpt><trkpt lat="43.1639809" lon="12.2766818"><ele>260.2</ele><time>2026-04-08T12:02:36.767Z</time></trkpt><trkpt lat="43.1639753" lon="12.2768125"><ele>259.40000000000003</ele><time>2026-04-08T12:02:37.792Z</time></trkpt><trkpt lat="43.1639741" lon="12.2769408"><ele>258.6</ele><time>2026-04-08T12:02:38.798Z</time></trkpt><trkpt lat="43.1639651" lon="12.2770834"><ele>257.8</ele><time>2026-04-08T12:02:39.792Z</time></trkpt><trkpt lat="43.163959" lon="12.2772193"><ele>257.0</ele><time>2026-04-08T12:02:40.789Z</time></trkpt><trkpt lat="43.1639537" lon="12.2773467"><ele>257.0</ele><time>2026-04-08T12:02:41.794Z</time></trkpt><trkpt lat="43.1639566" lon="12.2774803"><ele>257.0</ele><time>2026-04-08T12:02:42.798Z</time></trkpt><trkpt lat="43.1639512" lon="12.2776145"><ele>257.0</ele><time>2026-04-08T12:02:43.78Z</time></trkpt><trkpt lat="43.1639472" lon="12.2777497"><ele>257.0</ele><time>2026-04-08T12:02:44.799Z</time></trkpt><trkpt lat="43.1639561" lon="12.2778775"><ele>257.0</ele><time>2026-04-08T12:02:45.784Z</time></trkpt><trkpt lat="43.1639655" lon="12.2780042"><ele>256.6666666666667</ele><time>2026-04-08T12:02:46.745Z</time></trkpt><trkpt lat="43.1639839" lon="12.2781292"><ele>256.33333333333337</ele><time>2026-04-08T12:02:47.791Z</time></trkpt><trkpt lat="43.1640039" lon="12.2782519"><ele>256.0</ele><time>2026-04-08T12:02:48.801Z</time></trkpt><trkpt lat="43.1640213" lon="12.2783719"><ele>255.66666666666669</ele><time>2026-04-08T12:02:49.782Z</time></trkpt><trkpt lat="43.1640409" lon="12.2784837"><ele>255.33333333333334</ele><time>2026-04-08T12:02:50.78Z</time></trkpt><trkpt lat="43.1640619" lon="12.2785913"><ele>255.0</ele><time>2026-04-08T12:02:51.778Z</time></trkpt><trkpt lat="43.1640817" lon="12.278691"><ele>255.0</ele><time>2026-04-08T12:02:52.798Z</time></trkpt><trkpt lat="43.1640976" lon="12.2787801"><ele>255.0</ele><time>2026-04-08T12:02:53.781Z</time></trkpt><trkpt lat="43.164104" lon="12.2789105"><ele>255.0</ele><time>2026-04-08T12:02:55.76Z</time></trkpt><trkpt lat="43.1641258" lon="12.2790323"><ele>255.0</ele><time>2026-04-08T12:02:58.772Z</time></trkpt><trkpt lat="43.1641808" lon="12.2791053"><ele>255.0</ele><time>2026-04-08T12:03:00.775Z</time></trkpt><trkpt lat="43.1642998" lon="12.2791397"><ele>254.83333333333334</ele><time>2026-04-08T12:03:02.782Z</time></trkpt><trkpt lat="43.1643706" lon="12.2791383"><ele>254.66666666666669</ele><time>2026-04-08T12:03:03.778Z</time></trkpt><trkpt lat="43.1644477" lon="12.2791197"><ele>254.5</ele><time>2026-04-08T12:03:04.781Z</time></trkpt><trkpt lat="43.1645278" lon="12.2791084"><ele>254.33333333333334</ele><time>2026-04-08T12:03:05.782Z</time></trkpt><trkpt lat="43.1646277" lon="12.2791018"><ele>254.16666666666669</ele><time>2026-04-08T12:03:06.793Z</time></trkpt><trkpt lat="43.1647237" lon="12.279096"><ele>254.0</ele><time>2026-04-08T12:03:07.78Z</time></trkpt><trkpt lat="43.1648129" lon="12.2790852"><ele>254.0</ele><time>2026-04-08T12:03:08.783Z</time></trkpt><trkpt lat="43.164893" lon="12.279073"><ele>253.99999999999997</ele><time>2026-04-08T12:03:09.804Z</time></trkpt><trkpt lat="43.1649714" lon="12.2790724"><ele>253.99999999999997</ele><time>2026-04-08T12:03:10.791Z</time></trkpt><trkpt lat="43.1650345" lon="12.2790789"><ele>254.0</ele><time>2026-04-08T12:03:11.794Z</time></trkpt><trkpt lat="43.165119" lon="12.2791459"><ele>254.0</ele><time>2026-04-08T12:03:13.803Z</time></trkpt><trkpt lat="43.1651412" lon="12.2793214"><ele>254.00000000000003</ele><time>2026-04-08T12:03:15.767Z</time></trkpt><trkpt lat="43.1651539" lon="12.2794148"><ele>254.0</ele><time>2026-04-08T12:03:16.788Z</time></trkpt><trkpt lat="43.1651722" lon="12.2795145"><ele>254.0</ele><time>2026-04-08T12:03:17.784Z</time></trkpt><trkpt lat="43.1651869" lon="12.2796163"><ele>254.0</ele><time>2026-04-08T12:03:18.787Z</time></trkpt><trkpt lat="43.1652068" lon="12.2797269"><ele>254.00000000000003</ele><time>2026-04-08T12:03:19.79Z</time></trkpt><trkpt lat="43.1652249" lon="12.279848"><ele>254.0</ele><time>2026-04-08T12:03:20.787Z</time></trkpt><trkpt lat="43.1652455" lon="12.2799749"><ele>254.0</ele><time>2026-04-08T12:03:21.782Z</time></trkpt><trkpt lat="43.1652716" lon="12.2801031"><ele>253.99999999999997</ele><time>2026-04-08T12:03:22.73Z</time></trkpt><trkpt lat="43.1653076" lon="12.280235"><ele>253.99999999999997</ele><time>2026-04-08T12:03:23.797Z</time></trkpt><trkpt lat="43.1653427" lon="12.2803624"><ele>254.0</ele><time>2026-04-08T12:03:24.794Z</time></trkpt><trkpt lat="43.1653806" lon="12.2804742"><ele>254.0</ele><time>2026-04-08T12:03:25.75Z</time></trkpt><trkpt lat="43.1654197" lon="12.2805806"><ele>254.0</ele><time>2026-04-08T12:03:26.75Z</time></trkpt><trkpt lat="43.1654551" lon="12.2806883"><ele>253.99999999999997</ele><time>2026-04-08T12:03:27.788Z</time></trkpt><trkpt lat="43.1654927" lon="12.2807982"><ele>253.99999999999997</ele><time>2026-04-08T12:03:28.798Z</time></trkpt><trkpt lat="43.1655332" lon="12.2809184"><ele>254.0</ele><time>2026-04-08T12:03:29.786Z</time></trkpt><trkpt lat="43.1655706" lon="12.2810399"><ele>254.0</ele><time>2026-04-08T12:03:30.787Z</time></trkpt><trkpt lat="43.1656077" lon="12.2811646"><ele>254.0</ele><time>2026-04-08T12:03:31.789Z</time></trkpt><trkpt lat="43.1656399" lon="12.2812961"><ele>253.99999999999997</ele><time>2026-04-08T12:03:32.736Z</time></trkpt><trkpt lat="43.1656671" lon="12.2814232"><ele>253.99999999999997</ele><time>2026-04-08T12:03:33.78Z</time></trkpt><trkpt lat="43.1656815" lon="12.2815537"><ele>254.0</ele><time>2026-04-08T12:03:34.784Z</time></trkpt><trkpt lat="43.1656955" lon="12.2816791"><ele>254.0</ele><time>2026-04-08T12:03:35.763Z</time></trkpt><trkpt lat="43.1656971" lon="12.2817762"><ele>253.16666666666669</ele><time>2026-04-08T12:03:36.787Z</time></trkpt><trkpt lat="43.1656879" lon="12.2818651"><ele>252.33333333333334</ele><time>2026-04-08T12:03:37.777Z</time></trkpt><trkpt lat="43.1656608" lon="12.281944"><ele>251.5</ele><time>2026-04-08T12:03:38.79Z</time></trkpt><trkpt lat="43.1655805" lon="12.2820808"><ele>250.66666666666669</ele><time>2026-04-08T12:03:40.786Z</time></trkpt><trkpt lat="43.1655292" lon="12.2821375"><ele>249.83333333333334</ele><time>2026-04-08T12:03:41.816Z</time></trkpt><trkpt lat="43.1654794" lon="12.2821988"><ele>249.0</ele><time>2026-04-08T12:03:42.787Z</time></trkpt><trkpt lat="43.1654371" lon="12.2822752"><ele>249.0</ele><time>2026-04-08T12:03:43.779Z</time></trkpt><trkpt lat="43.1653897" lon="12.2823539"><ele>249.0</ele><time>2026-04-08T12:03:44.79Z</time></trkpt><trkpt lat="43.1653424" lon="12.2824365"><ele>249.0</ele><time>2026-04-08T12:03:45.764Z</time></trkpt><trkpt lat="43.1653002" lon="12.2825145"><ele>249.0</ele><time>2026-04-08T12:03:46.775Z</time></trkpt><trkpt lat="43.1652539" lon="12.2825885"><ele>249.0</ele><time>2026-04-08T12:03:47.78Z</time></trkpt><trkpt lat="43.1652094" lon="12.2826618"><ele>249.0</ele><time>2026-04-08T12:03:48.781Z</time></trkpt><trkpt lat="43.1651553" lon="12.2827954"><ele>249.0</ele><time>2026-04-08T12:03:50.776Z</time></trkpt><trkpt lat="43.1651863" lon="12.2829521"><ele>249.0</ele><time>2026-04-08T12:03:52.784Z</time></trkpt><trkpt lat="43.1652213" lon="12.2830302"><ele>249.0</ele><time>2026-04-08T12:03:53.791Z</time></trkpt><trkpt lat="43.1652701" lon="12.2831145"><ele>249.0</ele><time>2026-04-08T12:03:54.795Z</time></trkpt><trkpt lat="43.1653218" lon="12.2831951"><ele>249.0</ele><time>2026-04-08T12:03:55.755Z</time></trkpt><trkpt lat="43.1653682" lon="12.2832809"><ele>249.0</ele><time>2026-04-08T12:03:56.78Z</time></trkpt><trkpt lat="43.1654112" lon="12.283374"><ele>249.33333333333334</ele><time>2026-04-08T12:03:57.768Z</time></trkpt><trkpt lat="43.1654492" lon="12.2834758"><ele>249.66666666666669</ele><time>2026-04-08T12:03:58.796Z</time></trkpt><trkpt lat="43.1654924" lon="12.2835628"><ele>250.0</ele><time>2026-04-08T12:03:59.786Z</time></trkpt><trkpt lat="43.1655414" lon="12.2836624"><ele>250.33333333333334</ele><time>2026-04-08T12:04:00.792Z</time></trkpt><trkpt lat="43.1655829" lon="12.2837508"><ele>250.66666666666669</ele><time>2026-04-08T12:04:01.797Z</time></trkpt><trkpt lat="43.1656134" lon="12.2838339"><ele>251.0</ele><time>2026-04-08T12:04:02.786Z</time></trkpt><trkpt lat="43.1656425" lon="12.2839793"><ele>251.8</ele><time>2026-04-08T12:04:04.811Z</time></trkpt><trkpt lat="43.1656594" lon="12.2840814"><ele>252.60000000000002</ele><time>2026-04-08T12:04:06.801Z</time></trkpt><trkpt lat="43.1657175" lon="12.2841965"><ele>253.4</ele><time>2026-04-08T12:04:08.79Z</time></trkpt><trkpt lat="43.1657791" lon="12.2843455"><ele>254.2</ele><time>2026-04-08T12:04:10.801Z</time></trkpt><trkpt lat="43.1658206" lon="12.2844282"><ele>255.0</ele><time>2026-04-08T12:04:11.79Z</time></trkpt><trkpt lat="43.1658564" lon="12.2845195"><ele>255.0</ele><time>2026-04-08T12:04:12.785Z</time></trkpt><trkpt lat="43.165894" lon="12.2846061"><ele>255.00000000000003</ele><time>2026-04-08T12:04:13.796Z</time></trkpt><trkpt lat="43.1659177" lon="12.2847107"><ele>255.0</ele><time>2026-04-08T12:04:14.78Z</time></trkpt><trkpt lat="43.1659365" lon="12.2847974"><ele>255.0</ele><time>2026-04-08T12:04:15.771Z</time></trkpt><trkpt lat="43.1659309" lon="12.2848858"><ele>255.00000000000003</ele><time>2026-04-08T12:04:16.805Z</time></trkpt><trkpt lat="43.1659046" lon="12.2849746"><ele>255.0</ele><time>2026-04-08T12:04:17.775Z</time></trkpt><trkpt lat="43.1658662" lon="12.2850522"><ele>255.0</ele><time>2026-04-08T12:04:18.786Z</time></trkpt><trkpt lat="43.1658235" lon="12.2851315"><ele>254.83333333333334</ele><time>2026-04-08T12:04:19.784Z</time></trkpt><trkpt lat="43.1657812" lon="12.285214"><ele>254.66666666666669</ele><time>2026-04-08T12:04:20.793Z</time></trkpt><trkpt lat="43.1657382" lon="12.285295"><ele>254.5</ele><time>2026-04-08T12:04:21.798Z</time></trkpt><trkpt lat="43.1657005" lon="12.2853886"><ele>254.33333333333334</ele><time>2026-04-08T12:04:22.735Z</time></trkpt><trkpt lat="43.1656625" lon="12.2854892"><ele>254.16666666666669</ele><time>2026-04-08T12:04:23.756Z</time></trkpt><trkpt lat="43.1656263" lon="12.2856017"><ele>254.0</ele><time>2026-04-08T12:04:24.791Z</time></trkpt><trkpt lat="43.1655938" lon="12.2857052"><ele>254.00000000000003</ele><time>2026-04-08T12:04:25.781Z</time></trkpt><trkpt lat="43.1655613" lon="12.2858141"><ele>254.0</ele><time>2026-04-08T12:04:26.775Z</time></trkpt><trkpt lat="43.1655305" lon="12.285897"><ele>254.0</ele><time>2026-04-08T12:04:27.773Z</time></trkpt><trkpt lat="43.1654759" lon="12.2860418"><ele>254.0</ele><time>2026-04-08T12:04:29.781Z</time></trkpt><trkpt lat="43.1654441" lon="12.2861275"><ele>254.00000000000003</ele><time>2026-04-08T12:04:30.778Z</time></trkpt><trkpt lat="43.1654146" lon="12.2862286"><ele>254.0</ele><time>2026-04-08T12:04:31.787Z</time></trkpt><trkpt lat="43.1653969" lon="12.2863301"><ele>253.66666666666669</ele><time>2026-04-08T12:04:32.795Z</time></trkpt><trkpt lat="43.165377" lon="12.2864315"><ele>253.33333333333334</ele><time>2026-04-08T12:04:33.794Z</time></trkpt><trkpt lat="43.165359" lon="12.2865393"><ele>253.0</ele><time>2026-04-08T12:04:34.798Z</time></trkpt><trkpt lat="43.1653415" lon="12.2866464"><ele>252.66666666666669</ele><time>2026-04-08T12:04:35.781Z</time></trkpt><trkpt lat="43.1653241" lon="12.286762"><ele>252.33333333333334</ele><time>2026-04-08T12:04:36.808Z</time></trkpt><trkpt lat="43.1653028" lon="12.286876"><ele>252.0</ele><time>2026-04-08T12:04:37.774Z</time></trkpt><trkpt lat="43.1652757" lon="12.2869998"><ele>252.0</ele><time>2026-04-08T12:04:38.784Z</time></trkpt><trkpt lat="43.1652449" lon="12.2871255"><ele>252.0</ele><time>2026-04-08T12:04:39.795Z</time></trkpt><trkpt lat="43.1652021" lon="12.287255"><ele>252.0</ele><time>2026-04-08T12:04:40.756Z</time></trkpt><trkpt lat="43.165152" lon="12.287376"><ele>252.0</ele><time>2026-04-08T12:04:41.789Z</time></trkpt><trkpt lat="43.1650958" lon="12.2874913"><ele>252.0</ele><time>2026-04-08T12:04:42.795Z</time></trkpt><trkpt lat="43.1650402" lon="12.287601"><ele>251.8</ele><time>2026-04-08T12:04:43.779Z</time></trkpt><trkpt lat="43.1649923" lon="12.2877162"><ele>251.6</ele><time>2026-04-08T12:04:44.739Z</time></trkpt><trkpt lat="43.1649595" lon="12.2878435"><ele>251.40000000000003</ele><time>2026-04-08T12:04:45.777Z</time></trkpt><trkpt lat="43.1649326" lon="12.2879836"><ele>251.20000000000002</ele><time>2026-04-08T12:04:46.779Z</time></trkpt><trkpt lat="43.16493" lon="12.2881463"><ele>251.0</ele><time>2026-04-08T12:04:47.791Z</time></trkpt><trkpt lat="43.1649376" lon="12.2883044"><ele>250.5</ele><time>2026-04-08T12:04:48.746Z</time></trkpt><trkpt lat="43.1649322" lon="12.2884627"><ele>250.0</ele><time>2026-04-08T12:04:49.782Z</time></trkpt><trkpt lat="43.1649137" lon="12.2886168"><ele>249.5</ele><time>2026-04-08T12:04:50.794Z</time></trkpt><trkpt lat="43.1648831" lon="12.2887726"><ele>249.0</ele><time>2026-04-08T12:04:51.792Z</time></trkpt><trkpt lat="43.164851" lon="12.2889272"><ele>248.79999999999998</ele><time>2026-04-08T12:04:52.791Z</time></trkpt><trkpt lat="43.1648231" lon="12.2890837"><ele>248.59999999999997</ele><time>2026-04-08T12:04:53.786Z</time></trkpt><trkpt lat="43.1648045" lon="12.2892383"><ele>248.4</ele><time>2026-04-08T12:04:54.782Z</time></trkpt><trkpt lat="43.1647839" lon="12.2893745"><ele>248.2</ele><time>2026-04-08T12:04:55.793Z</time></trkpt><trkpt lat="43.1647784" lon="12.2894926"><ele>248.0</ele><time>2026-04-08T12:04:56.784Z</time></trkpt><trkpt lat="43.1647685" lon="12.2896018"><ele>248.00000000000003</ele><time>2026-04-08T12:04:57.791Z</time></trkpt><trkpt lat="43.1647586" lon="12.2897012"><ele>248.0</ele><time>2026-04-08T12:04:58.792Z</time></trkpt><trkpt lat="43.1647562" lon="12.2898111"><ele>248.0</ele><time>2026-04-08T12:04:59.797Z</time></trkpt><trkpt lat="43.1647638" lon="12.2899263"><ele>248.0</ele><time>2026-04-08T12:05:00.777Z</time></trkpt><trkpt lat="43.1647928" lon="12.2900353"><ele>248.00000000000003</ele><time>2026-04-08T12:05:01.789Z</time></trkpt><trkpt lat="43.164846" lon="12.2901082"><ele>248.0</ele><time>2026-04-08T12:05:02.788Z</time></trkpt><trkpt lat="43.1649135" lon="12.2901302"><ele>248.50000000000003</ele><time>2026-04-08T12:05:03.764Z</time></trkpt><trkpt lat="43.164992" lon="12.2901463"><ele>249.0</ele><time>2026-04-08T12:05:04.796Z</time></trkpt><trkpt lat="43.1650709" lon="12.2901596"><ele>249.5</ele><time>2026-04-08T12:05:05.784Z</time></trkpt><trkpt lat="43.1651438" lon="12.2901751"><ele>250.0</ele><time>2026-04-08T12:05:06.795Z</time></trkpt><trkpt lat="43.1652091" lon="12.2901986"><ele>250.50000000000003</ele><time>2026-04-08T12:05:07.797Z</time></trkpt><trkpt lat="43.165312" lon="12.2902478"><ele>251.0</ele><time>2026-04-08T12:05:09.796Z</time></trkpt><trkpt lat="43.1653755" lon="12.2903646"><ele>251.00000000000003</ele><time>2026-04-08T12:05:11.803Z</time></trkpt><trkpt lat="43.1654186" lon="12.290491"><ele>251.0</ele><time>2026-04-08T12:05:13.788Z</time></trkpt><trkpt lat="43.1654315" lon="12.2905862"><ele>251.0</ele><time>2026-04-08T12:05:15.773Z</time></trkpt><trkpt lat="43.1654142" lon="12.2906703"><ele>251.0</ele><time>2026-04-08T12:05:17.779Z</time></trkpt><trkpt lat="43.165356" lon="12.2907742"><ele>251.00000000000003</ele><time>2026-04-08T12:05:19.784Z</time></trkpt><trkpt lat="43.1653233" lon="12.2908779"><ele>251.0</ele><time>2026-04-08T12:05:22.769Z</time></trkpt><trkpt lat="43.1653135" lon="12.2910003"><ele>251.20000000000002</ele><time>2026-04-08T12:05:25.783Z</time></trkpt><trkpt lat="43.1653548" lon="12.2911794"><ele>251.40000000000003</ele><time>2026-04-08T12:05:27.789Z</time></trkpt><trkpt lat="43.1653875" lon="12.2912666"><ele>251.6</ele><time>2026-04-08T12:05:28.786Z</time></trkpt><trkpt lat="43.1654188" lon="12.2913553"><ele>251.8</ele><time>2026-04-08T12:05:29.775Z</time></trkpt><trkpt lat="43.1654657" lon="12.2914424"><ele>252.0</ele><time>2026-04-08T12:05:30.8Z</time></trkpt><trkpt lat="43.165532" lon="12.2915959"><ele>252.0</ele><time>2026-04-08T12:05:32.773Z</time></trkpt><trkpt lat="43.1655708" lon="12.2916743"><ele>252.0</ele><time>2026-04-08T12:05:33.776Z</time></trkpt><trkpt lat="43.1656512" lon="12.2918398"><ele>252.0</ele><time>2026-04-08T12:05:35.778Z</time></trkpt><trkpt lat="43.1656971" lon="12.2919697"><ele>252.0</ele><time>2026-04-08T12:05:36.781Z</time></trkpt><trkpt lat="43.1657344" lon="12.292089"><ele>252.0</ele><time>2026-04-08T12:05:37.795Z</time></trkpt><trkpt lat="43.1657665" lon="12.2922011"><ele>252.16666666666666</ele><time>2026-04-08T12:05:38.772Z</time></trkpt><trkpt lat="43.1658001" lon="12.2923052"><ele>252.33333333333331</ele><time>2026-04-08T12:05:39.777Z</time></trkpt><trkpt lat="43.1658186" lon="12.2923974"><ele>252.5</ele><time>2026-04-08T12:05:40.807Z</time></trkpt><trkpt lat="43.1658241" lon="12.2925073"><ele>252.66666666666666</ele><time>2026-04-08T12:05:41.791Z</time></trkpt><trkpt lat="43.1658246" lon="12.2926372"><ele>252.83333333333331</ele><time>2026-04-08T12:05:42.779Z</time></trkpt><trkpt lat="43.1658251" lon="12.292759"><ele>253.0</ele><time>2026-04-08T12:05:43.781Z</time></trkpt><trkpt lat="43.1658152" lon="12.2929017"><ele>253.0</ele><time>2026-04-08T12:05:44.798Z</time></trkpt><trkpt lat="43.1658062" lon="12.2930464"><ele>253.0</ele><time>2026-04-08T12:05:45.807Z</time></trkpt><trkpt lat="43.1657913" lon="12.2931862"><ele>253.0</ele><time>2026-04-08T12:05:46.787Z</time></trkpt><trkpt lat="43.1657821" lon="12.293305"><ele>253.0</ele><time>2026-04-08T12:05:47.787Z</time></trkpt><trkpt lat="43.1657666" lon="12.2934274"><ele>253.0</ele><time>2026-04-08T12:05:48.791Z</time></trkpt><trkpt lat="43.1657512" lon="12.2935383"><ele>252.99999999999997</ele><time>2026-04-08T12:05:49.78Z</time></trkpt><trkpt lat="43.1657343" lon="12.2936419"><ele>253.0</ele><time>2026-04-08T12:05:50.803Z</time></trkpt><trkpt lat="43.1657227" lon="12.2937283"><ele>253.0</ele><time>2026-04-08T12:05:51.807Z</time></trkpt><trkpt lat="43.1657168" lon="12.2938188"><ele>253.0</ele><time>2026-04-08T12:05:52.786Z</time></trkpt><trkpt lat="43.1657295" lon="12.2939083"><ele>252.99999999999997</ele><time>2026-04-08T12:05:53.787Z</time></trkpt><trkpt lat="43.1657876" lon="12.2939461"><ele>253.0</ele><time>2026-04-08T12:05:55.788Z</time></trkpt><trkpt lat="43.1658985" lon="12.2939213"><ele>253.0</ele><time>2026-04-08T12:05:57.751Z</time></trkpt><trkpt lat="43.1659636" lon="12.2938998"><ele>253.0</ele><time>2026-04-08T12:05:58.785Z</time></trkpt><trkpt lat="43.1660864" lon="12.2938598"><ele>253.0</ele><time>2026-04-08T12:06:00.74Z</time></trkpt><trkpt lat="43.1661924" lon="12.2938105"><ele>253.0</ele><time>2026-04-08T12:06:02.783Z</time></trkpt><trkpt lat="43.1662754" lon="12.2937982"><ele>253.0</ele><time>2026-04-08T12:06:04.778Z</time></trkpt><trkpt lat="43.1663373" lon="12.293875"><ele>253.5</ele><time>2026-04-08T12:06:06.791Z</time></trkpt><trkpt lat="43.1664114" lon="12.2940402"><ele>254.0</ele><time>2026-04-08T12:06:08.759Z</time></trkpt><trkpt lat="43.1664348" lon="12.2941858"><ele>254.5</ele><time>2026-04-08T12:06:09.779Z</time></trkpt><trkpt lat="43.1664588" lon="12.294342"><ele>255.0</ele><time>2026-04-08T12:06:10.8Z</time></trkpt><trkpt lat="43.1664616" lon="12.2944978"><ele>255.0</ele><time>2026-04-08T12:06:11.796Z</time></trkpt><trkpt lat="43.1664793" lon="12.2946553"><ele>255.0</ele><time>2026-04-08T12:06:12.788Z</time></trkpt><trkpt lat="43.1665047" lon="12.294807"><ele>255.0</ele><time>2026-04-08T12:06:13.796Z</time></trkpt><trkpt lat="43.1665099" lon="12.2949386"><ele>255.0</ele><time>2026-04-08T12:06:14.807Z</time></trkpt><trkpt lat="43.1665389" lon="12.2950607"><ele>255.0</ele><time>2026-04-08T12:06:15.794Z</time></trkpt><trkpt lat="43.1665896" lon="12.2951571"><ele>255.33333333333334</ele><time>2026-04-08T12:06:16.733Z</time></trkpt><trkpt lat="43.1666594" lon="12.2952146"><ele>255.66666666666669</ele><time>2026-04-08T12:06:17.81Z</time></trkpt><trkpt lat="43.1667408" lon="12.2952444"><ele>256.0</ele><time>2026-04-08T12:06:18.788Z</time></trkpt><trkpt lat="43.1668093" lon="12.2952672"><ele>256.33333333333337</ele><time>2026-04-08T12:06:19.793Z</time></trkpt><trkpt lat="43.1668751" lon="12.295303"><ele>256.6666666666667</ele><time>2026-04-08T12:06:20.801Z</time></trkpt><trkpt lat="43.1669643" lon="12.2953631"><ele>257.0</ele><time>2026-04-08T12:06:21.799Z</time></trkpt><trkpt lat="43.1670468" lon="12.2954442"><ele>257.0</ele><time>2026-04-08T12:06:22.758Z</time></trkpt><trkpt lat="43.1671064" lon="12.2955638"><ele>257.0</ele><time>2026-04-08T12:06:23.741Z</time></trkpt><trkpt lat="43.1671273" lon="12.2957428"><ele>257.0</ele><time>2026-04-08T12:06:24.78Z</time></trkpt><trkpt lat="43.1671291" lon="12.2959432"><ele>257.0</ele><time>2026-04-08T12:06:25.793Z</time></trkpt><trkpt lat="43.167124" lon="12.2961292"><ele>258.6</ele><time>2026-04-08T12:06:26.75Z</time></trkpt><trkpt lat="43.1671127" lon="12.2962821"><ele>260.2</ele><time>2026-04-08T12:06:27.748Z</time></trkpt><trkpt lat="43.167103" lon="12.2964129"><ele>261.8</ele><time>2026-04-08T12:06:28.722Z</time></trkpt><trkpt lat="43.167119" lon="12.2965365"><ele>263.4</ele><time>2026-04-08T12:06:29.794Z</time></trkpt><trkpt lat="43.1671326" lon="12.2966464"><ele>265.0</ele><time>2026-04-08T12:06:30.785Z</time></trkpt><trkpt lat="43.1671641" lon="12.2967417"><ele>266.6</ele><time>2026-04-08T12:06:31.779Z</time></trkpt><trkpt lat="43.1671843" lon="12.2968353"><ele>268.2</ele><time>2026-04-08T12:06:32.761Z</time></trkpt><trkpt lat="43.167205" lon="12.2969174"><ele>269.8</ele><time>2026-04-08T12:06:33.764Z</time></trkpt><trkpt lat="43.1672082" lon="12.2970649"><ele>271.4</ele><time>2026-04-08T12:06:35.768Z</time></trkpt><trkpt lat="43.1671507" lon="12.2971769"><ele>273.0</ele><time>2026-04-08T12:06:37.728Z</time></trkpt><trkpt lat="43.167036" lon="12.2972598"><ele>275.2</ele><time>2026-04-08T12:06:39.735Z</time></trkpt><trkpt lat="43.1669822" lon="12.297315"><ele>277.4</ele><time>2026-04-08T12:06:40.712Z</time></trkpt><trkpt lat="43.1668911" lon="12.2973771"><ele>279.59999999999997</ele><time>2026-04-08T12:06:41.736Z</time></trkpt><trkpt lat="43.1668047" lon="12.2974661"><ele>281.8</ele><time>2026-04-08T12:06:42.713Z</time></trkpt><trkpt lat="43.1667262" lon="12.2975398"><ele>284.0</ele><time>2026-04-08T12:06:43.748Z</time></trkpt><trkpt lat="43.1666581" lon="12.2976234"><ele>284.0</ele><time>2026-04-08T12:06:44.714Z</time></trkpt><trkpt lat="43.1665578" lon="12.2977159"><ele>284.0</ele><time>2026-04-08T12:06:46.771Z</time></trkpt><trkpt lat="43.1664968" lon="12.2977669"><ele>284.0</ele><time>2026-04-08T12:06:48.73Z</time></trkpt><trkpt lat="43.1664259" lon="12.2978467"><ele>284.0</ele><time>2026-04-08T12:06:50.783Z</time></trkpt><trkpt lat="43.166335" lon="12.2978504"><ele>284.0</ele><time>2026-04-08T12:07:21.795Z</time></trkpt><trkpt lat="43.1662726" lon="12.2979093"><ele>283.0</ele><time>2026-04-08T12:07:47.79Z</time></trkpt><trkpt lat="43.1662055" lon="12.2979469"><ele>282.0</ele><time>2026-04-08T12:07:49.779Z</time></trkpt><trkpt lat="43.1661381" lon="12.2979295"><ele>281.0</ele><time>2026-04-08T12:07:52.791Z</time></trkpt><trkpt lat="43.1661017" lon="12.2978381"><ele>280.0</ele><time>2026-04-08T12:07:55.773Z</time></trkpt><trkpt lat="43.1661459" lon="12.2977718"><ele>279.0</ele><time>2026-04-08T12:07:58.772Z</time></trkpt><trkpt lat="43.1661921" lon="12.2977003"><ele>278.0</ele><time>2026-04-08T12:08:02.78Z</time></trkpt><trkpt lat="43.1661346" lon="12.2976337"><ele>277.0</ele><time>2026-04-08T12:08:06.81Z</time></trkpt><trkpt lat="43.1660689" lon="12.2976139"><ele>277.0</ele><time>2026-04-08T12:08:09.772Z</time></trkpt><trkpt lat="43.1659955" lon="12.2976416"><ele>277.0</ele><time>2026-04-08T12:08:13.79Z</time></trkpt><trkpt lat="43.1659307" lon="12.2976712"><ele>277.0</ele><time>2026-04-08T12:08:16.783Z</time></trkpt><trkpt lat="43.1659941" lon="12.2976186"><ele>277.0</ele><time>2026-04-08T12:08:22.743Z</time></trkpt><trkpt lat="43.1660548" lon="12.2975739"><ele>277.0</ele><time>2026-04-08T12:08:26.723Z</time></trkpt><trkpt lat="43.165997" lon="12.2976245"><ele>277.0</ele><time>2026-04-08T12:08:40.764Z</time></trkpt><trkpt lat="43.1659328" lon="12.2976332"><ele>277.0</ele><time>2026-04-08T12:08:42.753Z</time></trkpt><trkpt lat="43.1659436" lon="12.2975444"><ele>277.0</ele><time>2026-04-08T12:08:57.766Z</time></trkpt><trkpt lat="43.1660022" lon="12.2975028"><ele>277.0</ele><time>2026-04-08T12:09:00.733Z</time></trkpt><trkpt lat="43.165935" lon="12.2975931"><ele>277.0</ele><time>2026-04-08T12:09:16.739Z</time></trkpt><trkpt lat="43.1659851" lon="12.2975312"><ele>277.0</ele><time>2026-04-08T12:09:27.765Z</time></trkpt><trkpt lat="43.1660587" lon="12.2975379"><ele>277.0</ele><time>2026-04-08T12:09:33.784Z</time></trkpt><trkpt lat="43.1659812" lon="12.2975387"><ele>277.0</ele><time>2026-04-08T12:09:44.8Z</time></trkpt><trkpt lat="43.1660562" lon="12.2974947"><ele>277.0</ele><time>2026-04-08T12:09:53.784Z</time></trkpt><trkpt lat="43.1661153" lon="12.2975602"><ele>277.0</ele><time>2026-04-08T12:09:56.762Z</time></trkpt><trkpt lat="43.1661293" lon="12.2976505"><ele>277.0</ele><time>2026-04-08T12:10:02.759Z</time></trkpt><trkpt lat="43.1661467" lon="12.2977335"><ele>277.0</ele><time>2026-04-08T12:10:11.76Z</time></trkpt><trkpt lat="43.1662377" lon="12.2977014"><ele>277.0</ele><time>2026-04-08T12:10:26.777Z</time></trkpt></trkseg></trk></gpx>